GFSMA_500_rhum_000.txt.gz
RH
50 45 42 44 46 42 40 38 38 24 12 9 10 16 18 19 19 23 29 32 32 32 32 32 30 26 23 19 17 14 13 12 11 8 8 7 7 7 7 6 6 5 4
50 33 33 47 48 43 40 35 22 14 11 15 22 33 39 40 40 37 35 33 32 30 27 23 20 18 17 16 16 16 16 16 15 15 14 13 12 12 11 11 11 10 11
45 42 46 52 48 42 39 33 32 20 12 13 18 27 36 37 35 32 30 24 21 20 19 19 18 18 18 17 16 15 14 12 12 12 12 12 12 12 12 12 12 12 12
42 51 53 50 44 46 48 44 32 16 11 21 34 40 41 40 37 33 27 23 22 21 20 18 17 16 16 16 16 15 15 15 15 14 13 13 14 14 14 13 13 12 12
50 50 49 52 50 50 44 31 18 10 12 36 50 46 40 36 33 30 26 23 20 19 18 20 20 21 22 22 22 22 22 22 21 20 20 19 18 16 16 16 15 14 13
46 48 51 56 52 42 26 18 10 10 19 41 44 35 30 28 25 22 21 20 20 21 23 25 27 27 27 27 26 26 25 24 24 24 24 23 22 21 20 18 18 17 17
50 51 53 51 38 20 12 11 11 21 36 40 34 29 26 24 21 20 21 24 26 29 29 28 28 28 28 28 29 29 29 29 29 30 30 30 28 26 24 23 23 21 19
48 48 45 30 13 11 11 16 44 44 40 36 29 26 22 24 26 29 31 32 32 33 33 34 34 34 35 35 36 34 32 30 28 27 25 24 23 22 22 22 21 21 21
37 29 15 10 11 17 42 52 43 33 30 28 28 31 33 32 32 33 34 33 32 33 34 34 34 33 32 32 30 28 24 21 17 14 11 11 12 12 14 15 16 16 16
15 12 12 16 34 57 46 38 35 28 28 31 33 33 32 32 32 31 30 32 31 31 32 33 30 25 21 17 13 9 7 6 5 5 5 5 4 4 4 4 4 5 6
13 14 21 48 62 43 38 32 29 30 32 34 34 33 34 33 31 27 24 24 27 28 23 19 15 11 8 7 7 7 7 6 6 5 5 5 5 4 4 4 4 4 3
17 29 60 59 41 32 32 36 37 37 37 37 39 37 34 30 29 26 24 22 20 20 18 14 10 9 8 8 8 7 7 6 6 5 4 4 4 4 4 3 3 3 3
36 65 58 39 33 38 40 40 40 41 44 43 40 36 32 29 27 26 23 21 20 16 11 9 9 9 8 8 7 6 6 5 5 4 4 4 4 4 4 3 3 2 2
67 58 37 36 41 42 42 44 44 49 48 43 38 34 32 30 22 14 14 15 12 11 10 9 9 8 7 7 6 6 5 4 4 4 4 4 4 4 3 3 2 2 2
55 39 37 43 43 47 47 51 52 54 48 40 37 36 31 18 11 11 13 13 14 12 10 10 8 7 7 7 6 5 4 3 5 6 8 9 9 11 11 8 7 8 6
47 47 48 45 50 47 53 58 60 52 41 38 36 27 19 14 14 17 18 14 12 11 9 8 7 6 6 6 4 4 6 11 14 20 27 26 22 19 16 13 9 7 6
62 51 45 49 44 50 67 62 55 43 39 35 23 18 16 21 19 12 12 12 10 9 8 7 7 6 4 3 5 11 18 23 28 27 21 15 11 9 12 14 14 14 13
49 42 51 43 53 72 62 57 45 40 34 22 20 24 20 11 12 12 10 9 9 10 11 8 4 3 8 14 20 26 28 28 20 13 10 14 25 27 26 25 23 18 15
43 62 37 56 74 63 60 48 42 31 22 23 26 13 13 12 12 12 11 10 11 11 6 3 4 12 16 22 27 30 24 14 10 24 20 16 18 18 23 20 15 17 21
78 38 57 71 66 66 52 42 28 24 27 22 14 14 13 12 12 10 12 13 10 3 6 13 17 20 22 24 28 21 12 14 22 27 28 51 39 37 26 19 15 12 10
40 70 67 71 76 57 42 27 28 31 20 15 14 13 13 12 11 13 14 7 4 12 16 21 24 23 23 27 24 15 15 24 60 90 72 100 51 55 37 21 14 7 5
69 66 78 85 61 40 29 30 32 22 16 16 15 15 14 15 17 10 3 7 16 15 13 13 12 11 12 13 11 16 48 67 80 100 86 93 46 40 21 9 10 18 37
64 85 91 64 38 32 33 32 26 18 17 18 16 15 16 14 5 3 12 12 12 16 19 17 13 11 10 11 20 54 77 77 75 90 60 55 47 10 5 14 42 72 99
92 92 64 38 37 34 32 24 19 17 17 17 18 19 11 4 5 12 9 11 14 17 18 14 11 12 20 31 70 75 78 77 82 85 54 34 19 14 27 56 74 98 100
92 59 42 39 36 31 22 20 18 17 17 18 18 10 3 9 10 9 12 13 13 13 12 17 23 24 71 88 87 87 87 87 100 100 77 69 46 37 56 73 89 85 100
55 46 41 37 27 22 20 20 18 15 15 16 11 4 13 9 9 13 13 13 14 22 24 29 74 100 98 100 100 94 97 100 100 100 93 99 78 63 61 76 79 78 100

GFSMA_500_rhum_003.txt.gz
RH
50 49 50 46 36 40 46 50 46 42 38 28 25 16 14 16 26 36 42 41 40 38 35 32 30 28 27 25 24 21 20 19 16 14 13 12 10 9 7 6 6 5 4
52 50 49 42 46 48 48 46 43 43 45 44 30 17 13 18 27 35 36 36 34 32 30 29 26 22 19 18 18 18 17 17 17 16 16 15 14 14 14 14 13 12 11
51 50 41 45 48 46 47 49 51 54 49 31 20 14 17 28 38 43 43 41 38 34 28 23 21 20 20 19 18 18 17 16 17 16 16 15 15 15 14 12 12 12 12
49 50 47 51 51 49 52 53 51 43 31 23 17 13 19 35 45 47 44 39 35 33 30 27 24 21 19 19 20 21 22 24 23 24 24 25 24 23 22 21 19 18 16
48 53 56 53 46 48 48 43 39 32 25 21 17 16 31 45 43 37 34 30 28 25 23 21 21 21 23 25 27 28 29 28 28 28 28 28 28 27 26 25 24 24 23
37 32 52 49 47 46 44 37 23 13 10 11 15 27 42 39 35 31 28 25 23 22 26 30 31 32 32 31 30 30 29 29 29 28 29 28 28 28 26 26 25 24 24
22 41 43 42 39 31 18 11 11 10 15 46 50 43 41 37 31 27 27 32 34 35 34 34 34 32 32 31 31 30 30 31 30 30 30 28 27 27 27 27 26 25 24
39 45 38 27 18 13 15 19 15 35 51 49 45 37 30 30 33 37 37 36 36 37 36 35 34 33 33 34 34 32 29 26 24 20 19 18 15 13 14 15 16 18 18
51 48 39 21 15 18 21 20 50 55 47 43 36 38 42 41 40 40 41 40 38 36 35 34 34 33 29 23 18 17 16 15 12 10 8 8 7 7 7 7 6 6 6
54 43 22 16 18 24 23 49 58 43 35 38 43 40 43 45 42 40 42 39 35 32 30 28 25 22 20 19 18 15 12 11 10 9 9 8 7 6 6 6 5 5 6
48 26 15 16 22 25 53 59 40 36 44 44 46 49 47 45 47 45 36 31 31 30 28 24 19 16 16 15 14 12 12 11 10 9 8 7 6 6 5 5 5 4 4
29 14 15 24 37 64 56 41 40 46 45 50 52 50 46 53 48 39 31 27 25 26 27 22 19 18 17 15 15 15 14 11 10 9 8 7 6 5 4 4 3 3 3
16 15 26 47 63 56 44 48 49 48 54 53 50 52 61 52 42 35 33 30 27 26 23 20 17 16 18 17 15 12 10 9 7 6 5 5 5 4 4 4 3 3 3
17 30 52 68 67 49 54 55 51 53 49 46 63 63 55 45 38 36 29 26 25 22 17 16 19 18 15 11 10 8 6 5 5 5 5 5 4 4 4 3 3 3 3
30 57 75 72 65 63 56 48 50 50 50 66 64 59 48 42 35 26 27 30 20 17 17 17 13 10 9 8 7 7 6 5 5 4 3 3 5 10 12 11 11 11 11
63 80 71 64 63 54 46 54 53 50 69 66 64 55 45 34 28 33 28 18 15 14 16 12 10 9 8 8 7 5 4 3 2 4 8 12 17 18 19 19 17 14 13
80 76 63 63 54 48 59 69 49 64 68 70 61 48 35 34 36 28 20 17 15 13 10 9 8 8 7 5 3 2 3 7 13 17 22 26 26 24 16 10 9 10 11
80 66 64 63 59 75 76 40 61 71 76 67 50 36 37 38 31 21 15 12 10 9 8 8 6 4 3 5 7 8 12 16 18 20 25 27 28 16 20 20 17 15 13
70 68 75 78 88 73 60 62 72 82 70 50 39 40 37 26 19 15 12 11 10 8 7 5 3 4 6 7 9 12 14 14 17 22 26 23 17 26 48 63 40 24 21
77 82 85 92 81 62 60 80 87 72 48 42 41 31 21 16 14 13 13 12 10 7 4 4 6 6 10 13 12 13 13 15 13 14 14 24 65 86 75 67 55 51 46
82 90 93 79 54 75 85 90 72 48 46 40 24 18 15 16 16 16 14 11 5 4 5 6 9 11 11 9 10 10 9 9 13 28 46 84 84 76 79 77 68 54 33
94 85 48 60 73 80 89 67 50 48 32 23 18 16 18 20 19 16 9 4 5 6 8 13 11 8 6 7 9 16 30 54 81 100 86 88 84 87 75 63 24 4 6
53 45 62 66 86 86 61 53 47 30 23 19 19 21 22 20 15 8 3 6 6 10 14 14 11 12 19 38 64 86 100 100 100 100 70 94 92 74 56 36 20 18 46
48 60 70 93 80 60 54 41 29 24 22 22 25 25 20 16 7 4 6 7 12 14 16 17 19 52 75 82 87 95 94 100 100 100 76 97 88 98 75 54 40 54 65
65 80 92 74 62 51 35 27 24 23 23 26 26 21 14 5 5 6 7 14 17 20 24 52 68 77 88 94 93 99 100 100 100 99 94 100 100 99 100 82 59 53 68
90 84 72 63 44 30 28 26 26 27 24 23 22 13 5 6 7 7 14 16 24 56 76 81 90 94 95 100 98 95 96 99 100 100 97 100 100 91 100 94 81 69 84

GFSMA_500_rhum_006.txt.gz
RH
63 57 49 52 50 47 39 40 46 47 44 44 45 47 36 24 18 14 15 15 21 29 32 34 33 30 29 28 24 24 22 20 19 19 18 18 17 16 16 15 14 14 13
64 58 53 53 49 42 36 42 45 54 56 54 48 37 29 25 22 16 19 27 38 43 44 43 41 37 33 27 24 22 21 21 20 20 19 19 19 19 18 17 16 15 14
60 60 53 51 50 46 51 51 54 53 49 43 39 35 29 23 23 23 29 36 44 47 44 39 36 34 32 29 27 23 22 21 21 22 22 23 24 24 24 24 23 23 22
58 49 51 50 50 55 54 48 48 45 43 42 33 22 11 11 15 28 39 44 41 36 33 30 28 26 24 22 22 24 25 26 26 26 27 29 30 30 29 29 28 28 27
49 49 49 47 40 47 53 47 46 40 26 13 11 10 14 26 41 44 40 36 33 30 27 26 27 30 32 34 35 35 34 33 33 32 31 31 30 30 30 29 29 28 27
51 49 50 28 39 44 44 38 26 15 13 18 18 26 48 49 43 39 34 31 31 34 38 39 39 39 39 39 38 36 34 33 33 32 33 33 33 32 32 32 30 29 28
52 53 36 27 40 45 40 30 15 18 25 22 37 49 50 52 45 37 39 41 42 42 42 41 42 42 40 37 34 33 32 32 30 29 29 27 26 24 23 21 22 22 22
55 51 52 50 52 47 33 16 16 26 25 33 54 56 46 39 44 46 45 46 46 46 46 46 45 42 36 33 32 30 28 26 23 21 19 19 19 18 17 15 13 11 10
54 50 55 59 56 42 23 15 23 24 26 39 55 47 48 50 50 48 51 53 50 52 53 48 40 35 33 32 29 25 22 21 20 19 20 19 17 14 13 12 12 11 10
53 49 52 58 54 34 14 19 24 28 44 59 53 53 54 50 48 45 51 54 57 56 48 40 36 35 33 32 29 27 26 24 22 20 17 16 16 17 16 15 13 12 11
49 44 50 54 42 16 15 25 36 56 62 58 57 55 52 55 57 54 53 57 55 50 42 38 35 31 26 24 25 25 22 18 16 17 18 18 16 12 10 9 9 8 8
42 41 50 43 21 15 25 45 62 66 58 61 58 52 54 57 60 61 53 47 42 43 42 36 29 28 31 29 22 18 17 17 17 17 15 13 12 11 10 10 9 9 8
36 41 41 24 15 26 50 69 69 66 64 58 47 50 61 67 63 57 53 51 45 41 37 34 34 34 28 24 21 18 17 14 13 12 11 11 11 11 11 10 10 9 8
34 34 22 17 25 46 71 68 67 67 59 45 52 67 54 53 62 65 63 56 45 39 37 36 32 27 23 19 17 17 15 13 12 11 11 10 8 7 5 4 3 3 2
26 22 19 23 52 71 76 65 65 62 50 67 80 60 60 65 72 71 60 45 45 41 30 25 21 19 19 18 16 14 13 11 9 8 6 4 3 4 5 5 4 5 6
24 20 25 55 74 78 65 65 67 62 79 85 66 61 72 77 74 58 47 51 37 23 24 22 22 21 16 13 12 10 8 5 3 3 3 4 6 8 10 14 15 15 17
22 30 58 72 77 67 65 76 76 82 89 65 64 78 83 75 58 55 49 25 21 20 20 15 12 9 7 8 8 4 3 4 5 6 8 11 12 12 13 15 18 18 18
36 60 67 71 69 72 79 83 92 82 59 71 75 82 73 59 59 34 25 22 20 16 13 8 7 7 6 4 4 5 6 7 7 7 8 10 11 13 16 15 14 15 15
59 67 71 79 80 82 91 81 50 63 70 73 80 70 62 48 28 24 21 14 13 12 12 10 6 3 4 5 6 8 4 4 6 7 7 9 11 12 13 13 12 11 11
71 78 85 90 92 86 49 50 62 66 79 81 66 63 35 27 26 24 18 15 13 11 10 5 4 6 6 8 10 23 40 42 40 32 31 31 22 25 27 30 44 57 58
89 94 94 84 70 45 48 62 70 83 78 68 53 30 29 27 24 21 16 12 10 8 4 5 6 7 11 19 49 58 65 74 96 78 72 88 87 92 94 83 74 69 57
98 83 77 65 40 57 65 76 85 76 69 42 32 30 31 29 24 17 12 10 6 5 7 7 8 18 51 53 63 75 80 88 94 87 81 100 87 96 90 92 86 80 60
72 71 50 46 67 69 84 85 75 63 38 33 33 32 26 23 18 14 10 5 6 7 9 9 35 59 54 62 77 84 92 98 89 80 87 100 93 100 96 97 88 92 63
71 45 63 68 75 88 82 71 55 38 35 36 33 30 24 20 15 10 5 6 7 9 12 57 67 64 65 73 74 78 82 98 100 90 76 98 96 99 100 99 88 96 64
61 68 68 81 86 78 64 50 40 37 39 37 32 25 19 15 9 5 6 7 9 12 57 75 67 70 79 83 83 77 80 87 99 100 89 98 98 98 100 80 72 84 73
66 76 84 79 69 57 49 43 40 40 36 28 23 18 16 8 5 9 8 9 12 56 77 79 81 86 86 90 87 82 80 82 82 97 96 98 100 75 99 77 95 97 89

GFSMA_500_rhum_009.txt.gz
RH
60 62 68 60 62 49 43 49 42 35 40 43 50 50 49 43 38 34 29 25 23 20 20 26 30 32 36 37 38 39 38 35 31 27 23 21 20 19 19 19 18 18 17
69 68 62 60 58 50 51 50 47 46 48 48 47 45 42 41 36 26 16 13 16 22 28 39 43 45 43 40 39 37 35 32 31 28 25 22 21 20 20 20 20 20 19
74 68 61 61 53 52 51 50 53 53 52 50 46 43 35 19 16 13 12 15 20 30 37 41 40 36 33 31 28 27 26 24 24 24 23 23 23 22 22 22 23 23 24
71 67 59 53 50 50 50 42 40 56 55 49 40 24 17 22 19 19 36 48 46 42 38 34 31 28 28 30 33 34 35 35 36 36 35 35 35 34 33 32 31 31 30
61 58 53 50 51 50 47 30 42 47 40 34 20 18 23 23 28 42 47 47 45 39 34 34 36 39 41 41 41 40 40 40 40 39 38 36 35 34 32 32 31 31 30
56 53 52 53 51 50 24 32 43 44 41 26 14 23 26 26 41 50 49 48 42 44 46 45 43 42 39 39 40 43 44 44 41 37 34 32 32 31 30 30 30 30 30
57 58 57 55 53 52 48 48 51 48 30 16 16 26 28 34 48 49 45 46 47 46 42 42 45 46 44 45 47 46 42 36 34 31 29 28 28 27 26 26 26 25 25
63 64 62 58 53 51 56 60 60 48 23 14 23 33 44 50 52 47 48 51 49 50 53 53 51 51 51 50 44 41 37 33 32 31 30 29 28 26 25 24 22 21 20
72 70 66 61 55 51 54 56 56 42 17 17 28 38 46 52 51 53 53 51 52 55 56 60 63 60 55 50 45 41 38 36 34 33 31 30 29 28 27 26 25 24 22
73 74 67 62 53 49 50 49 51 32 15 27 37 47 55 53 50 45 50 51 57 64 65 63 60 56 53 49 46 43 40 36 32 28 26 27 28 27 24 20 17 16 15
62 62 59 53 48 46 45 46 42 16 20 37 50 55 56 54 51 52 53 58 67 53 58 59 61 62 55 46 38 32 30 31 33 35 34 32 27 23 20 19 18 17 17
48 47 46 43 43 46 42 40 19 18 30 48 58 56 55 60 57 58 64 66 58 54 55 62 65 53 45 42 43 44 43 38 31 26 23 22 21 20 20 19 18 16 15
32 35 37 39 39 38 36 20 19 32 40 59 59 55 63 59 64 76 75 62 50 44 40 50 54 52 50 40 26 20 17 15 14 12 11 10 9 9 9 9 9 11 11
20 28 32 34 36 32 22 22 32 43 58 61 58 70 74 76 84 78 62 56 42 49 54 49 46 31 25 12 8 8 9 9 8 8 7 6 6 5 5 5 4 4 4
16 26 33 34 33 23 24 32 40 54 60 62 74 80 85 78 63 65 64 66 65 50 41 32 26 18 14 10 9 9 9 8 7 5 4 3 2 3 3 4 4 4 4
24 35 39 35 25 25 31 37 50 64 71 78 79 75 57 60 64 71 72 69 61 44 30 23 16 13 13 13 12 9 7 5 3 3 3 3 4 4 4 4 4 5 6
36 45 37 28 26 32 35 53 72 81 82 80 50 50 59 68 81 76 70 59 38 31 25 16 13 13 11 9 8 6 3 3 4 4 6 8 17 21 6 3 4 5 5
46 40 33 34 37 46 65 81 86 83 68 43 52 65 79 81 76 68 51 36 32 29 23 18 15 12 10 6 4 4 5 6 9 14 40 46 47 50 40 26 12 8 9
43 34 40 47 68 84 82 77 76 52 42 62 68 84 79 74 61 43 37 33 30 26 22 16 12 11 4 4 5 5 13 39 52 54 56 57 66 61 66 66 62 72 65
37 42 69 89 87 82 74 71 48 51 66 76 83 77 66 52 43 38 33 30 20 16 15 15 10 3 4 6 12 37 46 59 68 66 63 69 70 72 67 63 71 74 76
57 87 94 87 74 73 73 52 61 67 81 81 73 59 48 44 38 34 25 18 16 18 14 6 3 5 6 19 56 53 58 73 84 66 68 90 77 81 74 75 78 82 78
96 95 88 83 80 72 58 65 70 81 74 65 54 50 43 39 33 24 20 18 17 8 4 4 6 5 14 55 56 58 70 78 92 80 69 100 80 90 79 80 69 65 80
93 90 84 78 61 64 66 79 79 69 62 54 52 42 36 28 23 22 18 13 5 4 7 7 5 16 54 56 56 71 82 82 86 84 76 94 92 97 87 73 70 78 68
85 82 67 60 67 72 81 72 66 60 56 50 40 34 26 24 19 17 11 3 3 8 7 8 25 66 64 66 65 67 74 84 88 91 67 90 81 90 45 46 40 53 85
74 58 64 69 79 73 68 64 59 59 45 36 32 28 23 19 17 9 3 4 8 6 14 53 65 65 66 66 64 70 76 79 82 96 80 87 75 49 22 30 44 46 99
61 68 76 76 66 66 64 60 52 40 32 29 24 23 20 18 7 3 5 8 5 18 75 75 73 75 73 73 71 68 64 76 74 93 89 94 46 32 66 50 68 80 85

GFSMA_500_rhum_012.txt.gz
RH
58 63 62 59 60 60 65 56 50 46 48 44 41 47 49 48 45 39 35 25 21 18 14 12 12 14 18 23 31 38 42 43 41 40 39 37 34 30 26 22 21 20 19
52 56 65 68 63 58 58 54 50 50 50 50 51 56 54 48 42 34 20 27 22 14 13 16 21 23 24 27 31 36 36 34 32 30 30 29 28 28 27 25 23 21 20
67 71 74 75 70 64 57 52 49 50 49 41 53 56 50 43 30 18 27 24 19 24 32 38 40 40 40 38 37 34 32 30 29 30 30 30 30 28 27 27 27 26 25
78 76 76 72 69 62 50 49 50 50 46 30 52 48 40 33 17 21 27 24 29 39 43 44 46 44 40 38 37 36 38 39 40 40 40 39 39 39 39 38 37 36 34
82 76 75 66 59 50 49 51 52 45 27 41 44 45 42 25 16 21 27 28 37 44 44 45 42 42 43 44 42 41 41 40 38 36 37 37 37 38 40 39 38 37 36
80 78 73 57 52 50 53 54 52 51 41 47 51 50 37 20 15 25 28 32 44 45 43 42 42 38 34 34 35 36 37 38 40 41 41 41 40 40 37 35 33 31 30
75 80 75 55 55 58 57 55 52 51 55 59 60 57 40 16 16 29 34 39 44 44 42 39 36 36 38 45 46 45 46 45 46 47 45 42 40 38 35 32 30 29 28
62 76 77 68 61 64 64 60 56 51 50 51 52 55 38 20 21 33 40 44 46 46 48 46 43 45 50 52 49 47 46 46 43 41 39 38 38 39 38 36 34 32 31
56 72 79 76 71 72 72 68 58 52 50 50 49 46 28 20 32 42 49 54 55 54 51 51 52 57 63 59 51 49 47 44 41 40 40 42 42 41 39 37 35 33 32
60 66 78 81 70 67 74 66 54 48 48 48 46 40 18 22 27 38 54 56 60 61 55 55 68 75 67 58 53 48 44 43 49 53 51 48 44 42 41 40 38 36 34
48 56 60 56 54 54 52 47 44 45 48 44 40 22 21 27 31 36 46 52 56 64 64 76 82 71 63 58 51 53 58 55 53 51 49 46 36 22 16 18 21 24 26
47 48 46 43 43 42 39 36 38 39 37 33 23 19 27 30 40 39 42 61 72 79 82 68 63 65 62 64 64 59 54 47 34 26 20 17 16 12 11 11 12 14 14
47 42 36 33 30 31 31 37 35 32 30 24 19 26 30 39 42 54 64 65 64 57 53 50 53 65 64 60 52 40 31 27 20 15 10 9 9 9 9 9 9 9 9
31 25 18 16 16 25 33 36 36 31 25 20 24 29 38 48 66 70 69 56 50 50 41 43 55 49 42 37 34 31 26 18 13 11 10 8 7 7 6 5 4 3 3
27 16 13 14 22 32 36 40 38 22 24 24 29 43 59 66 69 60 45 47 41 32 45 48 44 39 36 32 23 10 8 7 6 6 5 5 4 3 2 3 3 3 3
27 26 28 30 35 41 42 37 26 26 26 40 60 66 67 66 47 44 46 46 56 48 37 41 40 35 25 15 11 11 9 7 6 4 3 2 2 3 7 20 30 34 33
64 61 51 42 45 46 37 30 25 40 64 72 69 70 59 48 49 48 62 55 51 47 42 39 30 22 16 16 16 12 9 5 2 3 4 4 18 32 40 50 44 39 37
76 64 52 49 49 40 31 29 58 79 76 70 72 64 54 50 69 64 55 53 49 46 33 22 18 14 11 11 10 7 3 3 5 5 28 44 42 55 56 45 48 52 56
76 53 54 60 42 33 40 75 88 81 76 75 58 52 62 72 61 57 54 51 40 28 23 16 12 11 10 8 5 3 4 5 14 48 47 46 62 64 57 51 49 50 56
50 58 83 50 40 65 88 92 83 77 64 55 59 72 67 59 56 54 47 32 25 20 16 14 12 12 7 3 4 4 5 46 58 53 62 64 62 60 58 45 45 54 62
64 89 51 56 87 97 94 83 74 54 56 71 72 63 58 56 53 35 27 23 18 17 16 14 11 5 3 5 4 14 59 59 82 57 64 81 66 65 58 53 62 69 61
88 45 82 98 100 94 80 64 53 63 75 67 62 61 58 44 30 26 22 20 17 15 14 7 4 4 5 3 32 64 64 64 75 82 66 89 67 81 68 74 73 32 14
68 95 100 100 89 74 56 58 73 74 66 63 63 52 34 30 25 22 18 16 16 9 4 4 6 5 4 43 60 67 71 68 74 74 68 98 80 84 77 66 22 18 19
98 100 95 80 61 56 70 77 72 67 67 58 40 35 33 25 21 18 15 12 6 4 6 7 6 18 58 62 62 66 67 70 81 76 60 87 75 86 73 27 22 25 38
99 87 68 52 68 79 78 71 68 66 48 36 36 31 25 20 18 14 9 4 4 6 8 11 50 66 66 70 63 62 65 59 52 45 56 79 73 95 51 23 55 77 85
71 48 63 77 81 77 68 69 57 39 35 32 28 24 22 16 13 7 3 4 6 10 45 84 80 78 76 75 68 62 54 42 28 17 22 77 84 83 32 41 72 72 82

GFSMA_500_rhum_015.txt.gz
RH
35 41 51 56 53 53 53 57 55 59 56 45 43 49 50 44 46 46 47 39 36 22 27 22 19 15 13 14 14 11 13 19 25 33 38 38 38 38 38 37 36 31 26
34 46 50 49 53 57 62 59 56 58 54 47 47 49 46 47 48 50 48 39 22 24 28 20 16 16 19 25 27 30 34 36 38 36 35 34 33 32 31 30 30 28 27
37 35 56 60 66 73 76 74 66 61 54 50 49 50 45 36 53 49 40 35 21 23 26 19 18 22 27 32 34 34 34 36 37 36 35 35 35 35 34 34 32 29 27
44 45 48 65 81 76 76 72 70 62 48 50 51 47 32 44 45 45 42 28 19 21 26 22 23 30 34 37 38 40 39 41 43 44 44 44 44 43 42 42 41 40 39
42 49 54 69 83 76 75 66 58 49 50 52 51 43 35 45 53 55 53 40 17 19 26 25 24 32 36 38 40 40 39 35 33 33 31 31 33 33 33 34 36 37 39
35 38 50 60 75 79 75 57 50 51 55 54 52 52 53 55 57 58 58 50 27 18 26 27 27 34 39 38 35 32 29 29 32 36 38 37 39 39 38 38 40 42 42
32 38 52 50 71 82 79 59 55 59 60 59 57 53 52 50 52 53 51 48 26 21 28 28 27 30 31 33 34 34 38 45 46 44 44 43 43 43 42 40 38 37 36
38 30 34 44 59 80 80 73 69 69 71 74 69 58 52 51 51 52 53 44 24 26 28 27 28 31 34 35 40 49 51 49 47 47 48 44 43 41 39 37 36 34 35
41 30 25 42 55 73 79 80 81 78 74 81 80 56 45 46 52 49 40 22 22 26 28 33 38 37 39 48 54 53 52 54 51 47 42 36 28 24 24 26 30 34 39
53 42 31 41 56 64 69 81 84 78 67 60 51 43 43 46 46 37 24 23 25 34 45 50 49 52 56 58 59 58 53 51 47 38 38 43 45 43 39 37 35 34 32
45 51 31 28 45 55 59 58 50 46 45 41 38 38 39 38 32 24 22 26 23 31 36 41 56 64 70 63 52 52 49 39 42 49 46 41 40 39 37 34 31 28 25
37 42 53 52 44 47 50 49 44 38 29 24 27 28 30 29 25 22 21 23 27 45 50 56 64 56 48 50 48 44 50 49 42 39 38 37 35 33 31 29 28 24 19
46 42 44 49 51 48 40 30 24 22 21 20 20 25 34 25 24 22 16 26 38 56 60 58 48 48 46 46 53 47 42 40 40 40 37 30 16 9 9 9 10 12 12
52 48 45 42 38 33 23 17 23 33 32 28 33 34 24 22 20 31 46 46 48 58 54 49 45 50 52 45 40 42 42 38 28 19 15 11 9 9 7 6 6 6 6
56 53 49 44 35 27 25 31 38 40 41 41 33 26 25 36 59 62 61 61 60 51 35 52 52 45 40 38 40 36 24 14 11 10 9 8 6 6 6 4 3 2 3
57 52 47 43 45 62 64 58 51 50 46 34 30 34 58 67 68 65 66 53 37 43 47 47 42 42 43 36 24 17 12 9 7 7 6 6 5 3 3 3 3 10 30
60 61 64 76 81 79 71 57 54 51 38 33 53 81 80 70 70 57 39 54 60 51 44 44 44 35 23 17 14 11 8 7 7 6 4 3 3 3 3 13 34 44 54
68 72 81 91 94 85 59 66 68 44 43 84 90 83 75 68 42 55 65 57 51 48 47 39 26 20 16 14 12 10 9 7 3 3 4 4 3 21 39 44 56 58 53
78 81 90 96 92 58 80 98 61 61 93 94 87 77 53 48 68 64 56 51 50 39 28 22 18 15 13 10 8 6 3 3 4 5 4 19 42 53 52 60 58 57 60
81 94 100 96 69 77 100 68 83 97 96 85 65 49 69 71 63 56 52 41 30 24 21 17 14 8 7 7 4 3 3 5 5 26 56 51 51 53 64 60 60 62 56
99 100 93 89 79 100 73 94 98 94 76 53 63 76 70 61 56 44 32 26 23 20 17 11 7 8 4 3 3 5 5 8 65 68 55 78 58 66 67 64 60 69 69
93 76 81 79 89 87 100 100 89 62 55 77 78 69 61 50 36 28 25 23 21 14 9 10 8 3 3 4 5 11 49 59 64 97 54 83 64 75 68 69 72 79 72
72 59 65 84 96 100 99 79 54 71 82 76 64 58 43 32 28 27 24 18 10 13 11 4 3 3 6 28 49 59 67 71 79 78 61 72 69 66 67 75 81 76 26
56 48 90 99 100 93 57 63 81 83 70 62 52 36 30 30 27 22 11 10 14 8 3 4 10 29 52 57 54 59 62 66 76 72 55 52 36 28 37 68 81 48 32
80 98 99 97 60 57 79 86 78 63 60 46 36 31 28 24 19 13 11 11 5 3 9 37 50 52 50 44 31 22 23 21 25 32 29 25 19 18 21 54 78 29 50
99 96 56 58 76 88 84 68 62 57 42 32 27 26 23 15 10 11 9 4 3 13 46 48 39 32 30 30 28 26 26 26 26 29 26 22 20 13 35 68 71 38 59

GFSMA_500_rhum_018.txt.gz
RH
35 35 31 30 38 39 44 43 44 46 48 54 57 57 52 43 44 49 49 45 47 46 40 34 24 27 24 15 15 16 18 20 24 28 29 27 25 25 30 33 36 38 38
37 38 38 34 30 36 38 37 41 46 54 59 58 58 50 47 48 49 42 44 48 48 40 34 22 24 28 22 15 18 20 21 22 22 23 26 32 36 36 36 35 34 34
45 36 35 38 38 36 37 46 65 67 72 71 70 64 52 51 50 46 34 47 48 46 42 35 19 21 27 29 21 16 21 26 26 27 28 28 30 33 38 43 44 43 41
40 35 32 38 39 40 45 51 65 75 74 72 66 54 50 52 51 37 37 47 55 57 57 56 45 24 24 28 25 20 24 29 31 35 35 37 34 30 29 30 32 34 35
39 34 35 39 40 37 41 51 61 76 76 66 51 50 54 54 52 53 52 52 54 56 57 56 53 33 25 29 27 23 25 31 33 34 33 31 29 28 30 32 33 35 34
36 42 41 37 34 32 39 46 49 76 79 69 53 54 60 60 59 56 54 54 53 52 53 54 50 29 26 29 25 23 25 28 28 28 26 29 33 36 38 38 38 38 38
56 52 55 41 34 30 36 40 49 72 82 78 63 66 70 73 75 72 56 50 50 52 54 50 37 26 28 27 21 22 26 28 29 28 33 42 46 46 45 42 40 39 37
58 61 60 56 38 36 26 32 48 61 78 81 79 77 81 70 70 69 60 46 47 50 48 39 27 29 29 22 22 26 28 28 33 38 45 50 49 47 44 40 35 30 23
59 62 62 55 45 46 27 30 49 58 71 76 78 81 77 67 59 51 45 42 44 42 33 25 29 28 21 21 26 29 31 39 48 52 52 48 46 41 31 22 18 17 18
63 62 63 59 53 53 37 32 37 52 63 67 69 61 49 45 38 35 36 30 26 24 26 28 26 23 23 29 34 39 43 53 53 48 48 45 35 30 32 33 32 30 29
60 64 70 68 53 45 50 47 36 33 39 46 51 47 38 27 20 16 14 20 24 28 28 25 22 30 40 45 51 54 53 51 48 45 40 43 45 41 37 35 34 33 32
52 70 70 63 58 42 38 41 49 52 51 43 33 19 12 11 11 12 22 30 30 29 24 34 42 49 51 57 58 54 46 39 43 47 43 38 36 35 36 36 35 33 29
44 67 64 62 61 51 47 45 43 41 37 28 18 21 27 30 37 37 32 32 25 35 50 64 60 57 56 46 37 41 44 43 39 38 38 38 35 31 28 24 18 13 11
42 56 62 65 56 54 54 51 47 38 30 39 55 53 50 46 43 32 27 23 28 45 58 65 55 45 44 48 46 43 39 39 38 32 24 20 16 14 12 11 11 11 10
39 54 67 65 61 60 54 48 46 56 75 72 66 60 55 45 35 30 44 55 52 47 55 45 46 54 48 43 39 37 34 25 19 16 14 12 9 8 7 6 5 5 4
44 57 68 70 63 56 59 66 82 91 90 75 60 62 57 37 49 69 72 72 66 45 29 49 49 42 40 36 29 21 17 14 12 8 6 6 5 4 4 3 2 2 2
52 57 74 69 63 66 75 90 99 97 78 56 65 72 46 71 86 84 74 52 47 63 54 47 41 35 26 20 16 13 9 7 6 5 5 4 4 3 3 3 3 3 5
53 73 72 67 69 81 99 98 98 83 61 81 90 51 84 90 86 64 44 66 64 52 44 37 26 19 15 12 9 8 6 6 5 4 3 3 3 4 4 4 21 41 43
66 69 73 72 82 99 97 98 100 80 76 78 64 93 94 81 52 58 71 59 49 41 29 22 17 14 10 7 7 6 5 4 3 3 3 4 6 14 46 53 50 49 55
68 79 71 71 87 94 100 96 100 76 69 82 98 98 68 54 75 68 55 47 35 27 23 19 13 9 7 6 5 4 3 4 7 15 23 43 48 56 60 61 60 62 68
82 76 85 93 99 100 88 99 70 77 96 100 93 57 72 77 60 53 43 30 25 21 15 10 8 7 6 6 4 4 11 20 47 54 46 72 52 65 68 64 64 66 70
84 82 87 100 98 90 68 65 87 100 100 72 62 84 71 60 50 37 28 26 18 12 9 8 8 7 5 3 6 20 33 37 43 64 46 62 58 71 61 65 61 57 57
92 99 99 97 84 61 88 100 100 92 56 80 83 63 59 44 33 29 24 15 9 8 8 7 6 4 4 19 35 33 34 30 27 26 20 19 39 57 56 50 48 39 31
99 98 83 60 85 100 100 94 60 70 85 73 61 53 37 32 29 21 13 11 9 6 6 5 4 6 27 35 24 20 21 21 23 24 22 18 24 27 25 23 22 20 19
90 91 96 100 100 92 54 67 83 84 63 59 46 36 33 28 23 16 11 7 6 6 4 4 17 32 24 24 19 15 16 17 17 20 21 14 21 19 21 26 19 15 16
91 100 99 73 48 60 74 88 71 61 54 40 36 34 29 22 13 8 6 6 7 4 7 29 24 24 21 20 22 25 25 22 22 29 40 20 24 19 20 28 21 14 16

GFSMA_500_rhum_021.txt.gz
RH
51 56 40 41 37 34 31 29 33 34 35 34 40 45 51 52 60 60 52 47 51 49 46 47 46 47 36 24 22 28 28 24 15 17 19 21 21 21 24 26 29 30 28
72 64 38 42 40 35 34 33 31 31 32 40 54 60 63 62 66 62 54 52 51 44 36 53 52 44 38 26 21 27 32 32 27 18 17 19 20 19 19 20 21 26 31
38 38 36 38 37 34 31 31 31 33 37 44 57 69 72 72 69 62 51 53 47 34 44 49 56 58 58 56 49 36 31 32 30 25 18 18 19 20 22 23 23 25 27
38 37 41 45 36 35 35 38 37 34 34 43 51 69 75 63 55 51 54 54 53 56 55 55 56 57 58 56 55 45 33 32 31 26 20 19 21 23 25 26 25 24 24
48 46 48 46 37 39 37 34 35 32 34 42 42 64 76 63 52 55 60 62 60 57 55 55 54 53 53 55 54 46 32 31 31 26 21 21 23 25 28 28 25 26 29
44 45 49 54 54 50 51 44 32 30 33 37 44 55 75 76 60 63 70 74 77 76 73 56 50 51 52 54 52 37 29 32 30 24 20 23 25 27 27 26 28 33 34
52 56 52 53 58 58 60 56 42 34 29 29 42 51 67 81 81 78 74 78 73 69 61 59 49 47 52 50 39 29 32 32 25 19 20 24 28 28 30 34 37 41 41
36 50 54 57 58 64 61 55 50 43 35 26 39 53 61 71 77 77 75 70 60 54 48 44 42 41 38 31 29 33 31 24 19 21 25 28 32 36 41 45 46 45 43
21 24 36 40 61 60 59 59 55 52 49 33 34 39 52 60 62 60 52 48 45 35 28 29 24 21 21 28 32 31 22 19 26 31 33 37 44 48 48 46 41 34 27
19 22 23 34 46 59 61 64 64 51 52 54 46 38 41 44 50 49 41 23 14 12 12 15 20 28 32 33 29 21 26 34 38 43 50 51 47 36 27 24 25 28 30
22 22 24 32 36 59 70 68 60 56 43 44 48 47 43 39 36 30 18 18 23 30 36 36 34 34 32 25 29 40 46 49 52 48 36 30 30 35 38 36 35 34 33
28 32 29 48 49 50 66 67 65 61 55 52 49 46 42 36 32 35 43 48 46 49 43 36 32 29 30 37 44 51 52 43 36 39 46 45 40 36 34 32 32 32 30
40 44 43 41 39 43 61 62 64 60 58 56 49 45 44 56 64 60 54 50 46 42 37 51 55 53 54 54 51 43 35 37 42 38 36 33 30 27 24 21 18 16 14
44 49 46 45 45 43 54 63 67 62 56 54 57 70 71 69 68 60 52 45 39 31 44 80 79 68 56 46 42 44 43 39 35 31 25 19 14 13 11 10 9 8 8
39 54 52 54 43 42 57 67 67 60 60 69 85 82 80 76 60 50 49 41 28 27 48 74 62 54 53 52 48 41 35 29 21 15 12 11 10 10 9 8 7 6 5
53 54 55 54 45 55 56 69 67 65 74 79 79 81 75 60 54 59 45 43 66 66 59 53 48 54 50 43 36 28 20 16 14 12 10 9 9 9 8 6 4 4 3
60 51 57 54 60 57 68 74 69 71 73 78 82 78 81 73 59 48 70 85 85 63 47 55 54 45 38 29 21 17 15 13 11 10 10 9 8 5 4 3 3 4 3
47 58 63 52 59 66 77 72 66 72 84 89 95 95 97 67 56 88 89 79 56 71 64 50 42 33 23 20 16 14 12 11 10 9 7 5 4 3 5 11 23 26 37
57 48 53 53 60 77 77 74 82 93 99 100 100 92 75 84 100 91 65 66 74 59 48 38 27 22 19 16 14 12 10 8 7 5 3 4 9 20 28 32 35 42 47
53 64 64 69 79 82 87 94 98 100 99 97 74 62 96 99 84 62 77 69 54 44 33 26 23 18 12 7 7 8 7 6 4 4 14 23 30 35 34 30 37 43 46
80 68 64 78 94 95 93 92 100 100 97 86 98 100 98 70 75 76 59 50 38 30 28 23 14 9 8 9 9 6 4 4 15 32 34 29 26 27 26 22 21 34 41
72 52 81 100 97 91 100 100 98 97 93 100 100 80 74 83 68 56 46 34 34 29 20 13 10 10 7 5 4 4 8 20 22 24 15 14 19 20 23 26 23 23 40
63 74 100 92 100 100 98 92 91 99 100 86 70 87 80 61 52 40 36 34 24 13 10 7 8 6 5 4 6 14 15 11 14 15 13 13 17 15 17 20 24 22 26
98 99 98 98 98 91 98 97 100 80 67 84 84 66 54 45 37 37 31 21 10 8 7 7 6 4 4 11 13 11 13 15 19 24 26 22 25 23 23 24 22 20 19
99 97 86 80 92 98 88 60 66 75 88 76 58 50 39 35 33 24 13 9 8 8 6 4 4 8 13 13 15 17 23 28 34 40 46 32 35 32 37 49 40 25 18
93 91 90 76 53 52 61 70 85 87 65 54 44 38 33 26 16 11 9 8 8 7 4 5 14 15 17 20 27 33 37 40 43 42 54 45 44 43 33 61 67 43 24

GFSMA_500_rhum_024.txt.gz
RH
26 35 41 46 48 38 39 37 34 33 32 31 31 31 35 42 50 52 58 61 61 62 54 53 52 46 42 52 52 39 27 20 28 35 36 32 25 18 16 17 17 17 18
32 28 33 61 67 39 35 38 35 32 31 31 32 34 41 49 61 68 70 70 64 62 53 54 47 34 43 55 47 48 44 31 34 36 38 36 32 25 20 18 18 18 19
34 34 36 36 35 36 40 41 36 35 36 37 36 36 40 49 60 72 70 61 55 52 53 54 55 50 54 56 60 61 60 58 55 47 38 38 35 29 23 19 18 18 19
42 43 40 35 41 46 44 42 33 34 33 35 36 34 40 44 50 72 71 54 54 57 58 60 58 56 54 54 54 54 54 54 54 51 44 37 35 32 26 20 19 19 21
45 42 40 42 45 45 44 47 49 50 52 40 32 31 36 40 45 64 79 64 56 64 68 72 74 74 72 67 55 52 54 54 55 54 46 34 34 32 28 22 20 20 22
46 48 47 47 46 45 46 49 55 59 56 52 44 36 31 32 41 52 70 82 80 80 80 80 81 77 71 64 70 65 48 50 56 50 37 34 33 32 25 21 20 22 24
32 39 47 49 48 50 51 54 54 53 56 54 52 46 40 26 32 51 60 70 78 81 79 75 69 59 55 52 49 47 44 47 43 33 31 33 32 27 21 20 21 24 26
42 34 23 22 24 30 37 47 58 61 59 58 56 52 52 41 33 34 41 51 54 53 51 50 48 43 39 30 29 33 28 24 23 29 33 32 28 21 21 26 29 30 32
41 37 37 23 20 36 33 32 39 58 63 63 62 55 44 47 50 48 47 46 46 46 41 34 25 14 12 12 13 18 26 32 34 34 32 26 22 27 30 31 33 37 38
44 31 32 27 20 24 25 31 38 59 64 68 62 61 52 46 44 45 44 41 38 35 32 31 35 37 39 40 38 37 35 34 32 28 25 29 32 33 33 34 32 27 23
61 57 50 44 35 33 25 36 46 48 57 66 62 64 58 56 54 49 45 41 40 44 49 50 47 45 42 41 38 35 32 30 34 39 43 44 40 35 30 27 26 25 26
46 58 58 45 42 41 40 46 47 44 46 58 61 61 58 57 52 49 52 56 61 68 62 55 49 46 40 36 32 34 40 50 52 51 43 38 35 34 35 34 33 31 29
44 54 63 55 47 48 56 49 40 42 42 52 60 62 59 56 55 50 46 44 50 57 55 67 58 41 36 39 55 57 55 50 44 39 40 38 37 35 32 28 25 21 17
43 57 69 64 48 59 58 54 61 44 42 47 60 65 59 55 52 50 48 45 44 51 55 66 53 63 73 70 62 53 46 40 42 40 39 35 31 26 20 16 14 13 13
52 68 75 40 48 53 62 63 57 48 54 48 65 64 58 56 58 53 52 52 53 50 43 51 79 85 72 60 53 49 51 48 42 36 28 22 18 16 15 14 13 12 12
58 62 66 42 52 58 65 71 57 54 54 57 64 62 61 68 66 68 66 72 69 54 43 58 74 65 56 60 56 49 43 35 26 21 20 17 15 14 12 12 11 8 6
54 67 56 50 62 64 68 60 58 82 54 62 67 69 77 84 86 88 88 86 66 63 73 70 55 51 54 50 44 36 27 22 21 18 14 12 12 12 9 6 5 4 3
53 66 55 61 70 63 97 68 95 62 58 71 85 98 100 99 100 100 100 76 84 87 68 50 59 57 48 39 29 24 22 19 13 10 10 11 8 6 6 4 3 3 5
49 58 60 70 65 61 77 59 56 62 78 85 91 82 99 100 100 98 95 94 88 63 75 67 53 43 32 27 24 21 13 9 9 10 9 6 4 3 4 8 15 22 27
48 60 62 56 97 54 66 56 64 81 86 93 85 100 100 99 95 94 94 70 70 80 63 50 37 28 27 24 15 10 9 11 13 8 6 5 6 13 15 15 14 14 14
47 57 61 98 59 76 71 97 70 79 86 99 99 96 94 95 96 75 70 84 70 55 40 30 27 23 15 11 9 10 12 10 4 5 7 12 12 11 12 13 14 14 12
58 76 98 66 55 61 58 95 86 88 100 100 95 91 95 73 67 84 80 62 47 35 30 25 16 12 11 10 10 9 7 4 7 14 13 13 16 17 22 24 28 25 20
98 79 88 94 83 75 85 100 99 98 98 88 86 68 66 83 87 68 55 40 35 29 21 16 14 11 11 9 5 4 8 13 14 18 20 19 26 29 35 37 38 33 29
83 92 98 98 100 100 99 98 96 84 63 57 60 76 92 74 63 48 38 36 27 20 15 12 12 9 5 4 6 13 14 16 21 26 33 16 24 26 28 44 50 48 41
99 98 99 100 98 98 92 67 54 57 57 70 91 78 65 57 47 41 39 33 22 17 16 14 8 4 5 13 14 16 19 18 19 23 44 25 33 37 43 57 74 80 65
98 99 98 98 82 52 51 55 55 64 83 79 66 58 53 46 44 42 32 25 25 20 12 6 4 11 16 19 21 19 20 26 28 28 52 33 45 58 45 74 98 100 92

GFSMA_500_rhum_027.txt.gz
RH
30 30 29 30 30 34 53 54 42 36 35 33 32 32 32 33 34 35 37 41 50 57 63 62 63 64 55 53 46 38 48 57 47 34 20 21 35 40 40 37 29 22 16
36 36 34 32 30 31 38 44 35 36 38 34 32 34 35 36 38 38 42 44 56 67 68 64 61 55 54 54 43 42 52 51 50 50 44 36 35 37 40 40 37 29 23
38 40 39 40 37 35 39 37 41 41 39 34 33 32 34 38 36 35 44 42 54 74 66 55 54 55 53 53 52 53 55 58 60 61 62 59 54 49 42 39 38 35 28
44 45 46 44 41 40 37 43 45 45 43 42 46 48 46 37 34 33 41 44 48 71 72 54 58 63 66 70 71 73 74 68 57 53 59 59 57 57 54 45 37 36 32
43 54 52 46 48 45 45 44 43 44 44 45 51 53 53 51 45 39 33 34 44 54 75 79 70 71 75 78 80 79 74 69 68 70 61 51 53 55 54 46 35 35 32
32 39 46 50 48 50 50 47 46 45 47 51 52 52 54 54 50 47 43 28 32 49 60 69 75 76 76 75 72 64 55 54 57 57 56 54 48 53 52 43 35 34 32
28 32 37 37 41 42 41 43 38 38 38 45 52 56 59 57 53 48 49 47 38 34 34 41 48 48 47 46 47 46 34 31 36 35 39 44 44 42 35 27 31 34 32
22 23 31 30 30 27 19 19 18 24 30 29 32 41 51 56 56 57 46 40 43 46 46 44 41 41 38 34 32 30 24 18 13 11 12 15 17 21 26 32 34 34 29
43 33 37 36 45 47 37 22 19 23 22 28 26 35 52 59 61 60 56 52 50 49 46 44 41 38 36 35 36 39 41 42 41 40 38 37 36 36 35 34 31 27 27
70 63 51 52 56 46 38 34 25 27 24 26 36 39 34 48 60 61 56 54 52 50 46 43 42 41 41 41 43 44 44 42 40 39 38 37 35 33 31 30 30 32 33
73 69 72 72 61 62 63 55 42 38 31 31 42 40 36 35 39 49 50 54 52 48 46 42 41 41 40 42 42 42 41 40 36 33 32 33 35 38 38 40 39 36 34
51 52 58 56 61 63 62 72 58 44 48 46 43 38 40 37 36 43 53 55 52 50 47 44 43 44 46 47 46 44 39 37 42 52 58 54 49 44 40 35 31 27 27
40 40 41 52 56 74 68 69 77 57 51 60 54 50 45 39 38 43 53 55 56 59 64 73 70 63 61 58 49 42 46 54 62 58 50 43 38 35 34 34 33 32 31
19 30 46 66 73 72 73 72 83 74 58 58 64 58 50 44 42 48 57 56 53 56 65 83 81 82 73 61 58 63 64 59 49 41 37 41 42 40 38 34 31 27 24
43 35 40 54 65 67 71 81 84 69 56 55 58 57 50 68 52 59 64 65 66 66 64 77 86 92 77 72 74 66 55 49 52 52 48 43 38 33 27 23 20 19 17
22 37 32 56 69 69 70 80 69 65 54 55 77 62 60 60 62 74 78 81 82 66 46 66 81 82 71 78 67 52 58 59 53 45 36 30 25 23 22 20 18 16 16
28 32 46 56 61 62 70 70 60 59 60 98 96 71 90 72 76 77 78 85 74 60 69 72 78 75 69 57 64 65 57 44 36 29 27 25 22 18 17 17 15 14 10
40 41 49 61 55 56 58 65 57 57 59 77 92 91 94 76 82 80 90 72 72 72 75 71 72 60 65 74 61 48 37 29 27 23 19 19 18 16 15 11 7 6 5
52 60 57 47 50 54 52 56 54 96 72 67 66 82 72 79 79 78 70 88 92 88 88 68 63 77 67 52 39 32 30 26 21 18 16 14 12 9 7 5 4 4 5
48 76 68 63 50 46 47 51 81 92 70 98 87 85 85 84 77 82 92 92 86 78 68 78 75 56 44 36 34 31 24 18 16 13 9 7 5 4 5 7 10 12 11
60 82 68 62 49 45 51 48 82 96 84 100 93 99 94 91 97 99 82 76 66 79 83 62 51 41 37 35 30 23 20 12 9 7 4 5 8 12 13 14 16 17 17
57 97 65 58 42 48 63 92 98 100 98 63 74 96 100 100 98 74 64 73 82 65 53 48 43 39 36 27 25 14 10 8 5 7 12 16 17 20 24 29 32 31 28
63 76 58 47 48 76 92 96 79 81 99 76 90 98 92 66 63 65 81 67 58 54 47 44 41 33 27 18 14 10 6 5 12 15 16 17 18 22 27 32 42 39 35
85 81 87 83 97 98 99 99 98 99 98 98 89 67 62 72 80 67 58 57 52 49 48 41 33 23 18 15 8 5 10 12 17 20 26 24 28 30 31 33 45 48 56
98 84 96 99 100 85 100 99 99 97 92 62 59 67 80 63 57 58 52 44 44 43 40 30 21 20 15 6 8 11 14 17 20 28 38 29 28 26 32 43 59 72 78
99 98 97 99 98 98 96 92 84 74 57 66 66 56 52 53 51 42 40 40 38 32 28 25 22 10 6 12 14 17 18 21 23 24 21 13 22 32 34 60 75 92 83

GFSMA_500_rhum_030.txt.gz
RH
30 28 28 29 29 28 28 28 28 41 63 45 31 31 33 32 32 32 32 34 35 35 38 38 52 64 66 64 61 55 52 49 37 44 57 50 32 22 20 28 37 40 39
25 30 32 33 32 31 32 31 32 35 32 32 38 35 33 30 30 29 30 33 34 35 40 37 49 69 63 57 54 53 55 56 56 58 60 56 54 54 40 28 25 29 37
18 29 33 37 37 36 35 36 36 36 35 40 40 38 36 36 39 42 42 35 31 31 38 40 43 70 62 57 59 62 69 72 73 72 71 65 56 60 70 80 66 52 35
13 21 26 31 40 45 43 42 40 39 40 41 38 42 41 42 51 52 50 48 44 38 33 33 44 55 74 65 63 68 71 73 75 74 73 70 68 70 64 55 54 56 57
22 24 18 26 38 48 50 47 44 43 43 42 44 45 41 49 50 49 48 47 44 43 40 29 32 44 55 66 73 74 73 72 70 70 67 61 56 58 61 67 65 54 54
32 25 19 22 35 46 51 47 48 45 44 37 40 30 32 36 38 42 48 52 50 46 45 45 40 35 34 39 46 49 48 46 46 47 46 38 35 42 43 48 51 50 48
50 38 36 59 34 32 32 39 41 28 22 21 21 24 27 26 24 25 33 44 52 57 49 38 36 38 40 40 38 36 35 34 32 32 30 28 20 15 13 15 26 36 39
70 78 49 30 37 29 27 26 30 29 21 18 18 25 22 24 28 30 35 48 56 56 52 50 48 47 45 43 40 38 36 34 34 34 33 34 34 36 37 38 35 28 26
72 72 68 51 26 27 31 36 46 51 43 29 19 21 24 24 28 37 35 35 44 49 48 46 45 46 45 42 39 37 37 36 36 36 36 36 37 38 38 38 38 38 37
49 70 79 79 72 58 61 51 56 60 48 44 35 33 32 28 32 38 36 36 30 33 34 38 45 46 46 44 40 40 40 40 40 41 41 40 37 34 34 34 33 34 33
39 58 86 96 93 95 97 92 81 66 73 71 61 48 41 38 41 41 37 41 36 32 36 40 44 44 44 42 42 44 44 42 39 42 42 40 38 38 37 39 42 43 44
35 41 45 62 75 80 90 89 90 78 72 80 84 80 57 44 49 53 48 44 40 39 41 46 50 48 45 47 49 50 49 52 52 55 52 52 53 52 49 46 43 40 37
44 54 56 57 52 57 71 72 71 72 77 78 79 89 89 78 58 61 62 51 47 47 52 56 53 47 48 51 50 44 52 49 50 54 56 56 53 46 42 40 40 40 39
33 42 52 58 62 51 49 60 71 80 81 79 74 97 96 81 52 60 58 52 57 68 68 72 66 63 57 58 55 54 57 54 64 64 56 48 46 47 48 49 47 44 40
45 39 42 56 71 63 50 54 65 77 72 73 70 96 83 55 56 68 67 63 72 56 64 81 78 84 78 66 70 68 72 72 67 55 54 58 60 56 48 41 36 31 27
21 56 58 51 63 98 72 74 56 58 65 66 69 76 61 97 74 80 94 97 78 71 61 68 81 86 71 78 83 76 69 56 59 67 64 52 44 39 33 30 29 27 26
24 29 46 54 68 67 66 62 57 57 65 57 57 66 61 64 75 89 85 89 96 74 66 78 74 74 75 79 71 62 58 67 67 52 44 38 34 32 28 23 18 13 11
28 26 31 31 46 61 60 54 59 56 57 72 56 62 74 97 81 96 85 86 100 68 77 78 86 90 72 69 57 67 73 55 47 42 37 30 25 20 15 12 10 9 7
47 30 28 34 40 38 44 53 57 69 64 59 95 61 96 95 97 97 96 92 82 88 90 87 87 67 56 67 76 58 50 47 40 30 25 20 17 13 9 7 5 5 4
56 50 38 39 52 41 41 51 53 64 92 61 58 95 92 98 93 98 99 98 100 100 100 98 64 58 74 63 52 48 40 32 28 24 18 14 9 7 6 6 10 12 12
68 47 45 33 39 50 51 64 68 72 59 49 63 89 98 96 97 97 75 86 92 99 89 61 69 69 57 52 42 33 30 24 21 19 14 8 6 7 12 14 17 18 20
77 53 51 37 40 46 62 69 68 68 66 77 87 99 99 98 98 99 97 100 93 69 67 73 56 54 44 33 31 29 24 20 13 9 6 8 12 14 17 23 27 29 30
87 60 52 47 42 40 62 61 82 93 73 96 100 90 99 100 99 99 93 65 72 68 56 51 45 37 31 31 27 21 16 10 6 7 10 13 15 18 21 21 18 17 17
82 56 44 38 33 43 94 94 91 67 98 99 98 99 99 98 96 82 72 61 54 52 44 41 35 33 30 27 20 14 7 6 10 15 16 10 14 11 12 16 15 16 18
66 55 79 40 34 79 99 66 78 99 99 94 98 95 77 85 76 51 47 44 38 36 35 36 32 27 23 20 11 5 8 11 14 18 16 9 23 22 20 17 17 19 20
78 86 98 100 100 84 97 96 100 94 76 61 65 70 55 49 45 36 27 26 25 24 26 24 19 18 14 7 6 12 13 16 14 15 29 36 51 48 45 63 44 36 35

GFSMA_500_rhum_033.txt.gz
RH
23 20 19 20 22 25 25 28 29 28 26 30 41 41 28 28 30 30 29 28 28 27 26 28 32 32 35 38 58 64 62 56 54 53 54 50 53 56 45 33 20 20 29
12 13 14 14 18 20 22 26 29 30 30 32 33 32 33 36 34 33 34 31 32 35 37 34 29 30 36 35 49 64 60 56 53 55 59 61 61 61 60 57 54 68 47
9 9 8 10 19 18 21 26 31 33 35 38 34 34 37 35 32 38 33 40 49 49 46 42 41 34 31 34 41 59 63 62 64 68 71 71 69 69 67 67 66 63 63
15 10 12 11 17 19 20 26 32 37 40 40 38 38 36 37 37 34 33 40 42 43 42 45 41 40 35 30 36 49 62 68 69 68 69 69 66 66 65 64 64 60 61
26 13 16 17 20 19 17 21 28 34 42 42 38 35 34 27 28 24 24 20 19 21 28 35 37 43 43 42 37 37 40 49 57 59 56 54 55 54 52 51 49 48 52
68 54 34 30 25 20 16 19 19 24 30 31 31 28 21 18 20 24 21 22 20 19 25 34 43 51 46 38 35 35 37 38 38 38 37 36 34 33 33 34 30 19 22
60 72 62 63 43 39 46 39 24 22 20 22 24 20 17 17 19 24 19 20 28 27 21 28 38 46 47 47 46 44 43 41 39 37 35 33 33 33 32 32 32 32 33
56 73 80 74 80 79 49 53 35 28 25 25 32 34 27 24 20 20 23 22 26 32 30 26 20 23 26 27 28 34 39 38 37 35 34 32 31 30 29 29 31 34 35
31 49 66 82 79 82 76 50 36 27 30 33 40 48 44 32 30 31 32 30 32 37 33 34 30 25 26 29 30 31 34 34 35 36 37 35 33 32 31 30 28 27 28
19 26 32 42 80 90 84 74 69 56 49 54 49 60 53 61 59 52 45 41 41 44 41 39 38 34 33 35 36 36 34 34 35 36 38 38 34 32 33 36 35 33 32
28 34 43 46 49 66 81 92 95 94 96 92 89 86 75 74 74 80 73 57 49 52 51 50 45 41 39 38 40 40 40 40 43 43 39 40 39 40 39 36 35 39 39
19 24 37 45 52 61 77 93 96 92 97 99 97 97 95 84 81 79 80 84 70 64 60 62 52 49 47 44 43 43 43 46 49 38 33 30 31 39 35 39 39 39 40
22 28 39 44 45 55 53 66 76 73 81 89 88 88 80 78 78 72 94 95 76 62 64 65 58 52 59 54 46 48 49 46 45 43 42 41 39 40 40 40 42 41 41
16 48 49 46 47 58 62 62 72 78 78 74 75 75 82 88 78 70 64 97 86 61 66 68 70 65 61 62 55 50 51 53 48 50 49 45 41 41 42 40 38 40 40
18 19 31 47 53 62 71 81 77 79 81 73 63 60 72 77 72 96 72 92 83 87 94 91 92 95 78 73 56 56 62 64 64 61 57 49 47 46 46 44 41 38 38
25 22 22 27 58 68 70 75 84 89 79 77 82 72 61 62 69 57 61 63 77 90 88 99 89 98 96 91 67 70 71 75 79 68 54 52 50 49 43 39 37 30 24
60 41 30 30 30 73 84 74 72 82 87 98 97 78 64 56 62 69 74 94 81 87 97 99 100 99 100 97 84 90 88 86 86 61 63 54 42 41 34 24 20 17 14
90 77 61 41 33 33 35 54 81 81 80 88 75 65 62 97 56 78 98 89 85 100 99 98 98 98 99 90 98 98 96 79 65 70 51 45 36 26 22 17 14 9 6
94 100 93 77 62 45 47 39 39 41 50 70 69 69 75 68 67 77 95 98 98 98 99 96 96 98 99 99 98 99 69 73 62 52 42 28 26 21 15 11 7 5 4
96 84 99 100 91 72 57 49 45 51 54 56 56 53 57 54 87 86 85 89 100 99 98 98 99 100 100 100 84 60 68 55 50 39 31 27 23 18 12 6 4 4 5
100 93 71 92 100 82 67 55 41 39 56 61 60 47 60 79 100 97 85 74 97 100 99 100 99 100 87 75 73 55 48 34 34 32 25 27 18 11 6 5 7 8 7
100 100 99 100 99 88 70 59 50 49 57 51 43 61 70 92 85 78 98 99 100 98 99 99 94 91 80 61 44 31 27 29 25 29 21 17 9 6 9 14 14 10 7
100 100 88 87 90 76 69 60 58 89 69 99 77 64 100 99 92 98 98 99 100 99 91 76 75 63 38 27 22 22 19 14 12 14 8 7 6 12 16 18 28 27 29
92 100 100 84 68 74 77 93 48 42 96 73 78 100 99 98 95 99 99 98 75 54 41 30 24 20 15 12 9 8 7 7 8 7 6 8 14 14 17 54 50 42 34
47 96 100 98 99 74 47 43 40 47 100 98 99 95 99 96 82 64 49 36 26 22 16 10 8 6 5 5 5 5 6 5 5 13 16 13 17 14 47 64 51 42 39
100 88 73 99 98 99 100 69 60 87 99 100 100 90 64 51 41 28 23 18 13 10 6 4 4 4 5 6 5 4 5 10 16 18 20 16 18 30 45 69 63 62 66

GFSMA_500_rhum_036.txt.gz
RH
10 11 17 17 16 16 14 17 20 23 25 25 25 24 26 30 29 29 31 31 31 31 30 30 30 35 35 30 29 34 34 46 60 61 57 54 55 57 55 57 57 51 41
9 9 10 9 9 9 10 13 17 19 21 22 25 28 31 33 32 34 34 29 34 24 34 46 48 46 42 40 36 31 32 38 56 61 60 56 58 62 65 66 66 63 63
26 16 10 8 7 6 7 10 14 14 16 22 30 32 34 35 36 34 31 33 24 21 28 31 33 36 37 40 38 36 31 33 40 54 61 64 65 66 66 65 62 62 62
16 33 24 13 12 10 9 9 14 12 16 24 32 33 34 35 34 31 26 21 18 18 16 15 15 16 19 27 34 34 39 38 35 37 43 51 54 55 59 62 62 61 59
44 39 43 29 17 12 13 15 18 15 14 20 30 31 33 34 29 26 20 19 20 19 22 19 14 16 19 25 35 40 39 36 34 35 36 37 37 36 36 35 34 35 38
37 42 44 57 60 40 26 23 24 20 16 21 22 24 28 26 21 17 15 16 22 18 18 25 24 20 18 21 26 33 40 42 42 42 41 40 39 37 36 34 33 32 31
29 32 45 50 58 69 57 50 42 32 40 34 23 24 21 22 21 18 18 17 17 18 20 20 23 27 26 21 19 20 22 23 23 27 33 35 35 34 32 31 30 28 29
19 30 32 44 58 63 79 76 80 73 51 54 41 30 24 27 33 37 33 30 24 27 29 28 29 31 30 30 28 25 25 27 28 28 27 26 26 27 29 30 27 25 22
15 26 33 34 46 64 75 86 86 86 83 68 38 31 30 32 37 44 47 39 46 48 46 42 38 37 39 38 37 34 31 31 32 34 34 32 32 32 31 28 26 24 24
11 14 26 44 34 45 42 82 92 99 95 83 69 61 42 40 51 56 59 64 69 74 76 71 62 48 49 48 47 42 39 36 36 37 38 38 41 40 38 36 30 27 25
13 16 39 60 55 45 45 45 59 83 87 85 92 92 92 90 88 96 96 94 88 88 81 78 84 84 65 55 54 53 46 42 40 41 42 43 44 45 36 29 34 30 27
20 18 16 32 44 44 40 56 64 71 73 74 93 98 98 97 97 97 97 92 90 84 80 72 95 79 66 54 52 57 51 48 52 51 50 46 44 41 36 35 33 32 31
14 20 28 27 23 33 46 53 60 70 83 85 91 96 100 100 96 97 93 76 73 74 70 68 78 78 74 67 58 63 62 71 64 59 50 46 41 38 36 41 45 44 38
14 15 16 20 28 35 36 52 60 72 80 94 95 90 85 83 90 89 91 87 76 75 52 66 72 96 76 72 79 82 74 84 62 69 67 49 53 58 57 52 46 49 37
33 36 26 21 21 20 32 51 54 71 88 97 93 91 86 85 85 84 81 83 91 76 69 97 97 74 84 81 93 81 95 69 65 75 81 75 67 67 64 57 55 40 34
18 26 42 50 48 32 32 33 56 67 78 90 100 97 85 81 80 79 94 90 78 72 93 75 82 82 98 99 86 90 83 90 78 81 84 76 70 75 76 71 49 40 37
39 32 34 32 37 64 54 43 43 45 63 76 89 93 98 87 96 91 96 93 72 79 61 91 98 99 91 95 99 98 97 97 99 100 94 76 82 82 69 50 43 39 38
77 62 44 41 44 45 63 81 57 57 56 71 79 85 86 75 68 80 80 67 62 71 84 67 99 95 98 97 98 98 98 99 98 96 91 91 71 64 61 49 42 30 22
97 52 49 57 55 42 58 91 92 68 62 47 63 58 71 61 59 99 63 64 55 77 90 99 98 99 88 88 96 98 99 99 99 99 85 78 67 53 40 27 24 23 22
100 100 99 80 57 48 71 84 100 96 72 56 51 51 58 65 58 58 56 50 48 59 68 81 88 94 89 99 99 99 99 100 98 97 82 56 38 27 26 22 19 15 9
72 95 64 73 97 98 100 100 100 100 93 84 67 60 70 64 51 49 77 77 60 96 99 100 100 99 96 98 100 100 98 85 50 42 28 25 20 13 12 10 8 6 6
58 82 97 100 100 100 100 100 100 97 94 84 75 60 51 46 45 77 93 54 76 100 100 95 92 100 100 98 88 58 31 16 10 10 7 7 7 7 7 6 6 5 8
90 86 80 82 86 91 98 100 99 96 87 71 85 92 99 77 100 100 100 80 94 100 97 98 90 56 37 20 16 12 8 6 5 5 5 5 6 6 5 9 17 18 16
72 90 89 84 96 100 98 86 81 77 78 91 95 83 66 91 90 100 99 99 94 82 52 31 23 18 14 11 7 5 4 4 5 6 6 5 4 8 18 26 25 20 15
47 82 97 96 94 96 98 91 100 100 96 80 52 51 74 100 99 99 86 62 38 25 21 17 11 6 4 4 4 4 5 6 5 4 4 9 19 18 24 29 24 27 32
98 85 92 100 100 100 100 100 82 88 100 96 78 93 100 98 84 55 32 21 17 12 8 8 6 5 4 4 5 6 5 3 6 15 15 21 25 25 26 29 44 65 69

GFSMA_500_rhum_039.txt.gz
RH
8 10 11 7 7 12 13 12 10 9 10 13 13 14 18 20 21 26 30 31 32 32 27 25 14 20 30 36 41 39 38 35 30 29 33 45 57 58 54 56 59 59 58
16 9 12 11 9 8 9 9 10 10 9 12 11 11 17 22 25 28 34 32 34 29 23 15 15 16 17 18 23 26 36 37 35 32 30 37 49 59 62 63 63 68 68
17 21 14 17 24 17 8 8 8 8 7 11 13 12 16 23 29 30 31 35 28 19 16 16 14 12 12 12 13 14 14 24 32 35 36 34 36 44 51 57 62 63 59
16 28 35 32 19 28 22 13 12 10 10 10 14 13 18 26 30 34 31 32 24 18 18 18 19 19 15 12 12 13 17 22 29 33 33 32 32 33 34 36 37 36 36
26 34 34 35 44 40 42 42 23 12 11 14 18 15 16 25 31 36 34 29 22 16 18 20 17 18 20 21 17 16 19 22 23 26 27 29 33 36 37 36 36 35 35
11 18 37 43 32 46 48 57 61 55 34 24 25 24 17 19 24 31 28 25 18 14 14 18 18 18 18 19 23 24 20 19 20 20 21 21 19 20 24 28 31 32 32
24 16 13 16 22 32 37 43 55 65 73 59 46 39 33 33 22 25 25 25 21 19 20 20 19 24 26 26 27 28 29 28 23 22 24 25 26 25 24 24 26 26 28
13 12 12 13 13 14 25 39 45 56 64 77 76 73 66 50 48 37 27 26 29 37 39 34 30 40 44 44 39 35 36 37 35 31 28 28 30 30 32 30 29 30 30
10 10 12 10 11 12 12 26 45 52 58 66 81 86 85 84 68 42 35 32 32 38 47 44 51 60 66 69 70 63 47 45 45 43 38 34 34 35 36 37 36 34 32
10 10 19 20 16 26 25 25 47 80 74 86 82 91 96 90 92 79 62 53 66 73 62 59 66 76 79 74 72 73 83 68 56 52 47 42 37 35 36 39 39 38 38
12 14 13 12 15 26 32 41 55 70 81 79 71 80 88 100 99 94 93 97 95 96 97 97 98 95 93 77 66 81 56 68 59 52 51 47 40 46 44 42 41 37 34
10 14 18 20 20 22 32 42 51 52 67 77 75 82 93 96 89 85 85 96 100 96 96 97 96 95 93 80 61 67 71 70 68 62 55 55 59 61 63 53 41 37 38
9 10 12 15 17 21 25 31 31 36 47 59 76 83 85 88 98 98 94 90 99 100 98 96 93 82 84 88 59 62 66 82 74 65 73 84 70 70 73 58 52 52 46
20 21 24 22 18 18 18 18 20 30 35 44 56 66 90 92 96 95 98 100 89 92 95 96 98 95 93 80 77 94 98 81 68 86 88 90 96 85 80 60 62 65 65
22 24 23 33 42 45 44 33 25 22 33 42 45 55 64 76 93 96 93 96 91 91 93 95 96 93 96 97 94 82 72 68 77 92 92 88 92 88 87 78 74 72 70
14 16 19 20 20 30 47 58 57 58 50 46 46 51 66 79 86 92 84 83 97 96 93 94 98 94 88 71 63 72 67 86 92 81 84 87 95 94 90 86 91 89 78
18 33 32 37 48 46 63 82 70 69 82 82 66 59 61 69 83 97 98 93 96 97 98 93 98 97 82 70 98 92 78 83 96 92 90 86 88 95 92 93 89 82 78
26 17 14 20 59 99 98 100 100 70 72 91 92 80 74 72 73 84 79 95 87 98 88 81 100 88 58 80 91 80 70 100 82 85 75 74 88 90 100 98 97 100 86
12 20 24 31 83 98 100 100 100 100 93 77 94 94 93 77 74 69 73 85 85 69 64 73 99 83 86 54 52 70 89 92 88 80 90 93 98 100 100 100 94 72 58
16 29 43 35 68 100 100 100 97 99 98 75 80 83 96 91 77 70 59 50 54 59 72 56 69 59 99 81 62 84 99 99 97 98 97 90 87 76 52 31 17 12 8
24 36 54 60 63 79 53 79 93 91 89 88 97 91 96 96 79 67 88 59 54 73 61 50 93 97 97 62 70 96 100 100 94 70 49 30 18 12 9 6 5 4 4
33 53 67 68 55 60 80 100 96 100 94 98 100 98 96 85 96 100 78 67 76 81 96 52 76 96 100 100 100 96 77 30 17 11 10 7 5 4 4 4 5 5 6
37 45 69 65 55 48 67 90 92 96 100 100 100 100 99 86 96 82 74 83 100 98 98 95 100 96 85 64 35 19 11 8 7 6 6 4 4 5 5 5 5 4 4
36 50 53 55 50 65 91 97 100 100 100 99 98 100 97 99 100 100 100 97 95 100 98 76 46 26 18 14 10 9 7 5 4 4 4 6 6 5 4 6 11 16 18
45 56 68 74 74 90 98 91 98 100 100 99 99 100 100 96 61 56 56 72 100 90 56 28 20 15 13 10 7 5 4 4 5 6 6 5 6 9 16 24 28 31 28
59 65 65 69 79 86 93 100 100 100 94 100 100 100 100 100 100 99 63 33 27 25 21 18 16 14 9 6 5 5 7 8 8 8 8 12 15 15 21 38 39 35 27

GFSMA_500_rhum_042.txt.gz
RH
5 10 11 13 8 10 8 7 7 8 7 8 8 9 11 11 8 17 15 19 22 26 26 28 16 13 10 12 12 12 16 20 25 35 35 32 30 31 36 50 59 60 62
5 9 12 13 16 11 15 18 11 7 7 7 6 6 8 12 9 12 21 22 29 31 29 29 15 12 12 12 11 11 11 10 11 24 33 35 35 33 33 35 39 52 61
10 12 12 12 23 31 27 17 23 29 13 12 10 9 8 10 11 8 21 25 28 34 32 28 14 14 14 13 13 11 11 11 11 12 18 23 26 29 31 33 33 33 35
10 16 18 19 24 27 31 45 38 32 34 29 16 11 11 12 16 13 12 28 26 30 27 20 15 16 17 19 20 19 17 15 15 15 15 22 24 27 30 34 34 34 32
16 11 10 9 11 17 26 45 38 38 45 50 58 48 27 19 20 21 14 16 30 33 26 19 14 16 18 17 15 15 16 20 20 18 17 16 19 21 21 19 18 21 26
21 15 19 23 19 20 14 13 18 27 32 33 40 48 66 64 41 32 26 18 18 23 28 20 15 14 14 16 17 19 20 22 23 24 24 22 20 20 22 24 24 23 21
30 26 17 23 16 12 23 20 19 15 20 31 39 43 50 55 67 63 47 40 38 20 19 29 23 23 23 24 24 30 35 37 35 33 32 32 29 27 26 27 26 28 29
21 28 38 34 30 34 27 39 29 30 28 18 28 39 41 55 66 82 79 74 56 47 30 27 29 35 41 39 34 49 59 64 65 55 43 41 39 38 36 33 32 31 30
12 22 28 26 34 36 30 34 45 52 68 74 56 49 52 64 72 85 97 96 90 77 48 36 36 38 42 65 51 62 68 71 71 74 79 69 54 46 46 43 40 38 36
8 7 18 20 20 27 31 55 57 64 64 73 74 74 75 69 90 92 95 96 96 97 95 94 90 94 97 97 74 75 87 95 80 77 79 72 74 62 49 48 46 42 42
9 10 10 9 11 18 28 38 36 37 62 68 70 72 66 75 91 98 91 95 90 93 98 100 100 98 97 96 98 99 97 95 81 83 72 72 71 81 71 64 48 48 50
11 11 11 11 12 10 11 20 31 28 25 61 73 80 79 85 80 83 93 94 95 96 94 90 97 98 97 95 96 97 97 98 95 84 80 71 69 81 69 63 71 73 61
8 9 12 24 28 25 18 16 16 24 27 28 31 48 61 72 85 91 93 95 95 93 96 90 97 98 98 99 94 100 98 97 99 100 90 78 92 80 58 58 71 74 78
12 12 13 14 19 23 24 24 28 37 43 34 35 31 39 56 60 60 82 94 96 97 94 88 94 96 95 96 95 94 98 95 98 96 92 68 77 65 82 58 60 69 65
10 13 14 13 15 18 19 21 22 27 47 54 59 59 45 53 59 66 68 77 92 92 86 87 93 79 98 100 98 98 98 97 97 82 68 64 70 71 68 78 72 60 69
13 14 14 19 20 22 28 28 34 55 70 71 78 79 82 72 70 76 73 76 86 93 86 90 97 96 97 98 98 97 99 96 95 72 78 99 95 82 81 85 78 72 71
12 15 14 12 17 13 12 18 31 43 54 84 100 100 99 99 100 100 99 81 64 69 78 98 98 97 98 97 97 96 90 84 89 60 57 65 56 54 60 77 80 76 69
10 10 13 14 15 15 23 39 41 43 68 70 71 100 100 100 100 100 98 97 79 64 73 87 91 98 98 98 84 99 100 95 88 92 98 60 47 39 63 84 82 86 84
13 15 15 16 19 26 28 42 42 46 100 99 100 100 100 100 100 100 100 100 99 92 84 84 90 82 76 96 88 100 73 62 72 68 91 63 49 56 68 86 98 96 92
15 19 17 22 18 16 12 18 31 47 64 97 97 96 96 97 100 100 99 100 100 96 83 79 75 66 54 45 87 78 65 63 67 94 96 90 89 89 73 60 37 28 16
20 21 22 25 20 20 20 21 28 45 66 78 98 90 82 86 88 91 97 100 100 98 86 82 83 91 68 92 99 97 100 98 96 79 76 52 35 16 10 8 8 8 7
28 29 28 26 28 31 32 34 54 66 73 84 81 93 100 88 97 98 88 88 79 96 100 86 100 80 68 100 100 99 90 64 44 22 16 9 10 8 6 6 5 4 4
34 34 33 32 34 39 42 43 49 66 85 94 86 84 98 96 94 100 100 100 96 99 96 97 97 97 100 97 65 34 30 19 16 14 11 7 8 6 6 5 5 6 6
36 43 43 48 46 44 53 58 69 77 77 98 96 99 99 100 99 100 100 99 96 91 91 92 93 78 52 45 30 21 18 12 9 8 6 4 4 6 8 8 8 8 8
29 29 34 41 50 54 61 64 71 79 87 89 88 98 100 97 98 100 100 92 96 100 79 37 21 19 19 19 20 18 12 8 5 4 5 8 11 12 12 12 14 15 16
30 32 35 38 38 39 41 44 55 67 73 84 98 97 92 95 91 86 68 42 32 28 28 26 20 19 20 21 18 11 6 5 7 12 14 18 19 19 22 28 30 27 28

GFSMA_500_rhum_045.txt.gz
RH
5 5 5 5 10 11 15 12 9 12 13 12 6 6 5 4 5 7 10 8 10 13 17 23 24 25 21 11 10 10 9 9 9 9 11 18 29 32 32 31 33 41 49
5 5 6 8 8 8 9 21 26 22 16 18 26 19 9 9 8 8 10 12 9 10 14 18 21 22 15 11 12 11 9 8 9 9 9 11 18 25 30 33 34 35 38
7 8 9 8 14 16 18 20 23 28 40 41 27 28 31 23 15 11 11 16 14 12 15 19 22 21 16 12 14 15 16 13 12 12 11 10 11 13 16 21 27 28 29
12 15 16 16 12 10 10 10 11 16 30 38 36 37 42 46 49 48 26 18 20 16 14 18 22 21 17 13 15 16 18 17 16 16 16 15 14 15 16 17 18 18 24
9 10 21 25 19 14 16 20 18 16 13 16 19 32 33 34 38 39 61 63 39 30 21 18 18 21 21 14 14 17 18 16 15 15 18 19 20 19 18 18 19 20 20
25 21 22 16 22 28 22 18 20 20 22 25 17 13 19 35 40 42 46 60 72 57 42 31 24 20 23 21 17 15 16 17 18 21 22 24 26 26 25 24 23 23 23
20 19 18 21 25 26 32 39 34 30 42 43 31 25 19 17 17 34 47 50 68 84 76 52 48 33 26 28 29 27 27 30 28 34 38 43 41 34 32 33 32 30 28
8 12 16 17 24 32 35 38 38 41 43 44 61 66 52 50 61 62 43 52 63 68 93 94 83 67 46 33 35 40 50 65 42 60 59 66 69 67 58 43 40 38 38
9 7 6 7 30 33 33 38 42 52 60 72 77 88 90 81 73 73 74 62 64 89 89 100 100 98 89 53 48 56 86 68 67 83 73 71 77 76 73 81 68 53 46
8 8 8 10 10 17 28 35 30 32 56 78 78 86 89 83 74 78 81 72 81 84 95 96 90 92 98 99 96 97 98 97 99 94 76 83 91 84 83 85 81 76 58
14 14 14 13 13 12 15 26 32 29 29 43 60 72 72 94 81 88 95 100 94 89 94 99 96 86 90 99 98 98 95 97 96 98 96 98 100 84 94 90 87 77 76
15 14 13 12 10 12 20 28 30 33 39 41 38 42 45 58 62 71 89 98 99 99 97 96 98 99 88 88 98 100 97 94 98 96 97 97 97 98 95 87 68 63 67
13 10 9 13 16 17 15 20 23 20 22 27 33 39 58 71 78 69 55 60 78 91 97 98 99 97 95 81 83 98 98 97 97 97 93 92 97 97 96 90 72 66 72
9 10 8 6 8 11 14 16 16 19 20 24 27 34 47 57 73 89 89 71 55 58 70 84 88 96 96 94 94 93 87 91 93 98 99 98 99 98 98 80 69 74 66
7 6 7 10 10 13 16 16 20 17 17 22 28 36 54 74 90 100 100 100 93 63 65 69 74 70 97 86 97 98 99 98 99 99 96 98 100 98 93 62 69 56 73
9 11 10 9 10 13 13 12 12 13 15 14 14 38 52 70 82 100 100 100 100 91 64 60 80 96 84 99 96 98 97 98 98 98 97 98 99 95 90 72 63 60 65
11 11 14 11 10 11 13 12 10 9 9 13 14 30 38 49 62 82 87 100 100 99 88 72 69 71 74 66 98 98 96 100 99 96 98 99 96 90 84 77 68 93 85
14 15 11 11 11 14 14 14 13 9 10 16 23 26 37 50 92 81 71 86 100 100 100 84 89 91 87 76 79 100 100 100 93 96 88 93 98 76 54 69 62 70 81
15 16 15 16 17 17 20 17 14 13 13 21 36 47 64 70 82 94 96 96 100 100 97 94 85 94 99 100 100 95 90 97 92 90 76 88 91 68 69 57 79 90 81
18 19 19 23 24 25 23 18 19 19 18 26 46 64 63 83 94 74 86 89 71 87 99 98 89 100 97 94 91 92 99 88 95 98 98 97 94 86 78 73 59 33 21
22 24 24 25 26 28 25 24 27 25 26 33 38 54 53 58 93 90 77 79 96 86 79 96 100 99 81 66 76 99 100 98 100 99 95 66 32 28 24 16 13 12 10
28 25 22 18 24 33 33 32 32 36 37 36 37 45 56 73 91 89 93 94 72 87 95 93 93 94 77 79 87 89 100 99 35 50 64 35 38 18 12 9 8 7 6
30 25 20 21 26 29 30 34 38 39 43 50 51 56 59 66 82 88 97 100 100 100 98 96 99 100 100 99 100 96 76 53 38 23 20 18 15 11 7 5 5 5 5
31 24 24 25 25 27 27 28 32 38 47 53 55 63 74 82 87 97 97 98 98 96 93 94 92 94 92 80 58 33 24 19 20 21 20 14 8 6 6 6 7 10 13
30 28 28 26 28 29 28 28 28 28 26 34 40 43 49 53 57 57 46 41 36 31 29 29 28 28 28 28 27 24 21 20 20 20 17 13 8 8 12 15 17 18 20
36 32 28 26 28 27 26 24 23 22 21 22 22 22 22 23 25 27 29 31 32 33 35 35 33 31 30 30 31 26 21 20 21 18 11 8 10 16 20 21 22 24 24

GFSMA_500_rhum_048.txt.gz
RH
9 5 4 4 4 4 4 6 7 9 14 17 16 14 13 19 18 9 10 8 7 9 10 10 14 17 22 24 19 10 9 9 9 9 8 9 10 14 20 25 28 30 32
6 4 4 4 4 5 6 10 13 15 17 20 23 26 30 28 25 30 30 19 12 11 15 15 13 18 21 24 21 14 12 12 10 10 10 10 9 12 15 18 24 28 31
7 6 7 10 13 14 14 12 11 10 11 14 15 18 20 28 34 40 44 53 55 29 16 19 19 16 21 21 21 17 14 16 16 16 13 13 12 12 12 13 14 18 23
9 8 8 10 10 15 21 20 16 15 18 18 16 13 12 19 33 38 40 44 51 64 66 44 30 24 20 21 23 24 17 16 18 20 20 18 17 17 17 16 16 16 18
10 13 18 22 23 19 21 20 24 25 24 20 23 25 22 19 18 16 20 30 42 50 61 71 63 41 33 27 28 30 24 18 18 21 19 17 17 19 21 20 19 19 18
38 27 22 23 23 30 21 19 24 29 30 38 38 33 28 38 34 33 30 27 33 46 55 61 77 81 53 41 36 32 29 26 20 18 19 20 23 25 25 26 25 25 24
29 32 22 14 12 13 16 17 21 30 34 40 41 43 56 53 42 52 64 66 62 63 40 48 63 77 94 82 56 53 36 30 30 27 27 28 28 31 36 35 34 31 30
13 10 10 9 10 9 8 8 27 44 59 63 69 65 60 67 81 78 77 89 94 86 81 81 68 73 77 89 96 88 66 51 39 38 46 63 67 41 50 59 67 64 53
8 8 8 8 8 7 7 9 14 26 30 49 62 69 59 46 67 86 90 88 93 93 90 90 95 90 87 89 92 98 98 98 91 59 51 76 96 74 71 75 72 68 68
10 10 9 7 6 9 14 15 14 15 28 36 47 54 54 66 61 57 78 94 98 96 96 97 94 94 93 92 98 99 97 96 94 99 96 96 97 98 96 94 83 76 77
11 10 8 8 14 16 16 14 12 12 14 25 45 59 73 58 58 66 56 59 72 86 96 90 98 98 97 98 98 90 94 94 95 96 98 94 98 97 98 96 91 88 93
9 8 14 17 16 15 12 10 9 9 11 17 21 32 32 33 36 53 54 58 81 80 81 63 69 89 98 99 95 96 91 90 90 91 97 99 91 97 97 98 97 99 96
9 16 18 14 10 11 12 11 7 7 10 10 12 11 14 23 26 33 42 50 80 96 100 91 76 69 83 98 99 98 98 97 90 97 89 97 95 94 95 97 98 99 98
17 18 15 10 12 10 8 11 14 14 14 13 13 13 10 8 12 20 19 26 52 60 89 100 100 98 76 76 92 97 100 96 99 98 99 98 98 98 98 98 98 98 98
19 15 11 10 7 7 12 14 13 13 12 12 12 10 9 7 8 14 21 22 40 58 85 100 99 100 98 93 83 88 95 88 97 98 98 98 99 96 98 99 98 98 99
11 11 9 6 9 11 13 12 10 13 14 12 12 11 8 10 15 28 36 33 45 58 79 92 98 90 94 97 98 88 94 96 98 98 98 99 95 97 99 99 98 98 98
10 6 8 12 13 13 12 12 12 13 14 16 14 11 12 13 18 19 33 51 71 76 84 60 67 96 84 97 87 91 98 100 98 98 99 100 98 98 97 95 98 96 95
10 14 14 15 15 16 14 15 19 20 21 19 16 15 17 16 20 24 31 55 65 67 79 86 64 100 100 97 100 96 99 99 100 93 99 98 93 95 91 91 92 92 90
17 17 19 19 18 18 19 20 19 19 24 21 21 20 21 23 21 22 38 54 58 66 98 100 100 89 100 100 100 100 100 100 97 100 98 92 95 85 88 89 95 92 88
21 20 17 18 20 22 20 19 15 22 25 25 26 28 28 31 28 27 37 52 77 78 89 96 85 88 82 97 99 99 100 95 97 87 82 100 87 90 96 94 95 86 66
24 22 26 29 26 24 18 15 19 28 33 28 30 33 33 37 41 34 37 58 76 89 73 82 64 69 65 71 87 94 99 94 72 72 86 86 100 76 54 63 67 69 48
25 35 37 36 30 26 18 18 22 24 22 22 24 36 41 41 44 53 59 62 67 69 73 67 70 73 66 78 85 92 91 92 90 86 89 85 68 43 30 21 22 20 19
34 46 50 34 29 23 23 22 22 24 23 23 21 32 45 40 33 39 54 59 62 75 84 81 82 82 77 78 78 80 96 90 75 64 55 19 28 16 18 20 20 19 18
50 46 35 32 29 26 23 22 25 26 24 21 20 18 16 15 16 16 17 19 21 22 23 24 25 25 27 30 31 28 27 28 28 27 25 20 23 25 21 20 20 13 8
46 39 37 36 34 29 27 28 25 22 20 18 16 16 17 19 22 25 27 30 32 33 34 34 34 34 35 35 35 34 33 34 34 34 31 26 22 19 18 16 12 9 9
49 46 46 43 36 32 29 26 22 19 19 20 23 25 27 29 30 33 34 35 35 34 35 35 35 33 34 34 33 31 28 21 13 8 8 11 12 11 10 10 12 17 20

GFSMA_500_rhum_051.txt.gz
RH
7 7 5 4 4 4 4 4 5 6 7 9 11 12 14 17 20 25 31 29 26 27 21 14 11 14 15 14 19 22 20 20 12 11 11 10 10 10 13 18 24 26 27
7 5 5 6 5 6 7 9 11 12 12 12 11 11 11 12 12 17 23 33 37 38 40 45 43 20 16 18 16 21 22 23 20 16 13 11 11 10 11 15 20 23 26
7 8 9 8 8 7 6 8 9 12 18 19 16 14 14 17 20 18 17 23 42 42 39 44 55 61 42 27 24 21 22 26 26 18 17 17 16 13 13 12 13 16 18
8 8 8 8 7 9 12 16 20 19 20 17 22 24 25 24 26 28 30 29 30 26 29 38 45 51 69 62 37 32 32 36 33 28 21 21 22 22 20 18 16 16 15
8 8 11 12 22 31 24 24 27 30 24 22 21 27 30 33 36 39 38 39 47 50 54 44 34 42 54 70 79 53 41 41 45 40 31 23 22 22 20 20 22 21 19
9 10 17 34 25 27 24 16 12 11 12 14 12 20 39 44 38 48 59 68 72 73 67 76 81 66 51 42 55 74 79 55 44 39 37 32 23 21 22 22 22 21 21
14 30 19 19 28 15 12 11 10 10 9 8 10 42 60 51 63 69 64 62 70 89 90 90 96 96 93 86 78 58 67 86 82 59 50 36 34 29 27 24 26 30 30
18 13 14 18 15 8 9 10 11 9 8 9 13 15 22 31 51 58 66 59 62 70 98 100 98 97 96 96 97 91 79 77 88 98 97 86 62 45 39 41 51 50 41
14 12 10 8 8 9 9 10 9 8 12 15 16 16 15 22 32 45 64 62 66 81 78 84 90 92 94 96 96 98 97 90 94 93 94 94 96 99 94 59 90 96 87
15 11 8 13 17 15 10 8 8 15 17 16 13 11 12 16 18 34 40 37 64 48 60 69 84 86 88 92 97 98 99 95 98 92 95 94 93 89 89 100 98 96 98
13 11 11 13 12 10 8 8 14 18 14 10 10 12 14 10 18 19 15 22 23 34 56 43 46 48 73 100 97 98 98 90 99 96 83 98 100 94 90 94 96 98 97
12 12 12 12 10 9 9 15 18 18 12 10 8 7 11 13 12 13 17 11 9 10 11 23 31 44 53 62 100 99 98 99 99 99 99 98 97 99 97 96 95 97 96
25 22 16 10 9 12 18 19 16 11 10 6 8 10 9 10 10 11 10 10 8 8 10 13 20 28 35 82 100 99 96 92 97 98 98 99 98 96 99 98 98 97 97
22 14 10 9 16 18 15 12 11 8 8 12 11 9 8 11 11 13 11 9 11 11 8 12 24 32 36 50 49 90 100 97 98 100 99 98 97 98 99 97 98 98 98
13 9 10 15 18 15 11 11 8 11 12 11 9 10 11 16 16 15 11 15 14 9 8 15 39 54 64 67 49 72 100 100 100 98 100 98 97 98 94 96 95 97 94
9 12 17 19 14 12 10 9 14 14 13 13 14 16 18 17 19 15 17 19 13 13 12 25 45 37 35 75 71 81 96 95 100 100 98 99 100 90 94 98 98 100 98
15 18 16 12 10 6 10 14 14 15 12 14 18 19 18 21 21 20 22 23 15 15 16 25 47 58 76 92 59 74 96 98 99 83 98 98 100 99 97 99 96 96 99
17 14 10 6 8 13 15 17 17 15 17 18 17 14 16 23 24 26 27 25 16 19 21 24 31 40 89 84 74 98 100 100 92 86 98 92 99 100 100 100 98 98 91
11 7 9 13 16 17 17 19 20 23 21 20 14 13 21 29 28 31 31 30 19 24 30 29 32 57 70 73 60 51 73 100 96 100 98 99 98 99 98 94 89 83 77
9 13 18 19 22 22 22 26 27 25 21 16 15 17 23 23 25 32 36 33 32 34 41 41 46 43 44 43 56 66 85 82 89 98 98 99 100 96 93 91 87 85 82
18 21 22 24 24 25 31 33 31 29 20 19 20 22 23 22 22 36 36 28 22 18 23 28 45 51 58 59 55 46 58 67 79 86 81 99 100 99 92 91 94 90 85
15 12 12 19 27 37 42 40 31 25 23 22 23 22 21 20 20 24 12 12 13 15 17 19 19 20 23 36 67 77 80 83 85 78 86 99 99 85 62 34 17 12 12
11 13 18 28 44 49 37 33 30 27 24 23 24 22 18 16 14 13 14 17 21 22 24 24 24 24 25 26 28 28 28 28 29 29 29 29 29 29 26 23 21 21 22
14 16 29 46 45 39 37 36 34 27 24 25 23 21 18 16 17 19 22 24 25 24 24 24 23 23 24 24 24 24 22 25 27 26 27 36 34 32 28 23 18 15 15
16 20 38 54 47 45 44 42 34 28 26 25 23 21 22 24 25 27 28 28 29 28 27 25 24 24 22 19 18 19 18 19 20 17 16 15 13 12 10 10 8 7 7
19 32 53 55 56 53 47 39 34 29 27 26 26 28 30 31 31 31 31 31 31 30 28 27 27 24 18 16 16 16 17 18 20 21 16 14 14 12 11 9 8 8 8

GFSMA_500_rhum_054.txt.gz
RH
7 7 7 6 5 6 6 6 6 8 8 9 9 9 12 14 14 14 14 15 16 16 17 22 28 32 38 45 33 18 16 18 20 23 23 16 15 13 10 10 11 17 24
8 7 7 7 8 8 8 8 6 6 9 11 13 16 20 20 20 21 23 22 23 23 22 21 21 20 26 35 50 50 26 22 24 29 30 29 19 16 13 12 12 13 18
8 9 9 8 8 7 8 8 13 24 22 23 26 28 23 18 19 25 27 29 36 39 39 34 32 32 32 28 24 38 61 51 30 28 34 36 28 20 20 16 14 14 14
9 10 13 9 8 9 10 16 27 22 23 21 19 18 13 15 13 16 27 35 43 46 48 56 66 58 46 42 46 37 37 54 69 50 32 28 30 24 21 23 23 19 18
11 14 13 10 9 10 18 34 29 31 26 16 10 9 9 9 8 12 40 62 59 66 69 70 71 72 79 84 84 83 76 50 49 66 72 52 34 33 29 23 23 23 24
12 11 12 11 11 26 26 20 27 19 13 12 9 10 9 8 8 16 36 42 47 63 62 76 75 74 82 89 95 93 97 94 79 56 62 82 67 46 37 33 26 24 24
12 13 15 13 13 14 16 16 18 11 10 10 10 10 8 10 15 19 31 51 46 56 62 68 66 65 68 82 83 85 90 97 98 95 79 69 86 90 65 50 40 34 25
16 16 16 14 14 14 15 12 10 9 10 11 10 8 8 15 17 14 13 20 35 41 50 53 53 68 72 50 58 72 85 92 100 99 97 97 85 84 100 100 97 68 47
31 17 15 16 15 14 12 10 10 13 13 11 9 10 14 16 16 12 12 16 14 25 28 32 30 31 32 35 43 58 73 85 82 92 100 94 100 98 94 100 98 98 99
34 24 23 15 15 13 10 12 16 16 12 9 9 18 17 16 12 11 7 8 16 14 18 20 19 21 20 17 24 38 50 67 68 84 88 90 99 100 98 97 97 97 96
19 19 18 17 14 11 14 15 16 13 9 9 17 17 12 11 8 7 6 8 9 11 11 11 10 9 18 13 12 14 30 34 68 98 99 80 96 100 98 99 92 95 95
19 18 18 14 12 15 17 16 14 10 9 18 19 13 10 8 9 9 7 7 8 12 14 11 11 13 11 10 12 16 22 34 42 53 93 98 98 91 99 99 97 100 98
19 17 14 15 24 24 22 16 10 10 18 19 12 11 7 9 9 8 8 8 11 11 13 13 16 12 12 13 16 33 42 46 41 48 78 99 100 91 100 99 98 98 98
14 23 35 31 26 21 13 10 12 18 16 12 11 7 10 11 10 11 12 13 10 13 16 16 17 12 14 15 13 26 43 31 38 50 46 80 100 99 97 97 98 97 98
38 38 30 26 22 13 10 15 18 14 12 8 11 12 13 12 13 17 17 14 15 18 20 20 17 17 18 15 32 56 68 67 57 71 60 65 100 100 98 97 97 95 95
36 35 32 23 11 11 16 17 13 9 8 14 13 15 14 16 17 16 14 17 22 24 24 24 17 22 19 18 26 49 50 44 66 42 73 96 94 100 100 99 98 96 96
40 37 21 11 14 17 14 10 8 10 15 16 18 18 19 20 20 15 16 23 27 26 29 28 22 23 21 28 20 30 37 48 86 97 100 84 86 97 96 100 100 98 100
29 13 13 17 16 12 8 9 13 14 17 19 22 22 24 22 16 15 20 25 21 26 33 29 27 14 14 26 35 33 39 54 60 89 98 90 87 66 86 90 85 86 98
12 15 18 16 10 10 13 17 18 20 20 21 25 26 26 20 18 20 24 23 21 32 31 21 10 11 12 13 18 35 46 40 50 67 82 90 86 84 100 100 100 98 98
18 17 14 10 14 15 18 20 24 24 26 30 32 31 26 21 20 20 22 22 26 32 14 12 13 13 13 14 15 16 26 53 61 53 46 74 87 88 85 88 89 100 96
16 12 12 14 16 18 15 15 18 30 39 46 34 29 25 22 21 22 20 18 23 12 13 16 16 16 16 16 16 18 23 24 29 37 55 74 73 75 72 84 94 96 100
14 17 18 14 11 12 12 16 32 45 43 33 30 28 25 23 23 20 18 15 14 14 19 21 21 20 20 19 18 18 16 16 18 26 30 32 34 32 30 30 31 25 19
18 14 12 10 12 13 19 35 44 41 38 36 34 29 25 24 20 18 17 18 20 22 24 24 24 23 21 20 21 19 16 16 15 15 15 16 14 19 21 26 29 32 34
13 12 13 14 13 18 34 45 47 46 44 41 34 29 26 22 20 21 25 27 27 26 26 26 26 26 26 25 24 20 18 18 18 17 17 18 18 17 17 18 16 12 12
15 16 15 14 17 27 42 48 49 48 42 36 31 28 26 26 28 30 31 29 30 33 34 33 32 31 29 26 25 22 19 20 20 21 21 22 21 20 22 21 19 16 16
18 17 18 19 25 34 43 47 47 44 41 37 34 32 32 33 36 37 35 40 42 44 42 39 37 34 32 29 27 25 23 23 25 26 26 23 23 28 29 26 23 20 16

GFSMA_500_rhum_057.txt.gz
RH
16 13 10 8 7 7 7 8 7 7 7 8 18 20 21 23 24 23 19 17 17 18 24 27 32 32 29 28 25 24 25 27 39 45 28 20 21 22 20 15 14 12 12
15 13 10 8 8 8 8 8 7 9 10 23 23 21 20 19 19 14 11 10 9 10 19 30 33 34 42 53 63 55 47 42 37 32 46 52 36 25 25 22 17 15 14
16 14 10 9 9 11 10 8 8 10 17 25 23 26 20 12 9 8 9 9 7 11 33 52 49 54 60 58 63 64 70 78 75 69 47 40 60 53 33 28 24 18 17
17 14 11 10 11 13 10 9 10 15 32 28 29 25 12 10 9 10 9 8 9 14 21 32 36 41 50 53 64 62 65 78 91 93 92 80 50 70 61 42 37 31 23
18 14 14 13 12 11 12 11 13 21 20 16 14 14 10 9 10 10 9 10 14 18 30 31 26 30 36 45 51 57 53 61 73 77 90 97 91 65 73 74 51 47 40
20 17 18 17 12 12 16 15 13 14 14 14 12 8 9 12 12 9 11 15 17 17 19 18 17 20 26 39 43 36 58 62 59 75 83 96 100 98 85 81 92 71 59
21 18 17 15 13 14 16 16 21 16 14 12 9 11 13 13 11 10 13 16 14 12 12 13 13 12 19 18 25 20 14 16 18 38 71 92 87 99 100 97 92 94 96
23 20 19 17 18 22 16 20 23 15 15 13 11 14 16 14 10 13 16 15 13 14 12 10 11 12 11 12 12 11 11 10 11 14 34 80 74 79 98 97 97 98 96
25 23 22 23 35 37 26 41 21 16 14 12 11 15 18 14 10 15 14 13 12 9 10 11 11 11 11 12 11 9 11 12 11 10 10 16 42 89 79 87 98 82 91
27 23 24 28 39 35 23 18 17 15 12 15 17 14 12 9 12 17 15 10 9 12 13 11 11 13 15 13 10 13 10 10 11 12 14 25 46 85 62 80 80 99 99
35 38 41 42 27 21 19 18 16 12 16 23 19 15 10 13 18 14 11 7 8 8 9 11 14 16 15 12 15 13 11 14 15 14 21 34 48 48 58 100 100 99 95
46 46 41 29 27 22 19 16 14 22 24 22 14 10 13 18 14 11 7 9 9 11 12 16 16 18 16 17 18 14 16 16 12 16 24 41 58 50 63 86 99 98 93
46 37 31 28 23 19 15 22 27 24 21 16 10 12 18 14 11 8 9 10 10 11 17 15 18 19 20 21 20 18 17 12 20 20 25 45 48 52 54 48 60 100 100
34 31 29 29 24 18 34 31 28 25 20 10 15 18 14 9 8 10 11 11 13 14 13 14 20 23 24 24 19 19 14 10 17 31 37 46 60 61 61 60 56 85 100
39 34 24 22 40 39 36 34 30 21 11 17 16 12 8 11 12 13 14 15 16 16 13 14 23 26 28 27 22 15 13 15 15 25 46 77 82 72 66 66 30 63 99
32 23 25 37 39 37 39 36 17 14 17 14 9 10 14 16 17 17 18 20 21 15 14 16 21 23 29 28 21 8 8 14 24 25 41 70 99 94 75 98 96 100 100
29 27 31 33 40 44 34 14 16 17 11 9 14 16 17 17 20 21 24 24 19 16 16 19 20 28 30 22 9 8 8 9 12 24 31 75 95 99 70 61 80 93 89
43 43 46 47 49 23 13 16 17 10 12 18 19 20 20 22 25 28 27 26 19 17 18 20 23 32 23 11 10 10 10 10 10 12 26 34 69 71 67 64 55 64 71
53 55 52 26 15 15 17 17 12 16 19 22 22 24 26 32 35 33 33 24 20 18 19 20 31 16 12 13 12 12 14 13 12 11 14 28 34 50 75 82 74 68 76
58 29 17 15 17 18 17 14 19 20 18 16 19 30 39 47 42 34 26 22 20 20 18 21 15 13 16 15 14 17 16 15 14 13 12 13 16 26 44 65 94 99 94
20 19 19 19 20 16 17 21 18 13 13 17 31 38 39 35 33 30 25 23 22 18 15 14 15 18 20 20 19 20 19 20 18 16 15 14 13 12 13 14 17 26 38
23 23 21 18 17 19 20 14 13 13 17 30 42 45 44 41 36 30 25 23 20 17 17 20 22 24 24 23 23 23 23 23 20 18 17 17 16 15 16 17 17 17 16
44 21 18 19 20 15 14 15 14 12 17 32 40 43 43 38 32 27 24 21 20 22 24 26 27 27 27 27 26 26 25 22 21 20 19 20 18 18 18 19 19 18 18
22 24 20 18 17 16 15 13 14 21 31 38 40 38 34 32 28 26 25 25 27 30 33 32 33 36 38 35 33 31 29 26 24 23 22 22 23 21 21 20 16 15 17
22 20 19 18 17 17 15 16 23 32 35 33 36 39 39 37 33 31 32 33 35 36 38 42 47 48 46 42 38 36 34 30 27 26 25 26 28 27 24 16 14 18 26
23 23 22 20 19 18 18 23 30 33 32 35 39 43 47 49 44 41 38 39 41 43 48 56 55 51 48 44 43 40 35 32 30 30 31 34 31 29 19 14 22 24 22

GFSMA_500_rhum_063.txt.gz
RH
31 28 25 24 22 19 14 12 10 9 9 10 9 9 10 18 22 16 16 15 11 8 14 16 14 12 9 13 17 23 22 20 24 31 33 40 47 53 62 69 69 55 51
36 32 28 26 23 20 18 16 13 11 11 11 10 11 12 14 14 14 16 14 8 9 17 17 16 11 12 15 17 17 15 17 17 19 25 36 51 45 54 71 90 88 74
42 36 31 28 26 24 23 19 15 15 15 12 12 16 16 16 22 19 15 12 9 14 18 18 16 12 13 16 16 14 13 10 8 10 22 38 33 41 59 64 73 83 96
45 42 42 37 33 32 28 21 19 19 17 13 13 16 16 25 34 27 16 14 11 15 19 20 16 12 14 16 14 11 8 8 8 10 12 17 22 17 18 27 39 61 89
51 50 47 42 40 38 32 26 21 20 17 14 14 17 19 21 43 39 18 15 12 16 21 22 14 13 15 16 12 7 6 9 11 10 9 11 12 11 12 12 17 27 46
59 58 52 47 43 38 32 27 22 21 18 17 19 28 37 34 29 23 17 15 13 21 23 17 14 14 15 14 9 7 7 7 8 8 10 11 11 10 10 10 10 11 19
63 63 58 50 44 41 36 30 26 23 22 22 24 31 39 33 24 19 17 14 17 24 22 15 13 14 16 11 7 7 7 7 8 10 12 12 11 13 9 11 12 12 14
65 68 61 51 46 43 40 34 32 29 28 24 35 39 38 26 21 19 15 15 24 22 18 15 13 15 13 8 8 8 8 8 11 13 13 14 18 16 14 14 16 17 24
66 66 59 51 47 45 42 37 33 32 28 28 38 41 38 33 24 16 17 20 21 17 16 13 15 15 11 8 8 9 10 12 13 14 15 17 19 18 15 10 24 25 24
68 62 56 53 50 47 44 40 36 32 28 32 46 42 30 27 18 21 26 26 21 15 14 15 16 12 9 9 10 11 13 14 14 15 19 21 20 18 11 15 17 26 27
68 64 66 62 54 51 47 42 36 31 36 50 47 34 24 26 25 30 30 28 22 15 15 16 12 11 12 12 12 14 15 15 15 17 22 24 20 14 10 14 30 24 23
79 79 67 60 55 51 45 44 40 46 51 43 35 28 30 29 33 32 30 28 19 14 16 12 12 12 15 14 16 18 19 15 16 18 24 25 19 8 10 10 24 29 48
86 90 79 79 67 55 51 50 51 46 41 37 34 35 32 33 33 31 32 23 14 16 12 11 16 14 15 16 18 19 18 16 16 18 25 24 7 7 8 8 14 32 78
89 86 82 73 61 54 49 46 47 49 42 38 33 30 30 30 30 33 26 14 16 13 13 15 19 18 19 20 22 22 19 16 17 19 26 13 8 8 8 8 10 23 60
78 68 63 56 51 52 58 63 58 43 33 33 27 25 26 27 40 22 13 16 13 10 11 18 20 21 23 26 26 26 20 18 18 26 19 8 9 10 9 8 10 18 52
77 73 73 72 70 68 65 60 58 56 46 31 32 34 40 43 24 14 17 12 14 16 18 20 26 29 31 32 32 26 20 18 23 24 10 10 11 11 11 10 9 10 19
68 61 63 63 64 66 68 67 57 46 41 40 42 47 48 22 14 17 14 15 19 18 18 20 31 37 38 34 25 21 20 24 29 12 12 11 13 13 12 11 10 9 10
76 69 63 63 63 68 69 68 58 47 45 50 52 52 24 16 18 16 18 16 15 12 16 30 36 36 32 26 21 20 24 21 13 14 14 13 16 16 15 13 11 10 10
77 70 64 62 64 65 69 73 67 61 61 64 52 21 18 19 18 18 16 11 14 21 31 39 40 35 26 20 18 17 16 13 16 17 17 16 19 19 19 15 13 12 11
70 66 63 60 56 54 58 59 72 71 70 66 27 20 21 21 26 16 12 15 17 26 29 34 32 27 20 18 16 15 16 19 21 22 21 21 22 23 22 19 17 17 15
64 62 61 62 59 56 63 67 71 73 56 26 21 23 27 30 16 16 13 21 27 28 28 26 23 21 19 18 20 22 24 26 27 28 30 31 30 29 28 26 24 22 19
70 69 72 61 60 52 49 44 37 29 27 26 28 34 30 21 24 19 25 28 26 27 25 24 23 24 24 24 26 28 29 31 37 41 41 40 38 36 34 33 30 25 22
75 64 67 70 86 73 58 40 40 41 43 44 38 39 24 27 24 30 27 27 29 30 32 32 30 30 32 30 30 32 35 41 48 50 47 44 41 40 38 34 29 26 25
71 78 72 81 89 86 83 84 90 87 85 65 46 34 26 30 33 28 26 28 30 34 36 33 37 43 41 38 38 41 47 53 58 56 50 47 47 44 39 34 32 32 30
90 86 82 86 82 86 83 79 51 46 46 58 45 32 34 41 32 30 34 40 43 45 42 37 34 38 49 53 52 53 60 68 69 65 64 64 62 52 43 40 37 37 38
98 83 82 96 93 98 89 75 74 78 58 48 43 44 46 40 33 38 48 48 51 46 43 40 40 36 43 62 73 76 78 81 85 89 88 84 74 58 62 61 60 59 54

GFSMA_500_rhum_066.txt.gz
RH
33 33 31 28 26 24 22 20 20 17 15 13 13 12 11 12 17 17 25 37 31 20 13 10 15 21 22 20 16 13 15 16 15 14 13 10 8 11 21 38 36 48 70
36 36 36 35 29 26 25 25 24 22 19 16 17 16 13 14 17 17 24 39 48 28 15 11 13 23 23 21 16 13 15 15 13 10 7 6 8 11 15 16 25 38 49
38 39 42 40 34 33 31 30 30 27 22 21 21 19 18 15 16 18 21 37 42 25 16 13 13 24 25 22 16 14 16 14 11 7 6 7 8 8 10 10 11 12 15
36 42 49 44 44 43 39 38 36 30 24 22 22 21 21 18 22 30 43 42 33 22 16 13 16 26 25 21 15 13 15 12 8 7 6 8 7 8 9 10 11 10 10
40 48 56 52 53 50 46 44 40 34 29 25 25 24 25 23 26 32 40 36 27 23 17 14 22 26 24 21 13 14 15 10 9 9 7 7 8 9 11 11 11 11 10
42 53 60 60 59 58 54 48 44 39 33 30 31 28 28 28 36 40 38 29 32 27 18 17 26 24 24 19 12 15 15 8 8 7 8 8 9 11 11 12 13 11 11
47 55 63 64 65 68 63 53 48 44 42 39 38 34 34 30 41 42 39 31 28 23 18 25 25 25 24 15 13 16 12 7 8 8 10 23 17 15 21 22 20 20 16
55 60 66 68 66 68 67 57 51 48 46 41 40 39 38 32 38 47 40 24 19 25 28 27 27 26 22 13 14 14 8 8 9 11 12 15 15 22 28 27 22 20 10
86 72 70 66 67 65 62 56 52 50 48 44 41 41 46 38 48 43 32 26 27 28 30 29 28 24 16 14 15 10 8 9 10 11 15 15 15 18 20 21 26 14 14
80 73 73 67 71 70 66 60 60 58 51 61 56 38 37 48 50 43 31 36 33 33 31 29 27 19 14 16 11 8 9 11 11 14 16 16 15 19 22 24 22 7 14
88 79 74 71 72 75 72 72 70 58 56 62 56 45 49 49 40 40 42 35 33 33 30 29 19 15 15 11 9 10 12 13 15 17 18 16 16 17 29 24 10 9 19
83 79 78 76 75 78 81 79 71 68 71 70 67 52 49 44 37 38 37 33 30 30 32 30 16 15 13 10 12 16 17 18 21 23 21 17 16 19 27 20 7 8 9
92 80 75 67 74 84 89 90 90 87 67 62 63 59 48 50 42 38 32 30 30 37 33 18 15 13 10 13 15 19 22 24 28 26 22 19 18 24 27 8 8 9 8
85 77 82 80 82 84 86 83 73 62 56 53 73 60 53 44 38 37 33 35 41 37 18 15 14 13 14 18 17 23 28 31 32 30 22 20 24 28 11 9 10 10 9
84 77 86 85 77 75 72 68 65 65 66 68 63 56 54 52 38 37 38 46 44 22 16 15 13 15 17 19 18 25 33 38 33 23 21 23 33 15 10 11 12 11 10
89 91 91 91 91 86 80 74 72 71 68 70 68 65 55 43 40 44 49 45 20 16 16 15 14 16 14 16 21 32 35 30 24 20 22 32 21 12 12 13 13 13 11
98 96 93 86 83 77 72 63 64 64 69 71 70 65 52 48 48 54 54 23 17 17 16 16 13 15 14 24 32 33 31 21 18 17 26 22 14 14 13 15 15 16 14
99 98 98 96 91 86 78 72 71 66 65 67 68 69 64 59 64 64 33 19 19 18 18 14 19 16 21 23 31 29 22 18 16 17 14 13 17 17 17 18 18 18 17
99 99 98 97 87 79 74 68 64 61 56 53 53 60 69 72 69 62 21 22 22 19 16 20 17 24 25 28 27 22 18 16 15 14 15 17 20 22 21 22 22 23 21
95 93 94 94 78 70 66 63 61 59 56 53 56 60 70 79 73 34 22 23 22 20 18 19 23 25 24 22 21 19 18 18 20 21 23 24 25 27 30 31 30 28 28
77 73 69 74 71 72 71 67 61 62 63 68 67 70 66 49 31 30 30 29 27 21 22 24 23 25 23 23 23 23 23 22 26 27 27 30 35 42 42 40 38 36 35
52 56 62 52 48 58 71 72 69 66 56 44 43 39 34 36 36 43 36 34 24 24 26 27 25 25 27 28 28 27 27 28 33 31 31 40 48 49 47 44 41 40 39
67 69 67 69 67 71 73 70 84 89 82 65 43 44 46 55 59 74 64 36 33 27 29 28 32 32 33 30 30 32 35 35 37 41 43 46 51 56 52 48 49 48 44
78 73 77 72 76 75 76 73 79 93 97 92 99 96 99 96 87 55 53 46 33 32 34 37 39 34 35 33 31 28 31 40 50 51 58 66 69 68 68 69 72 67 54
84 88 90 86 92 92 86 86 84 84 92 98 93 80 78 85 59 58 55 47 37 38 47 45 41 38 37 35 34 34 34 39 51 69 74 78 82 84 87 85 82 73 62
90 94 100 100 98 96 95 99 98 96 91 90 93 96 97 66 64 60 57 48 42 48 52 54 47 48 46 41 38 40 43 49 54 61 65 72 77 82 89 91 88 88 85

GFSMA_500_rhum_069.txt.gz
RH
30 32 32 32 31 29 27 26 25 25 24 21 19 19 20 19 17 18 16 17 26 43 46 40 25 16 13 15 25 25 23 18 14 15 15 12 8 6 6 6 7 10 13
30 33 36 38 37 36 32 28 28 28 28 25 23 22 22 21 22 21 20 23 35 45 44 38 27 20 14 19 26 24 24 18 13 15 14 10 7 6 6 7 7 8 10
28 33 38 41 43 44 37 37 37 36 37 36 31 28 26 23 23 24 24 27 34 44 42 37 33 24 16 21 25 24 22 14 14 15 14 8 6 7 6 6 7 9 11
23 28 36 43 47 51 45 47 46 44 42 40 37 33 29 28 26 27 29 38 46 44 43 39 33 26 19 25 25 24 22 13 15 15 12 7 7 7 7 8 10 12 11
19 24 30 39 49 58 56 56 54 52 48 44 43 39 36 34 32 31 32 40 45 46 44 35 25 22 25 27 27 25 17 14 16 14 9 8 7 7 9 11 12 12 13
17 20 25 34 47 57 62 62 62 62 58 52 47 45 44 40 38 36 33 35 43 48 41 32 36 29 29 30 28 26 17 15 16 12 9 12 9 10 18 16 16 23 26
19 21 22 28 44 55 60 62 60 59 62 56 51 48 48 44 42 44 46 37 48 46 37 36 35 31 31 29 28 26 15 14 14 10 10 10 16 20 21 18 19 23 24
74 61 57 51 46 55 60 62 58 59 62 59 52 52 53 48 52 50 42 45 51 42 36 38 33 32 30 28 32 26 14 15 10 10 12 12 14 21 27 23 22 28 33
81 89 91 87 67 56 57 71 72 68 64 65 61 57 58 58 64 62 48 56 48 35 40 35 33 32 30 33 30 17 14 12 9 10 13 14 16 20 20 20 30 36 35
77 80 78 74 75 77 72 67 63 61 60 62 67 68 64 63 70 68 59 52 49 41 40 34 32 31 37 34 22 15 14 10 9 13 15 16 18 23 22 20 18 22 37
58 57 65 74 72 89 90 89 87 84 71 69 71 72 72 78 78 72 70 52 46 44 37 34 32 38 38 24 18 14 12 8 12 15 19 20 22 24 21 20 19 24 29
58 58 74 89 90 89 92 81 73 66 64 75 85 85 83 80 73 75 73 56 49 41 39 34 39 41 28 19 15 12 11 14 16 18 22 24 27 28 22 20 21 29 22
74 86 88 88 91 91 95 84 73 67 72 81 84 85 80 72 61 76 66 51 43 42 41 38 44 37 20 16 14 12 15 16 19 23 29 33 36 30 22 22 27 30 9
96 97 98 93 92 91 91 80 72 75 74 75 75 70 67 63 70 66 58 58 51 42 41 44 44 27 20 15 13 11 14 12 18 24 33 34 27 22 22 26 32 11 11
98 97 98 97 87 96 89 83 82 84 78 78 84 81 79 75 70 69 66 57 47 46 48 50 32 20 18 14 11 18 14 18 23 29 33 28 21 20 26 32 12 12 13
90 96 97 96 96 100 99 89 85 90 88 80 70 64 65 69 72 70 68 55 50 51 55 47 28 19 17 12 20 15 11 17 22 28 20 17 16 25 31 14 13 13 15
95 96 96 95 100 100 98 96 89 86 83 77 72 68 65 65 69 67 69 65 62 62 59 43 26 20 16 14 20 11 16 21 28 23 17 15 17 17 15 16 15 14 16
97 96 98 98 98 96 94 96 94 92 92 84 73 67 64 61 59 61 66 69 63 67 63 33 23 20 15 28 16 15 20 24 22 18 15 14 14 14 17 19 19 19 19
97 97 91 96 96 96 96 93 95 94 89 81 69 63 60 56 54 52 58 69 75 81 48 27 29 20 18 18 17 20 21 21 20 18 17 16 17 19 22 24 23 23 26
61 82 82 84 90 81 88 90 88 90 91 84 78 70 60 58 59 59 69 82 82 54 31 34 32 28 20 20 22 22 21 21 21 21 21 21 21 23 26 28 34 38 38
30 34 38 40 45 53 50 53 63 68 68 72 67 64 63 63 64 64 66 51 38 39 46 41 40 33 25 26 26 25 23 25 24 24 26 26 26 27 30 40 48 49 46
44 44 41 41 42 45 55 67 63 55 52 69 72 73 73 46 43 43 44 51 69 64 48 52 43 35 29 29 31 30 28 26 24 23 31 33 32 32 38 44 51 54 52
50 55 56 57 60 60 58 62 69 69 70 77 79 96 92 88 61 56 61 65 66 74 75 52 57 38 31 38 38 36 31 29 27 28 32 37 38 40 43 51 64 66 62
67 72 72 68 64 71 75 67 72 70 75 74 82 92 94 99 95 97 99 98 98 64 72 65 42 38 42 43 41 41 34 32 33 32 33 34 36 47 56 69 78 79 82
72 69 65 66 62 66 78 96 98 97 97 95 93 87 88 100 100 99 100 97 69 86 76 52 43 50 53 51 52 51 47 42 39 41 44 45 49 55 58 60 66 72 76
81 78 78 75 77 79 83 93 92 100 100 99 99 100 97 98 100 100 100 83 79 91 68 53 52 59 61 60 61 62 59 55 49 47 47 50 55 61 65 65 67 70 68

GFSMA_500_rhum_072.txt.gz
RH
26 29 30 31 31 31 31 30 28 26 27 28 30 29 26 26 27 27 28 31 33 33 34 45 44 40 37 29 21 19 25 25 26 25 17 13 15 15 9 6 6 6 7
24 30 32 33 35 37 38 38 35 30 30 32 35 35 32 30 29 28 29 34 36 39 47 49 47 43 36 29 22 22 26 26 27 24 14 13 15 14 8 6 6 6 7
17 23 30 33 36 39 42 46 40 38 41 40 41 40 37 34 33 32 34 35 38 41 47 47 45 43 35 30 24 27 28 28 27 25 15 13 15 11 7 6 7 7 8
17 19 23 28 34 41 44 50 50 49 51 50 49 46 43 42 40 39 39 39 40 41 40 44 48 42 36 36 29 29 30 28 29 23 14 13 14 10 8 8 9 10 12
17 18 19 22 26 33 42 48 53 55 57 57 58 56 52 48 46 46 46 45 45 46 46 44 49 41 36 36 31 31 30 28 28 18 14 14 12 9 9 9 13 19 17
26 19 19 18 20 24 33 43 53 58 60 59 60 61 58 53 50 49 50 50 51 55 51 48 51 42 38 35 32 31 30 30 24 16 15 13 12 14 19 18 22 24 25
63 57 36 20 19 21 27 37 44 52 58 60 59 60 62 61 56 54 55 54 58 66 68 66 55 38 40 32 31 30 33 34 20 15 14 11 15 41 30 29 28 27 24
40 71 79 79 49 45 39 39 47 54 57 61 65 67 67 67 63 60 62 55 60 70 73 66 63 42 41 32 31 31 37 26 16 15 13 10 11 15 25 33 37 35 34
32 48 61 74 88 92 89 82 70 62 59 68 72 60 58 66 72 68 64 62 66 86 87 77 66 44 39 33 32 36 37 19 16 14 11 10 14 17 18 22 26 32 38
54 54 55 70 74 79 83 79 76 81 80 75 74 79 68 60 52 55 68 76 85 82 76 67 54 48 39 35 36 38 29 17 15 13 10 12 15 18 22 24 27 25 25
96 94 92 84 92 89 75 75 70 68 71 72 72 72 69 64 60 56 62 84 79 74 72 71 55 44 40 38 40 39 24 18 15 12 11 15 16 19 25 30 29 27 23
93 95 96 93 86 71 71 73 75 80 81 77 76 78 69 63 63 63 64 72 68 66 72 75 59 46 42 43 44 34 23 16 15 12 12 13 13 23 31 35 34 27 23
95 96 97 97 96 94 86 95 81 72 86 92 86 78 66 66 68 71 72 70 66 69 64 62 61 49 44 48 45 29 21 16 14 15 17 11 14 21 29 31 26 22 22
96 94 96 95 94 96 97 97 93 94 86 86 82 76 65 76 74 78 80 78 76 72 66 62 54 48 47 50 41 28 21 15 12 21 11 14 16 24 29 26 20 20 26
96 97 96 96 95 90 96 93 96 88 89 90 89 82 73 72 72 78 75 69 67 66 71 63 53 52 56 49 42 27 20 13 18 12 10 13 24 22 18 16 17 25 19
97 98 98 96 88 85 88 94 91 92 97 92 90 88 81 78 74 70 64 60 62 65 70 64 59 61 62 55 42 30 20 15 21 14 14 19 24 19 15 14 19 18 14
98 96 98 98 98 93 87 87 95 91 88 84 91 96 91 84 78 75 72 69 68 64 61 66 62 59 73 63 39 25 18 25 18 18 19 21 21 16 14 13 13 14 16
96 98 98 97 97 97 98 100 95 97 97 98 96 97 97 92 84 81 76 65 62 60 60 63 63 66 80 62 34 26 24 19 22 21 22 20 18 16 15 14 13 14 18
46 65 87 92 88 94 99 92 89 93 95 94 93 95 93 88 80 76 74 75 66 64 66 73 89 85 79 41 35 30 23 26 24 22 21 20 19 20 20 18 19 20 22
15 16 22 34 47 59 60 64 71 62 59 62 61 57 64 71 67 70 70 71 69 74 86 90 90 76 61 47 40 32 32 28 25 23 22 22 23 22 21 21 22 24 26
17 18 18 19 21 24 24 26 29 30 38 43 52 62 66 67 70 71 67 61 58 56 56 49 51 58 65 54 49 36 38 30 28 27 28 26 26 27 25 26 28 28 30
36 38 32 32 32 33 35 33 35 32 36 39 42 56 58 55 58 81 82 79 63 49 52 58 86 96 79 64 46 58 36 34 33 29 31 28 28 28 29 30 35 35 36
64 64 60 48 43 40 40 42 43 48 47 48 54 61 65 58 67 89 100 93 78 70 75 91 96 70 91 59 80 44 41 46 42 36 33 32 32 30 31 32 36 37 45
48 55 58 56 54 56 58 59 58 48 52 58 64 72 71 90 82 85 95 93 98 94 91 86 97 97 92 93 53 49 53 54 45 43 41 38 39 38 38 40 41 44 49
54 62 68 72 71 70 68 67 68 69 63 71 80 87 86 96 100 100 100 100 90 100 100 100 90 100 98 67 59 63 65 60 58 58 55 51 47 45 45 46 50 53 57
56 66 70 68 68 71 75 80 79 78 88 92 97 96 98 100 100 100 100 100 100 100 100 96 93 100 88 72 68 68 70 74 91 77 68 68 63 60 56 56 58 59 59

GFSMA_500_rhum_075.txt.gz
RH
16 22 26 29 29 29 30 30 31 32 31 28 28 30 33 34 32 31 32 35 37 40 42 43 45 47 47 46 41 35 31 28 28 29 27 29 25 16 12 14 12 7 6
14 16 22 28 30 32 33 35 36 38 38 34 34 36 38 39 38 36 37 39 42 42 43 44 44 45 45 48 41 35 36 28 28 29 28 31 24 16 13 14 11 8 6
19 16 17 22 30 34 36 38 39 41 44 40 43 44 44 45 42 42 43 44 45 46 47 48 49 51 47 49 41 33 37 30 27 27 29 31 24 18 14 13 10 8 8
29 22 18 18 23 29 33 37 41 44 52 49 51 53 53 53 52 50 48 47 48 49 50 51 52 56 47 51 46 35 37 32 30 28 32 30 23 17 14 13 10 10 10
30 24 19 19 21 22 26 30 37 44 51 57 58 60 60 60 59 57 54 51 50 51 54 53 55 64 65 64 47 38 39 32 30 32 35 28 20 16 14 13 19 22 24
46 36 28 24 23 20 20 21 25 32 41 50 60 64 61 60 60 59 61 60 56 56 58 59 59 62 74 66 54 38 38 33 31 36 35 22 17 15 15 20 33 34 31
72 62 50 53 51 36 26 19 20 25 33 39 47 58 64 67 71 69 66 65 64 65 60 61 66 72 77 76 72 44 40 34 32 39 31 20 16 13 38 41 50 46 40
58 41 35 42 57 76 82 55 25 28 37 48 42 49 60 80 75 71 68 70 70 65 58 61 71 84 84 79 82 63 43 34 36 38 27 19 15 12 11 35 43 46 33
55 36 33 34 48 61 77 80 87 83 87 96 80 69 67 71 70 81 81 78 72 67 68 73 81 82 74 71 70 80 43 36 40 37 26 18 14 13 16 17 17 21 32
76 59 48 54 56 58 65 68 82 90 93 90 79 71 62 52 58 57 69 66 62 59 60 70 77 74 71 75 60 73 64 44 44 35 24 18 16 13 16 17 19 26 30
95 93 92 96 96 96 96 94 92 87 94 83 77 74 75 63 60 55 59 69 65 58 60 70 73 64 67 68 86 84 88 44 44 32 24 18 15 13 16 14 22 31 32
97 96 96 96 96 97 97 96 96 96 93 80 70 76 79 79 72 61 67 66 61 67 66 66 69 68 68 56 58 63 48 48 44 33 28 21 15 15 18 14 20 28 32
95 97 97 97 96 96 97 97 96 91 89 77 70 75 79 75 87 82 79 70 56 56 69 74 76 75 71 65 58 50 49 52 44 35 26 22 14 20 10 16 25 28 28
96 96 97 94 96 96 97 95 96 92 97 92 85 84 89 94 91 80 77 75 67 62 59 61 65 69 68 65 59 51 56 62 51 34 24 18 15 17 14 19 23 22 18
68 77 83 90 96 91 91 90 86 84 90 91 94 92 93 92 93 87 88 78 75 71 70 64 60 61 70 68 63 58 61 65 56 35 25 17 20 16 15 25 21 16 13
60 77 75 75 78 79 82 93 96 90 85 80 82 84 85 88 94 85 82 80 86 82 76 72 69 66 64 66 68 66 62 69 58 39 26 20 20 16 23 23 18 15 14
68 78 98 99 97 100 99 96 89 90 90 84 78 80 85 81 88 100 99 93 94 93 88 80 78 74 67 72 77 77 75 81 62 35 27 24 20 21 24 19 16 14 13
60 82 92 87 91 96 94 100 100 92 97 96 96 94 97 98 97 92 95 97 100 96 89 87 74 73 77 69 80 90 95 90 68 41 25 23 24 22 20 17 16 16 14
14 17 20 25 27 24 29 56 61 62 79 90 85 80 74 66 68 72 72 78 91 85 75 76 75 74 68 72 83 99 98 96 63 37 30 48 25 23 20 19 20 20 20
21 20 18 17 16 16 16 15 18 24 30 41 40 40 36 32 37 40 49 62 71 75 74 74 73 68 66 77 77 86 83 79 53 41 56 34 26 24 24 24 24 24 24
18 16 15 15 16 18 19 19 19 19 20 20 22 24 27 29 31 34 46 64 71 69 77 76 65 69 56 60 85 83 88 87 78 57 68 34 32 32 32 30 29 28 29
14 18 24 28 32 34 36 39 41 36 30 32 32 33 37 45 50 49 49 54 59 64 96 88 75 70 68 68 81 94 99 92 68 88 45 43 41 37 35 32 30 30 32
34 35 33 30 32 36 42 47 49 48 44 44 49 56 62 54 51 60 64 76 69 72 98 100 94 90 82 97 100 87 82 83 96 60 51 54 46 41 37 34 34 34 34
34 36 35 36 31 33 40 46 54 59 64 66 67 66 60 57 55 67 78 88 96 98 100 100 100 98 100 100 98 96 96 99 79 58 63 61 56 50 45 41 40 41 42
44 47 42 37 35 33 40 53 65 65 64 64 64 70 71 69 74 84 95 98 98 98 100 100 100 100 100 100 96 97 98 86 73 81 78 75 72 67 61 55 51 50 50
47 47 45 41 39 37 43 60 59 54 60 64 68 75 77 78 82 96 95 94 100 97 100 100 100 100 100 98 99 100 100 92 83 95 87 84 89 85 78 72 66 65 62

GFSMA_500_rhum_078.txt.gz
RH
15 15 20 23 25 28 27 28 28 29 31 32 32 31 30 31 34 36 36 36 37 40 43 44 46 47 50 52 54 53 51 45 38 32 26 25 26 28 25 20 17 14 12
19 15 14 19 24 27 29 30 32 34 36 36 37 36 35 38 39 40 40 40 41 43 44 44 47 50 52 53 57 60 55 52 42 34 27 26 28 29 26 20 18 15 13
26 20 16 14 18 23 29 32 34 36 38 40 42 43 42 44 46 47 48 49 50 48 46 46 46 51 53 54 57 62 68 62 42 40 27 26 28 29 23 20 17 16 13
31 27 24 19 17 18 22 29 34 37 41 42 44 48 48 51 55 56 56 56 56 54 49 53 54 56 59 61 61 63 71 70 53 45 32 27 28 24 23 19 17 17 18
36 36 32 28 24 20 20 21 25 30 33 38 43 47 54 58 61 61 60 60 58 54 59 61 61 64 56 58 62 70 76 76 72 55 51 31 29 25 23 19 17 16 26
38 38 41 35 27 21 21 20 20 21 22 26 30 39 48 54 59 59 58 56 62 63 62 63 62 64 62 59 65 76 76 76 78 51 49 33 33 28 23 20 17 17 47
52 48 51 58 59 44 31 29 26 24 21 19 22 28 34 37 48 58 64 65 65 62 60 70 74 66 62 60 64 73 78 67 63 74 63 36 40 31 23 20 17 24 51
58 56 72 66 60 46 42 46 54 61 52 30 21 20 34 50 54 58 58 70 63 72 76 71 65 60 58 59 66 76 75 70 62 84 59 50 56 31 23 20 15 17 57
72 72 72 82 82 84 65 53 48 54 67 74 76 75 69 85 86 89 90 87 77 76 67 65 64 59 58 59 64 69 70 73 57 65 81 73 59 29 25 20 15 15 16
92 85 90 92 95 96 94 85 84 85 83 87 77 85 90 83 79 74 78 75 72 71 62 64 70 65 62 64 68 68 67 68 77 76 85 61 46 30 27 20 14 16 18
96 97 97 97 97 98 96 96 96 96 98 97 93 95 87 75 74 64 63 66 67 63 65 75 72 64 67 73 72 72 71 68 65 63 48 52 47 32 27 21 14 20 15
95 96 96 97 96 96 98 96 94 97 97 98 97 96 94 92 87 74 64 61 70 73 77 79 78 72 69 70 76 78 75 71 64 57 50 54 49 38 26 20 16 18 15
97 96 96 97 98 97 97 96 96 96 97 97 97 95 92 90 85 80 67 63 65 75 83 83 78 76 74 71 67 65 65 64 64 59 53 54 51 42 30 20 17 20 15
98 94 98 96 95 96 96 95 92 93 96 95 93 88 87 84 78 81 72 72 71 76 78 80 83 78 77 75 73 67 61 62 66 62 60 60 63 48 32 20 20 16 16
96 96 97 96 93 93 91 88 77 83 90 84 71 68 69 77 79 79 81 74 72 74 78 81 86 86 86 83 79 76 73 70 70 73 77 81 72 74 37 21 21 15 22
90 56 60 68 59 62 64 60 58 85 92 92 84 92 85 81 71 68 72 78 86 78 78 83 89 90 88 91 90 79 77 79 80 87 91 92 90 63 36 24 19 20 22
48 47 48 53 53 56 65 74 84 97 98 94 87 80 89 90 82 83 84 89 95 92 90 85 84 93 100 95 87 87 83 76 88 90 93 90 88 81 49 24 23 23 19
19 21 18 14 19 25 40 57 65 76 62 47 32 38 64 86 96 90 86 79 73 72 80 88 96 97 100 92 91 78 74 77 89 94 96 98 98 74 35 27 25 22 17
9 10 12 13 14 16 16 15 15 16 16 16 16 19 22 23 31 44 51 47 51 51 56 65 72 84 90 85 83 92 95 93 95 89 94 97 92 58 34 56 25 21 18
13 15 16 19 22 22 20 18 16 16 16 17 17 16 17 19 20 20 21 24 27 32 38 43 54 69 74 70 70 66 64 61 76 93 100 100 87 42 83 38 25 23 24
15 17 20 22 22 19 17 15 16 21 23 26 31 36 40 35 31 31 31 32 36 48 48 51 55 57 57 79 77 76 70 61 77 100 100 98 96 91 69 34 32 31 30
22 22 15 12 11 10 14 22 25 25 27 32 41 46 46 41 37 34 39 50 52 42 50 61 71 75 72 85 95 97 83 87 97 88 96 99 97 91 52 51 45 42 41
17 14 13 14 14 20 27 34 32 31 27 30 34 39 41 42 44 49 52 51 54 56 53 69 82 92 88 89 94 100 100 100 100 100 100 97 100 72 66 58 50 45 45
18 22 24 23 26 29 30 31 34 34 31 29 30 38 42 44 50 58 64 68 61 64 77 87 93 100 99 89 100 100 100 100 100 100 100 100 91 81 78 67 60 55 52
29 32 33 33 35 37 36 36 38 39 36 32 32 40 40 45 56 62 68 72 74 77 90 85 86 82 91 99 100 100 100 100 100 100 100 100 100 100 94 86 79 73 68
40 42 42 42 46 49 46 43 44 37 35 35 36 42 44 49 62 78 75 80 79 86 82 85 100 98 99 100 100 100 100 100 100 100 100 100 100 100 99 100 98 98 98

GFSMA_500_rhum_081.txt.gz
RH
21 18 17 15 16 19 22 24 24 25 27 28 30 31 32 31 30 31 34 36 38 38 39 41 43 42 41 41 44 48 49 50 54 61 63 51 39 25 24 25 24 18 18
28 21 18 17 18 21 24 26 26 27 29 31 32 34 34 35 35 36 40 41 42 44 45 47 46 44 43 46 46 49 45 49 59 63 68 64 50 31 27 25 24 20 18
30 24 19 17 17 19 23 26 28 29 30 32 34 36 37 37 39 40 40 42 45 46 48 49 49 48 50 51 51 54 53 53 59 61 72 74 65 48 33 28 27 21 18
36 30 24 20 18 17 20 24 27 29 31 31 35 36 37 38 38 37 39 42 44 45 47 50 51 53 60 59 56 59 62 59 52 57 67 70 68 60 38 32 33 23 20
45 40 34 29 24 22 20 19 20 22 24 28 31 32 34 33 33 34 37 40 41 45 49 51 53 54 56 61 64 60 57 50 57 69 74 70 69 73 55 34 38 24 21
60 53 41 34 31 29 29 26 24 21 20 18 19 21 23 23 24 25 29 31 35 40 44 51 54 56 65 67 58 55 54 54 56 64 71 67 65 78 58 44 52 26 22
79 55 43 33 28 26 24 25 23 20 19 17 17 18 17 17 18 21 25 27 28 34 41 42 56 67 64 54 51 48 53 54 60 67 69 68 69 69 72 70 77 29 22
92 91 70 64 48 42 52 59 51 48 42 36 31 35 35 29 28 24 26 28 32 42 57 63 66 57 58 57 52 60 59 55 56 65 68 66 61 75 88 85 55 22 20
95 96 96 96 96 94 94 95 82 65 50 57 62 51 63 73 71 70 85 87 85 83 78 69 70 66 60 58 56 65 57 54 60 66 66 68 73 75 65 50 40 26 23
97 97 96 97 90 95 97 96 98 97 96 94 91 75 69 77 88 100 98 93 96 94 81 74 64 61 62 67 70 70 61 54 57 67 73 70 66 63 49 52 41 31 24
98 97 97 97 97 95 96 97 96 100 95 95 95 93 88 92 98 93 100 96 90 80 75 72 67 62 71 72 73 76 71 62 58 58 66 69 67 60 52 53 46 35 24
97 96 97 97 97 95 97 97 96 97 97 97 96 96 98 97 96 93 80 85 84 81 76 74 65 68 73 72 75 73 72 69 64 61 60 61 64 61 54 56 54 42 34
96 97 96 97 97 96 96 97 97 97 97 97 96 95 96 96 93 92 85 80 74 77 75 78 73 72 70 70 74 77 80 79 75 72 66 64 66 63 58 61 59 45 55
96 95 97 98 97 94 96 97 97 97 96 97 95 94 83 77 87 94 91 82 70 65 64 65 65 66 66 74 83 90 94 93 87 84 79 76 73 70 71 75 83 85 64
76 93 98 96 95 97 96 96 95 83 56 61 78 91 77 60 59 59 58 58 60 65 54 55 62 76 82 88 94 100 98 96 98 95 90 92 94 96 93 96 93 79 58
54 57 77 94 95 93 89 59 46 45 44 44 48 56 56 68 80 68 62 62 60 62 57 56 56 75 87 86 96 100 100 100 99 94 92 97 97 100 98 94 92 66 44
31 34 41 48 40 50 45 40 30 21 24 34 40 53 43 57 65 47 29 40 49 55 75 79 81 77 81 92 100 100 100 100 96 93 95 94 95 91 91 96 92 91 46
24 22 19 18 15 14 12 9 10 11 11 12 12 13 13 14 14 14 14 15 16 17 24 32 32 34 48 65 76 83 84 90 94 97 98 98 96 96 94 98 98 84 42
16 15 14 12 10 10 10 12 14 15 15 16 17 17 16 15 15 15 14 16 16 17 18 20 24 28 29 30 33 38 56 67 69 69 68 78 90 98 100 100 94 81 33
15 15 15 13 11 11 13 14 14 16 17 18 18 15 13 14 17 20 25 25 26 30 28 29 31 33 38 40 46 48 48 48 46 66 76 67 82 98 100 98 98 43 92
13 13 12 12 13 14 15 18 23 19 13 11 10 16 21 22 22 24 30 37 41 39 36 33 38 46 37 44 52 64 59 57 84 88 97 82 96 99 97 97 58 98 63
31 20 14 14 15 15 22 20 12 9 10 12 21 27 30 27 23 24 30 36 40 41 45 46 48 49 55 46 59 60 73 76 91 100 100 100 100 100 100 100 98 67 48
46 29 17 14 19 26 20 14 15 19 19 21 28 33 33 31 28 26 24 31 36 40 47 52 59 55 60 78 78 87 100 97 93 100 100 100 100 100 100 100 93 89 77
25 22 26 28 27 21 16 18 20 20 24 32 32 30 30 30 30 28 28 30 36 46 53 58 65 66 69 83 96 83 91 100 96 100 100 100 100 97 100 100 100 99 95
37 35 32 27 22 20 21 23 26 28 35 36 38 42 38 35 33 30 30 35 38 50 59 62 71 70 78 83 96 86 91 100 87 100 100 100 97 100 100 98 98 98 97
32 29 30 27 28 27 26 29 33 34 34 40 44 42 42 35 33 35 39 43 44 58 62 68 73 80 87 89 92 83 91 100 100 100 100 100 100 100 100 99 100 99 98

GFSMA_500_rhum_084.txt.gz
RH
16 12 12 12 12 12 14 17 18 20 22 23 24 26 27 28 29 28 29 29 30 34 36 37 39 42 44 43 42 42 44 46 48 55 56 50 50 62 64 60 39 29 24
18 15 13 14 16 16 16 17 19 21 23 24 26 27 29 30 30 28 28 29 32 36 37 39 44 45 45 44 47 47 50 51 56 58 53 47 52 59 67 67 62 36 30
22 19 26 28 22 20 19 18 20 22 23 25 28 28 29 31 30 28 27 30 32 33 35 38 44 46 48 51 45 46 52 59 55 46 46 49 56 67 71 68 68 50 34
31 35 41 28 26 22 20 18 19 19 21 24 27 28 29 29 29 28 30 30 29 30 32 35 39 37 44 50 48 47 56 54 47 44 45 49 53 66 68 58 74 65 39
39 89 64 35 29 25 22 19 16 15 16 20 24 24 23 25 24 25 28 26 26 28 26 27 31 38 40 48 50 50 54 47 49 45 51 49 49 55 64 62 69 70 55
90 94 48 40 35 31 24 24 22 20 18 17 17 16 16 18 20 21 20 21 21 22 21 23 26 30 36 43 45 59 52 55 50 49 54 50 49 54 63 66 65 71 75
95 89 78 52 47 47 38 34 30 28 27 26 24 21 20 18 17 17 17 17 17 19 20 20 23 27 36 60 69 61 61 54 54 60 54 50 51 56 64 64 70 78 82
90 96 94 85 76 65 60 38 30 26 24 23 25 24 23 24 24 24 29 30 37 42 46 61 67 70 67 67 61 61 57 56 62 62 58 49 52 56 64 68 69 70 60
94 98 95 97 97 93 71 70 88 67 54 62 58 57 46 43 52 60 65 70 66 66 75 76 79 83 80 72 65 62 55 58 61 64 68 57 51 51 61 69 66 59 50
97 96 97 97 97 96 96 96 97 98 96 97 100 96 85 78 76 72 76 79 80 87 90 94 92 90 84 81 79 64 53 53 59 62 69 65 57 52 63 72 66 59 53
95 97 97 96 97 96 96 97 97 96 96 96 96 97 99 95 98 96 98 97 97 94 95 95 88 81 76 75 72 65 59 56 59 62 68 72 68 61 63 67 62 57 57
97 97 96 97 97 96 97 96 97 96 97 96 97 97 97 96 97 95 99 98 96 96 95 95 90 79 71 66 64 64 66 64 67 69 70 74 76 72 67 70 69 63 58
97 97 96 97 97 97 96 96 96 97 97 97 96 96 96 96 92 94 95 88 87 86 83 82 73 65 65 67 68 62 58 62 69 75 84 89 90 90 87 90 90 73 63
95 96 96 96 97 97 94 96 95 95 96 96 97 97 97 96 95 92 93 93 89 83 72 75 68 57 56 58 54 50 52 69 78 86 90 91 98 96 96 98 97 94 86
85 93 95 97 97 96 96 96 96 96 95 95 94 93 77 52 50 48 65 70 62 66 55 49 45 46 50 52 55 58 59 62 80 90 99 100 97 97 99 100 99 98 98
50 53 50 56 56 79 91 94 96 95 96 64 43 41 32 20 15 18 15 12 15 17 18 14 16 20 26 40 53 62 77 77 80 83 94 96 95 96 96 97 100 98 98
36 36 43 36 36 45 42 46 44 47 39 44 39 25 11 12 11 12 13 14 14 13 13 13 13 14 14 14 16 22 24 35 44 60 73 75 70 81 92 93 97 98 98
46 42 41 33 30 33 31 27 18 14 13 11 12 11 12 13 13 16 16 15 14 12 12 12 12 13 14 14 14 16 19 23 28 33 34 60 78 80 77 94 98 100 100
32 32 30 26 22 20 17 14 14 13 13 12 12 14 15 15 17 14 9 8 9 13 17 21 25 26 27 26 25 25 27 31 40 39 44 46 54 58 67 91 100 100 100
27 24 20 19 16 15 14 14 12 11 11 13 15 14 14 14 9 7 8 10 15 17 16 16 20 24 28 30 28 28 35 37 42 47 53 56 57 84 87 82 100 99 100
28 27 26 20 16 15 14 13 12 12 14 16 17 20 14 9 8 9 10 16 24 22 21 19 21 29 36 36 39 45 46 50 44 52 64 66 67 100 92 100 100 99 100
27 25 24 26 22 17 14 13 13 13 15 15 21 17 10 10 10 10 14 22 23 24 25 25 21 25 29 37 46 51 52 55 62 68 70 75 100 87 100 100 100 100 99
36 34 32 30 31 35 39 40 32 15 14 21 23 14 10 14 16 20 24 26 24 25 27 24 20 22 36 44 50 58 61 70 75 74 73 93 98 100 100 100 100 100 100
56 57 52 49 47 47 46 43 28 17 22 25 19 15 18 19 20 27 28 28 29 30 29 24 23 27 44 48 56 65 74 80 86 86 88 100 81 97 100 100 99 100 99
72 59 51 46 42 37 32 27 28 29 28 22 19 19 24 26 27 31 34 36 35 32 27 26 27 33 48 53 62 64 72 78 85 85 78 91 85 100 100 100 95 100 100
90 92 80 51 45 43 40 38 35 31 29 24 24 24 30 23 33 44 43 41 36 32 30 35 33 46 56 59 69 76 77 74 77 76 74 87 99 100 100 99 100 100 100

GFSMA_500_rhum_087.txt.gz
RH
34 27 19 13 12 10 10 10 12 15 15 16 18 19 20 21 23 24 25 25 24 24 25 26 30 29 33 36 37 41 45 45 43 48 52 48 44 40 45 43 57 65 67
42 32 24 17 13 11 11 11 12 15 17 19 19 19 21 22 24 24 26 24 22 23 25 29 30 32 34 33 31 34 41 43 45 51 50 46 43 40 41 44 53 60 61
40 33 25 23 15 13 13 14 42 15 18 18 20 21 21 23 24 25 25 25 26 26 27 29 31 32 34 37 37 37 40 42 43 50 51 52 48 44 47 43 46 55 58
41 34 30 25 19 14 16 69 39 20 20 19 20 23 23 23 23 25 26 29 32 33 34 34 34 31 28 29 28 32 40 44 42 47 50 46 45 48 50 48 51 55 61
46 34 29 24 20 18 59 77 21 21 20 19 18 20 22 22 21 21 26 27 26 30 31 30 28 26 25 28 27 23 27 35 45 54 55 50 51 50 48 48 50 58 60
50 43 35 50 22 23 83 46 24 23 21 19 18 17 18 18 19 19 19 20 20 23 26 24 25 24 23 22 21 27 39 60 61 58 52 58 56 58 54 48 50 57 58
88 89 87 83 30 44 95 42 27 26 27 22 24 25 21 20 19 20 21 20 18 18 19 21 20 21 29 41 70 71 72 74 71 63 63 49 53 60 60 51 51 59 63
95 95 96 79 42 76 94 59 72 41 66 48 35 32 29 27 24 22 20 21 18 21 23 34 43 57 62 71 72 82 88 79 70 69 66 53 51 53 57 61 52 52 58
96 96 94 96 86 96 93 89 86 88 84 80 55 72 66 53 35 37 44 40 40 42 54 65 65 74 81 80 79 84 80 78 78 72 67 61 55 54 56 59 60 57 64
96 95 95 97 97 94 99 99 98 100 97 96 94 97 95 99 87 87 73 61 53 56 72 75 91 87 86 88 85 84 83 78 75 68 69 65 63 64 67 68 68 67 63
96 95 92 96 97 95 96 94 97 97 97 95 96 97 97 96 96 86 82 92 97 92 87 85 89 89 84 85 80 83 77 72 67 64 61 61 61 73 73 74 80 79 85
97 96 96 96 96 96 97 96 96 96 97 96 96 97 95 97 97 97 96 95 94 96 96 92 90 93 88 77 70 67 64 59 53 56 58 59 60 72 88 99 99 97 96
97 97 88 97 96 96 97 97 95 97 96 96 96 97 95 96 96 97 96 96 96 96 96 94 92 83 79 72 68 61 50 45 48 54 55 57 58 76 97 100 98 95 98
97 96 94 99 98 97 96 96 97 96 96 96 96 96 96 97 97 97 98 95 95 93 92 76 79 62 46 48 45 36 26 18 18 22 38 44 67 81 89 92 100 97 95
93 94 96 97 97 97 98 96 96 96 95 95 96 96 96 97 94 94 91 82 65 51 37 20 16 13 10 10 10 10 10 11 11 12 15 19 32 52 71 85 87 92 97
88 92 94 96 95 95 97 96 94 93 94 95 86 89 90 76 56 46 34 26 16 10 9 9 11 12 12 11 11 11 11 12 13 12 13 13 17 22 21 25 42 57 88
51 68 79 87 76 80 88 80 59 68 69 51 54 45 28 18 12 12 11 11 11 10 10 7 6 6 5 5 7 12 14 18 21 23 21 22 25 27 29 31 45 66 87
43 42 45 58 46 40 46 47 47 52 44 40 26 24 13 12 12 12 12 13 12 11 7 7 7 8 10 12 13 13 15 19 21 26 26 26 36 37 38 45 52 75 88
51 46 42 39 41 45 48 43 38 33 30 24 16 13 13 13 13 14 15 15 12 7 7 9 9 13 16 16 15 13 16 20 24 24 29 34 34 35 46 52 55 50 68
48 46 38 30 30 30 28 26 22 19 16 15 15 14 13 12 13 14 14 14 11 6 8 9 10 11 15 20 18 16 15 22 22 26 32 38 47 48 45 59 59 65 94
60 54 48 29 27 27 27 25 20 15 15 16 15 14 12 13 15 14 16 15 10 8 9 11 13 13 15 18 17 16 15 17 28 39 42 44 43 54 69 73 65 80 100
66 54 45 34 33 29 25 26 25 23 21 19 14 13 13 14 15 14 18 15 10 9 11 14 16 19 20 19 19 19 16 21 38 38 51 59 64 70 79 99 98 100 100
53 54 54 48 42 37 33 30 29 26 27 29 30 29 33 26 17 16 20 16 11 11 13 15 18 25 26 25 23 20 19 27 38 44 55 64 71 82 80 81 85 96 100
54 55 55 54 53 48 47 44 43 39 34 37 40 45 40 36 23 20 22 15 13 14 15 20 22 26 27 27 24 20 20 31 38 46 54 66 74 63 74 85 89 96 100
51 56 57 58 66 67 65 58 53 53 52 50 46 42 36 24 24 25 21 18 20 17 18 21 26 26 28 26 26 24 33 46 43 53 57 57 68 68 71 82 85 99 94
56 66 71 73 75 81 83 82 66 51 47 44 38 32 30 30 30 27 23 24 22 21 21 21 21 23 23 28 34 38 49 56 59 62 61 58 66 68 76 71 78 100 97

GFSMA_500_rhum_090.txt.gz
RH
47 42 38 32 25 22 15 13 12 11 10 11 12 15 17 18 18 20 20 23 24 25 25 26 25 24 25 28 30 33 32 34 36 39 40 41 40 48 45 43 42 42 38
49 43 37 35 30 23 16 13 12 11 11 13 17 31 18 19 19 20 23 24 26 25 26 24 25 29 29 26 23 27 34 34 35 35 39 41 41 46 48 49 50 47 45
59 55 50 45 38 26 24 15 14 12 11 12 46 30 19 20 20 21 23 25 26 27 25 27 27 27 28 31 29 26 33 31 28 28 29 38 46 54 54 54 52 50 46
64 61 57 47 43 30 25 19 16 13 12 37 72 27 18 20 20 21 23 26 27 28 27 29 30 29 31 31 32 28 26 23 20 20 26 42 63 61 56 52 51 52 46
76 66 59 50 41 34 25 24 17 15 14 63 85 23 21 20 22 22 22 24 24 25 29 32 32 29 26 28 26 23 19 17 19 39 62 71 71 56 59 48 51 54 52
86 71 62 53 44 34 30 21 19 19 26 74 77 21 23 23 23 22 20 21 24 24 23 24 25 24 22 20 19 18 19 29 55 61 76 83 71 64 64 53 50 50 55
96 96 76 68 46 36 25 25 62 53 39 91 42 26 23 22 21 21 23 21 19 20 20 21 20 18 18 19 20 33 51 54 59 68 64 62 65 64 61 60 51 55 59
97 95 95 89 72 40 49 92 96 70 46 93 54 53 45 53 61 33 36 30 28 25 23 21 23 20 22 38 57 61 58 68 65 60 65 66 66 63 59 56 58 60 65
96 95 95 95 94 97 96 77 92 59 57 88 91 72 56 87 80 70 57 49 48 39 31 36 46 50 51 55 60 70 69 64 63 66 66 67 65 64 60 59 63 71 73
96 95 93 92 95 96 96 94 94 93 93 96 97 97 96 95 83 84 92 98 90 89 87 83 69 69 73 79 80 78 72 73 69 69 73 69 59 51 48 50 58 69 78
96 93 85 86 97 100 97 99 95 94 96 96 96 97 96 97 95 88 95 99 94 93 94 96 88 91 90 76 82 79 79 77 71 64 55 47 42 35 34 43 57 66 79
95 96 96 94 95 95 96 96 96 95 97 96 97 96 97 96 97 96 96 97 98 96 95 90 84 85 90 96 88 82 75 63 49 37 34 29 24 23 30 47 48 56 70
95 97 96 96 87 86 96 96 97 96 96 97 97 97 96 97 95 96 96 97 96 96 97 96 96 96 94 83 70 52 40 31 22 15 15 8 8 10 12 12 14 25 55
97 97 96 95 98 95 84 63 84 97 97 97 97 99 96 97 97 96 98 96 96 96 96 90 75 66 46 34 18 13 9 7 6 6 7 8 10 10 10 11 11 14 23
93 96 97 97 77 93 88 60 85 92 96 97 95 97 99 96 96 97 97 96 95 89 64 42 30 18 15 9 7 6 5 5 5 5 5 7 9 12 14 16 17 18 18
98 93 96 96 97 97 98 100 97 97 97 97 96 97 96 95 93 82 66 47 28 20 14 12 10 9 8 6 7 6 6 6 6 7 9 10 12 16 18 19 20 22 23
95 95 94 96 96 96 94 96 97 96 96 96 95 96 97 64 38 31 27 19 16 16 12 11 10 9 6 8 8 8 8 12 14 13 12 13 16 19 21 24 32 31 33
74 68 59 79 88 78 71 72 76 77 84 87 97 86 94 92 75 40 16 15 12 12 13 13 12 9 7 8 9 10 10 10 12 14 13 13 16 20 27 34 38 38 40
54 59 61 44 44 47 46 52 61 62 59 62 52 62 44 34 28 19 12 13 14 14 14 15 14 12 9 9 10 10 10 9 9 13 13 12 13 18 30 39 41 47 44
43 38 45 52 58 51 44 39 39 52 59 50 48 48 56 30 17 15 14 12 13 14 15 16 17 12 8 8 10 10 10 9 12 14 12 13 13 23 34 41 42 50 58
48 49 55 59 66 66 52 45 32 28 28 25 21 19 18 16 15 16 16 13 13 15 16 16 17 13 9 9 11 11 10 11 16 19 18 15 17 22 32 42 50 56 66
61 62 58 62 76 75 64 55 43 30 27 26 26 25 23 20 17 15 13 13 14 16 18 18 19 14 9 10 13 12 13 17 19 20 19 18 19 29 36 49 59 62 67
57 60 57 54 56 55 56 54 49 41 35 32 29 26 25 25 26 25 26 24 30 33 34 27 21 17 12 13 14 13 17 20 21 21 19 19 22 33 34 60 68 68 80
28 38 47 56 59 59 60 61 60 60 56 54 51 45 38 36 35 38 39 39 42 37 34 29 22 18 14 15 14 14 17 16 16 16 17 16 34 38 43 54 66 67 80
21 24 37 41 45 49 57 55 52 55 58 59 58 58 56 56 52 49 47 42 42 39 31 26 24 20 19 21 17 19 16 16 18 23 26 33 45 48 51 60 64 59 70
12 18 37 45 42 47 57 65 61 65 71 78 75 62 59 55 54 51 49 45 39 33 28 29 25 26 25 23 21 18 16 26 31 34 39 50 62 61 56 59 62 68 67

GFSMA_500_rhum_093.txt.gz
RH
68 58 49 48 42 36 28 23 20 15 13 13 13 12 12 12 16 18 18 18 19 21 23 22 22 22 23 24 22 22 25 29 32 32 34 36 36 36 39 43 57 47 40
66 100 63 48 42 37 30 23 22 17 13 13 13 11 14 17 30 27 19 19 20 22 24 23 25 26 26 22 20 23 23 22 25 28 24 23 20 20 28 51 55 44 41
78 64 58 49 42 35 28 24 22 18 14 13 13 12 13 26 41 32 20 20 20 22 23 24 26 26 29 27 26 24 22 21 19 20 18 16 14 27 42 55 50 48 46
87 73 64 53 42 35 30 29 24 18 15 13 13 13 14 32 61 51 20 20 20 21 23 25 26 26 29 28 27 23 22 22 19 17 15 16 21 45 44 47 54 52 54
91 84 72 60 52 47 44 36 32 23 19 15 14 13 15 57 76 55 19 20 21 21 22 23 22 20 24 25 22 22 21 19 17 16 18 34 41 50 53 52 52 53 56
90 94 85 72 64 61 57 48 37 29 21 17 15 15 18 54 91 53 22 24 24 24 22 22 22 21 21 19 21 20 19 18 18 22 37 46 58 60 56 58 57 57 56
95 92 92 85 74 66 57 49 48 44 30 21 17 17 63 36 82 54 26 26 25 25 24 28 24 24 24 23 22 21 20 23 31 40 50 60 58 58 61 62 60 61 61
96 98 93 94 88 80 76 86 67 60 36 24 27 44 92 78 93 71 35 33 54 54 45 49 32 30 30 27 29 42 44 50 53 63 66 63 62 61 58 60 60 56 49
97 97 96 95 96 88 91 93 68 66 58 78 91 89 95 77 92 91 86 70 74 80 72 60 63 66 62 53 61 64 61 67 77 74 71 67 69 67 61 51 43 35 36
97 96 96 98 97 96 96 95 93 98 94 97 96 92 84 61 69 94 91 96 93 87 86 92 94 86 78 79 79 76 76 76 80 76 74 73 57 45 45 39 24 20 23
96 97 97 97 100 98 94 99 96 96 97 97 98 98 93 96 97 97 90 96 95 91 95 97 93 100 92 84 79 80 83 78 77 75 68 55 39 23 14 9 8 8 8
96 98 96 96 95 97 97 97 95 96 96 95 96 96 96 97 96 97 96 97 96 97 92 93 98 98 97 97 97 92 81 72 49 41 20 14 10 6 6 5 5 6 8
97 98 92 94 96 96 95 96 94 97 95 91 95 97 97 97 95 97 95 97 98 96 97 96 97 96 98 99 80 64 34 27 16 14 12 7 6 5 5 5 5 6 8
96 98 89 88 96 95 94 93 89 96 96 95 88 92 94 96 95 89 97 96 95 95 96 98 95 95 89 74 28 16 15 11 10 10 9 7 7 6 5 7 7 10 12
97 89 95 96 97 98 96 92 95 92 88 85 69 69 92 95 97 97 97 97 97 97 96 98 92 58 32 18 15 10 10 11 12 10 8 7 7 8 9 10 11 16 18
95 96 96 97 96 97 98 98 97 97 89 98 100 100 97 95 95 97 97 95 97 96 94 86 43 20 21 12 10 10 8 10 11 11 8 8 9 10 12 11 11 14 18
96 97 97 98 98 97 98 98 99 98 98 97 98 98 97 96 97 96 97 95 94 82 60 52 40 29 14 11 11 9 8 10 13 13 9 8 7 8 12 12 11 10 12
91 90 94 97 97 96 97 99 96 97 93 97 97 96 97 98 94 98 98 85 59 49 53 55 30 12 13 14 13 11 12 12 10 10 9 7 7 10 11 11 11 11 15
84 85 84 89 92 93 95 93 76 66 76 63 74 91 95 94 93 86 81 60 80 46 26 14 12 13 14 16 17 16 12 11 9 10 10 8 9 12 14 13 14 14 20
42 53 58 59 58 57 64 66 59 57 63 63 63 67 83 82 70 57 60 54 34 21 17 13 13 14 16 17 18 18 12 9 10 11 11 9 13 15 17 17 15 21 24
46 48 48 47 48 48 50 55 58 54 53 49 45 49 54 60 52 49 50 46 58 45 22 17 15 14 16 17 19 22 16 10 11 12 10 11 15 16 18 17 17 25 28
30 28 30 28 45 58 59 60 61 60 61 56 51 40 58 67 51 31 23 16 18 17 16 14 13 13 15 19 27 25 18 12 11 12 12 12 14 14 16 17 17 26 38
8 7 7 12 20 26 32 47 58 58 71 74 61 45 36 55 64 34 23 20 18 16 15 15 15 16 29 36 33 27 21 15 13 13 14 14 15 14 19 20 26 38 42
10 11 12 11 8 9 12 22 31 50 55 55 57 49 38 32 31 29 27 23 22 22 20 24 26 30 38 37 33 25 22 18 14 15 15 15 16 20 22 33 49 50 46
8 7 9 12 13 13 11 12 16 23 36 52 57 60 63 62 60 52 44 37 35 37 38 40 40 39 39 39 32 27 25 19 16 17 16 14 22 31 31 50 65 63 47
8 8 8 10 13 16 16 14 15 24 34 42 44 53 57 60 62 60 61 58 54 51 50 50 47 45 40 36 34 34 26 23 20 19 18 21 27 30 31 52 65 63 55

GFSMA_500_rhum_096.txt.gz
RH
66 68 64 60 55 47 41 38 30 24 19 16 15 14 14 14 13 12 15 17 18 18 18 18 20 19 21 23 25 22 18 17 16 17 18 20 18 15 14 13 13 23 34
80 99 98 71 68 57 49 49 31 24 19 19 16 15 14 14 14 11 13 24 29 20 19 20 20 20 19 22 23 22 20 22 21 22 21 19 18 15 12 13 26 38 47
93 84 95 97 72 60 60 63 37 27 21 18 17 15 13 14 14 14 22 31 30 31 20 21 21 21 21 22 22 22 21 20 20 20 20 20 17 15 16 33 42 45 46
92 92 91 97 99 99 83 70 38 33 24 19 17 15 14 14 14 14 17 30 54 48 20 20 21 21 21 20 20 19 21 20 21 21 21 18 17 18 30 41 52 47 49
98 96 81 71 84 93 86 50 44 38 31 23 17 18 16 14 14 14 16 38 61 65 21 21 22 22 24 23 22 22 21 20 20 22 25 18 27 32 42 54 54 51 52
96 97 96 92 78 80 71 64 51 38 28 25 24 18 17 16 15 15 16 48 95 86 22 22 24 25 24 27 29 24 25 24 24 22 36 39 47 49 57 59 55 54 54
96 86 95 97 98 90 85 66 62 51 42 34 32 29 23 20 16 21 64 30 90 96 43 26 31 25 25 32 35 30 29 29 28 26 51 53 55 62 58 62 59 54 52
94 93 85 97 96 95 95 94 91 73 70 75 52 35 24 26 68 62 24 37 86 95 64 34 33 52 54 50 57 45 42 50 43 56 61 64 62 60 66 67 61 58 53
93 98 96 91 96 96 95 96 86 86 64 45 33 57 78 95 84 57 50 75 92 87 92 85 56 79 81 72 74 78 71 70 69 68 70 64 63 59 62 61 51 27 18
94 99 94 94 98 96 96 97 94 94 77 76 82 95 88 86 95 87 93 95 89 88 95 88 90 84 82 84 89 82 77 80 71 69 68 66 68 58 50 34 15 12 8
91 99 96 96 94 97 96 98 98 97 95 93 96 96 96 98 97 98 96 94 91 94 95 91 98 92 87 87 90 84 89 88 78 77 72 54 48 27 22 18 9 8 7
93 94 94 97 96 97 96 98 98 98 98 94 97 96 97 96 97 97 96 97 97 92 84 85 89 90 96 93 87 92 91 91 88 60 46 39 22 13 12 9 8 7 6
97 96 96 97 97 97 97 96 96 96 96 95 95 97 96 95 96 96 96 97 97 97 94 86 83 99 94 95 88 94 83 72 58 25 20 15 15 14 11 10 8 7 6
98 97 97 97 93 96 97 97 97 97 97 95 95 97 97 94 94 93 82 86 94 94 81 91 94 94 95 91 97 92 67 34 28 13 11 11 11 12 11 10 8 6 6
97 96 97 96 96 96 97 96 96 97 96 96 96 96 94 96 80 77 89 97 96 86 90 95 98 99 96 98 86 50 19 13 12 11 11 12 12 12 12 10 8 5 7
97 97 98 97 97 96 95 96 96 97 97 98 96 94 96 95 87 87 88 96 94 93 92 93 100 97 95 95 54 27 20 13 12 10 10 12 14 14 13 10 6 6 7
98 96 94 97 97 96 98 96 97 97 96 98 100 95 90 90 98 98 98 94 97 95 97 98 99 97 94 74 78 62 43 26 12 10 11 12 14 14 13 11 8 6 9
93 94 96 97 97 98 98 98 98 96 97 96 99 99 97 97 97 98 97 96 96 96 96 97 95 96 90 78 79 47 15 13 14 12 11 12 14 13 13 13 8 7 10
86 89 94 95 96 95 95 97 99 97 98 97 98 97 98 97 97 98 97 96 92 96 94 93 93 84 73 60 36 14 14 16 17 16 16 17 13 11 12 12 8 8 12
43 44 50 49 45 62 83 93 88 84 95 93 90 85 86 91 93 95 97 95 90 94 75 71 66 58 44 36 17 13 15 16 17 20 24 21 11 10 11 12 12 9 11
28 29 28 33 42 52 62 70 69 73 67 68 64 67 72 76 64 62 84 97 88 73 62 56 52 39 17 14 13 14 15 16 17 21 27 21 13 12 12 13 13 11 12
6 6 5 6 9 17 19 23 46 57 58 59 64 63 63 55 54 54 54 65 54 64 60 64 49 42 44 45 25 20 14 15 18 30 30 21 15 14 13 14 13 11 11
6 6 6 5 5 7 8 7 6 10 22 38 57 60 64 75 80 70 54 66 99 98 89 81 62 94 56 21 25 15 14 16 30 34 29 24 18 15 14 15 14 11 12
7 6 6 6 6 6 6 6 8 9 8 8 17 37 56 62 74 79 51 48 82 94 92 88 70 71 81 27 15 16 15 23 35 37 32 27 22 18 17 16 14 13 18
8 7 6 6 6 6 6 6 6 7 8 10 9 9 26 51 56 56 55 41 48 86 98 91 73 59 36 18 16 18 25 32 38 36 32 30 26 24 19 17 15 18 23
11 11 10 9 8 8 8 8 8 8 8 8 11 12 11 29 64 62 63 67 55 40 38 35 36 30 23 25 32 37 38 40 40 36 40 39 35 30 22 18 20 23 29

GFSMA_500_rhum_099.txt.gz
RH
83 80 61 68 66 56 49 51 45 42 38 22 18 14 15 15 14 15 14 13 12 15 18 19 19 18 18 18 19 18 17 17 18 18 19 17 17 18 19 16 16 19 35
94 95 78 67 74 67 62 52 50 46 42 29 22 18 16 14 15 15 15 16 15 14 18 23 20 20 20 21 21 21 21 20 20 19 20 19 18 24 24 17 25 29 39
75 83 93 81 83 86 68 58 52 50 45 39 28 21 20 17 14 15 15 16 16 15 19 21 33 23 20 21 22 23 24 23 22 21 20 20 20 25 33 25 38 41 46
39 63 96 97 94 97 96 75 66 62 56 54 37 26 20 20 17 14 14 14 16 16 19 22 52 55 22 21 22 23 24 24 25 25 24 22 25 25 38 42 46 47 49
88 55 96 97 90 85 96 96 89 76 66 68 52 35 30 22 18 15 14 14 14 15 17 25 44 62 33 20 22 23 26 26 35 33 29 31 30 27 47 51 53 47 46
46 89 94 96 98 87 85 84 90 99 92 85 60 41 35 25 19 16 14 14 14 14 16 16 59 84 63 22 23 27 24 31 43 49 41 36 42 37 55 56 53 53 52
30 66 100 94 82 97 93 95 92 96 96 95 87 69 36 26 21 17 15 16 15 19 32 29 44 84 79 34 28 30 34 41 46 63 62 55 58 64 59 54 55 57 54
32 48 80 90 78 97 96 100 92 98 84 82 73 50 59 45 30 21 25 29 39 20 23 54 56 63 72 81 42 30 53 75 74 66 74 70 64 59 54 53 54 50 45
32 76 72 93 95 95 97 97 97 92 97 94 93 91 81 80 73 74 88 95 20 31 70 94 74 68 87 84 79 66 69 81 72 75 74 70 66 63 58 54 51 36 27
91 86 100 90 95 95 97 97 98 97 95 90 90 95 95 95 94 93 77 68 29 69 95 91 92 97 90 94 93 86 84 83 78 75 77 73 64 65 56 50 38 32 23
79 100 96 95 96 94 96 95 96 95 93 93 94 94 88 84 93 93 95 96 96 94 98 98 89 99 96 96 95 92 86 83 81 78 75 67 67 52 56 37 29 24 14
97 97 98 94 97 94 91 88 96 91 98 98 99 92 94 92 92 96 95 87 94 94 98 98 99 96 96 94 93 88 79 82 81 78 80 65 58 50 27 19 14 10 10
88 97 96 96 97 95 97 97 96 100 96 92 96 100 100 95 95 97 97 95 94 97 95 95 98 96 94 86 88 82 81 96 92 83 75 66 44 19 11 11 11 10 9
99 96 97 98 98 95 97 96 96 97 97 97 97 100 94 96 96 96 97 97 95 95 88 78 73 88 98 86 88 87 94 99 95 85 62 39 18 12 12 12 12 10 10
96 88 97 96 96 96 96 98 96 97 96 97 96 97 97 96 96 95 96 97 96 78 81 73 79 82 87 87 76 84 95 98 96 77 40 16 12 12 15 12 11 12 12
95 92 96 97 95 96 96 97 97 97 97 96 97 97 97 94 97 96 97 97 87 94 70 67 88 96 97 93 82 99 99 96 76 26 20 13 14 13 11 12 13 14 16
96 96 96 97 97 97 96 96 96 96 95 96 96 96 95 96 96 95 98 92 87 99 92 82 88 95 97 96 96 95 100 96 57 33 38 54 30 11 11 13 13 14 16
98 94 95 96 96 96 97 96 96 97 97 97 97 97 93 96 96 94 87 99 97 97 98 99 100 97 97 97 98 97 98 97 82 80 52 27 28 13 13 10 15 16 16
97 96 96 96 96 97 98 97 97 97 97 98 97 97 100 97 98 99 98 95 96 97 96 96 97 97 96 96 96 96 96 96 94 80 54 19 15 17 19 20 16 18 14
77 72 59 49 54 70 81 82 91 96 96 96 97 98 98 97 100 99 98 97 98 98 97 92 96 98 97 93 90 93 92 79 62 62 21 14 17 19 22 24 24 20 16
20 22 27 33 39 38 38 38 39 48 60 72 93 96 94 96 96 97 96 96 99 95 92 97 96 98 98 94 94 80 72 74 77 53 18 15 16 17 20 29 25 22 19
6 6 5 5 4 5 5 6 6 8 12 20 30 53 75 93 96 96 97 97 97 90 98 90 98 98 96 98 94 69 51 37 24 16 15 15 15 16 27 31 28 26 22
7 7 7 8 8 7 6 6 6 5 6 6 9 15 20 24 44 59 72 89 92 96 98 95 98 98 100 99 96 90 69 36 23 21 29 32 30 23 44 34 30 28 23
9 9 9 9 9 9 8 8 8 7 7 6 7 8 8 9 9 25 29 48 69 76 86 79 84 90 97 96 92 100 99 90 92 49 21 19 18 25 35 37 35 29 23
9 9 9 10 11 11 12 13 11 8 8 7 6 7 9 10 11 11 12 27 46 57 75 93 97 100 92 99 100 99 97 98 99 99 28 17 18 25 35 38 36 31 26
9 9 9 8 8 9 10 10 10 11 12 12 9 7 7 8 12 13 16 19 28 40 56 64 69 62 74 87 98 100 100 94 74 58 19 20 30 36 40 41 44 42 33

GFSMA_500_rhum_102.txt.gz
RH
85 93 92 86 73 68 57 49 45 48 44 44 35 20 14 14 14 14 14 14 15 15 14 13 15 18 19 20 20 21 22 22 21 21 22 20 19 19 20 23 26 33 34
71 78 84 95 79 78 75 64 52 52 46 44 45 42 22 14 14 14 14 15 15 15 16 14 13 16 19 23 21 21 22 22 22 23 23 22 25 28 26 26 27 36 42
48 46 41 65 87 87 77 75 66 57 52 48 53 45 43 22 17 16 15 15 15 15 16 16 15 16 19 24 28 39 22 22 22 23 26 27 28 32 29 33 35 39 46
21 25 34 38 66 82 78 98 74 58 56 50 55 55 45 40 28 20 19 16 14 14 15 16 17 17 19 24 48 54 48 21 22 23 26 29 41 48 42 40 44 46 50
31 33 54 49 62 72 74 81 96 87 94 92 75 60 55 50 44 30 22 17 14 14 14 14 15 16 16 17 39 68 68 49 22 24 26 27 39 51 64 58 51 56 56
46 63 60 58 40 38 44 83 100 78 90 96 97 83 72 60 60 45 28 22 16 14 13 13 14 14 16 16 22 58 94 74 35 26 32 43 59 68 61 59 57 57 51
54 76 66 49 50 71 50 89 96 97 95 97 88 86 74 78 83 62 39 34 24 16 13 19 17 36 19 24 31 35 60 87 80 65 31 43 71 69 68 63 57 56 53
58 74 50 41 29 39 60 84 99 98 97 97 92 98 90 89 90 87 90 77 46 20 45 47 52 38 33 53 37 49 60 72 71 82 54 47 79 77 73 64 62 60 55
88 74 63 42 22 35 58 99 97 96 98 96 96 98 89 86 98 90 64 76 50 91 52 60 42 70 68 42 30 68 93 75 85 88 80 85 77 79 80 73 65 62 51
75 70 60 38 21 91 92 100 92 98 92 93 96 95 92 98 98 92 84 94 92 95 94 94 94 96 94 44 56 92 88 90 96 94 95 92 86 88 82 80 72 53 52
72 56 56 94 93 98 97 99 97 94 93 92 91 94 97 92 96 91 95 96 96 96 95 94 89 99 100 96 95 100 90 97 97 96 98 94 88 84 85 76 59 52 31
70 86 87 94 97 99 94 94 96 97 95 94 95 90 92 96 97 95 96 95 97 88 88 87 97 99 96 97 95 96 98 94 93 92 94 88 83 82 78 68 52 25 13
60 75 64 96 99 99 93 98 96 97 92 96 96 96 96 97 94 98 96 96 96 98 94 90 88 98 97 97 100 83 86 88 89 86 89 85 84 82 78 64 27 12 12
60 78 91 89 94 94 93 97 96 98 96 96 96 96 94 90 96 99 97 96 95 95 98 92 100 97 93 91 88 86 76 74 82 71 81 85 90 87 80 30 14 12 13
69 69 99 96 100 86 96 96 97 96 96 96 96 96 96 98 96 94 97 97 99 94 94 100 98 98 97 88 90 83 82 75 80 75 77 84 91 92 54 20 12 12 13
82 65 87 95 97 85 89 97 95 96 96 97 96 96 97 97 98 95 95 96 97 96 89 92 100 97 80 70 74 84 96 86 97 89 85 91 94 93 54 20 12 13 11
94 92 84 84 96 100 97 96 96 97 97 96 97 96 95 96 96 97 97 97 96 96 93 81 81 85 81 89 81 82 84 93 98 97 97 95 98 83 31 23 24 23 12
89 98 96 96 96 96 93 95 97 99 97 97 97 96 95 97 96 97 97 97 97 96 98 94 90 84 90 92 92 91 99 98 96 97 95 97 92 68 52 48 59 39 19
99 97 97 96 98 98 97 98 97 97 97 97 97 97 97 97 97 97 98 97 96 97 97 96 93 96 97 96 93 96 98 97 98 96 93 97 96 83 76 79 44 23 16
95 93 92 91 88 85 86 88 93 95 96 96 97 97 97 96 98 98 98 98 98 98 97 96 98 97 98 96 97 96 97 97 97 97 97 98 96 90 89 64 28 16 18
12 13 15 15 25 21 15 17 22 24 30 37 44 43 63 86 97 97 97 97 97 96 98 98 100 91 100 99 100 97 98 95 86 96 95 94 89 76 65 60 25 15 16
8 8 8 7 7 7 7 6 6 5 5 5 4 5 10 14 22 31 45 80 97 99 98 96 95 98 100 95 98 99 98 96 98 97 89 75 76 82 73 59 26 16 16
12 11 10 11 11 10 10 9 8 8 8 8 8 7 6 5 4 8 26 43 46 53 87 97 97 96 96 99 98 100 98 98 98 98 99 94 83 56 35 20 19 19 27
13 13 12 11 10 11 11 10 10 10 9 8 8 9 10 9 8 7 6 9 19 35 58 54 57 84 90 97 98 97 97 98 97 98 98 98 94 93 64 39 31 74 62
17 16 15 14 13 12 12 12 11 10 10 10 10 10 9 9 12 11 8 8 8 10 21 39 48 64 66 84 75 89 96 100 99 100 97 99 100 97 97 98 90 37 20
16 14 13 12 11 10 9 8 7 7 7 7 7 8 8 9 10 13 13 10 8 9 10 14 23 41 70 77 98 100 87 100 99 100 100 99 99 98 98 90 31 19 28

GFSMA_500_rhum_105.txt.gz
RH
56 49 52 72 72 63 65 62 56 50 43 50 52 46 39 35 24 13 13 13 13 14 14 15 15 14 13 15 18 19 21 21 21 22 22 22 23 25 28 32 35 35 36
63 62 63 84 83 96 88 93 90 68 59 51 59 54 54 46 35 23 13 13 14 14 15 15 16 16 16 15 17 18 21 23 28 27 23 21 23 26 30 35 46 50 46
77 64 71 68 86 88 85 88 98 94 76 80 64 63 59 58 50 42 34 15 13 14 15 15 15 16 16 17 17 18 20 22 39 55 54 39 22 25 27 31 43 53 60
73 78 65 39 49 61 60 58 82 79 97 92 78 70 56 56 59 51 45 34 16 17 15 15 15 15 15 16 17 17 18 19 35 57 63 59 50 30 28 33 50 60 54
70 82 92 61 44 46 46 41 47 66 90 99 87 70 67 61 59 57 57 46 33 25 19 16 14 14 14 14 15 15 16 16 20 45 52 60 64 46 29 42 58 61 54
85 58 57 44 39 32 22 33 27 53 74 78 97 95 94 77 80 82 91 63 54 47 22 16 15 14 13 13 13 14 15 19 22 33 47 41 70 68 54 34 58 67 58
79 78 41 41 36 27 31 46 43 44 70 98 75 81 97 98 96 96 93 97 88 76 64 21 17 15 14 13 14 19 22 34 25 27 46 45 56 69 73 62 64 72 66
96 91 59 40 48 19 42 49 29 49 52 50 62 70 78 82 94 96 94 95 94 94 72 39 27 21 16 24 48 52 43 46 30 48 38 52 83 85 78 76 77 77 72
77 92 80 44 45 22 46 35 24 24 48 75 90 88 98 76 99 94 95 96 90 96 97 87 86 92 93 87 87 67 58 65 53 57 42 50 89 89 89 85 83 78 72
98 62 43 31 21 53 47 30 25 23 30 63 98 96 96 99 96 89 93 97 96 96 97 95 89 88 76 95 94 93 83 99 97 80 83 96 95 98 97 95 87 79 71
37 16 19 22 59 65 60 21 27 25 30 59 79 97 96 85 92 99 99 99 96 95 94 93 91 96 97 98 98 100 96 94 88 93 97 94 93 98 96 87 75 74 69
36 28 35 52 84 74 55 60 74 72 98 95 100 96 84 91 90 90 95 100 95 94 93 95 94 97 99 100 94 93 98 94 91 91 92 89 97 92 90 90 79 79 75
35 54 54 83 94 78 62 68 93 97 100 97 99 88 95 88 88 90 94 98 96 96 97 96 97 97 97 97 98 97 95 94 98 97 93 83 86 86 78 82 82 78 77
48 51 30 31 74 77 63 77 81 98 95 96 97 90 97 97 94 98 96 97 98 97 96 96 97 96 97 98 97 97 97 95 92 90 92 79 75 70 78 77 81 79 78
90 66 56 62 76 74 56 73 96 95 88 91 95 97 97 96 96 97 96 96 96 94 85 95 96 97 96 97 96 97 100 90 81 87 84 74 80 78 90 82 81 77 84
50 52 64 60 57 55 57 74 92 93 90 86 87 97 96 97 97 97 97 97 96 95 86 88 97 99 97 97 98 91 98 97 81 85 76 77 96 98 96 95 92 91 95
69 67 67 81 97 90 60 71 86 82 93 86 96 97 96 96 96 97 97 96 94 98 91 89 89 98 97 96 97 97 96 95 89 81 82 92 98 98 98 96 96 97 97
89 81 95 81 88 89 86 100 95 92 99 97 99 94 96 97 96 96 96 96 96 96 97 97 95 98 93 95 97 96 97 97 89 90 86 88 98 96 96 96 96 97 95
100 99 100 98 94 99 99 96 96 97 96 96 98 97 98 97 97 98 98 96 95 97 97 97 94 95 93 98 89 96 97 97 96 97 90 92 97 97 92 89 97 98 96
99 99 100 99 99 100 100 98 96 95 92 93 94 95 96 97 98 98 97 97 97 97 97 98 97 96 96 97 94 96 97 97 96 96 95 98 98 95 94 98 97 98 93
21 21 32 15 18 14 15 24 20 16 15 14 10 14 14 17 27 35 68 87 96 97 98 97 96 97 97 94 98 100 98 97 97 95 90 95 100 97 97 96 91 96 90
11 11 10 11 11 10 9 10 9 8 8 8 8 8 8 8 7 6 6 8 14 24 40 57 81 95 97 98 97 98 98 96 98 100 98 96 94 92 86 91 88 77 78
15 15 14 15 15 15 14 14 12 12 11 11 10 10 11 11 10 10 10 9 8 7 6 11 16 54 37 75 95 97 98 99 98 99 99 98 97 99 92 86 80 79 78
18 18 19 19 19 19 18 16 15 14 14 14 13 13 13 13 12 12 12 11 11 11 11 9 7 6 33 90 98 83 97 98 97 99 95 98 96 99 98 95 94 94 91
28 27 25 23 22 22 21 19 18 16 15 14 13 13 12 11 11 11 10 10 9 10 12 13 12 9 7 17 36 82 99 72 96 95 96 98 99 98 98 96 83 84 96
31 33 36 32 27 26 26 26 25 22 19 16 12 12 11 10 8 7 6 6 6 5 6 8 11 12 11 8 13 32 30 66 97 100 96 96 99 99 94 93 92 93 99

GFSMA_500_rhum_108.txt.gz
RH
75 71 64 65 58 51 59 66 60 38 52 42 41 44 45 45 45 39 34 20 12 12 12 12 13 14 14 15 15 15 15 17 18 20 21 22 26 44 37 29 25 31 32
80 72 77 73 55 64 67 77 77 77 87 72 46 48 50 51 49 46 46 37 16 12 13 14 14 14 15 15 16 16 16 16 17 18 20 25 39 49 51 41 42 34 31
87 82 85 83 67 58 76 91 94 94 88 92 76 71 57 54 59 56 52 49 39 16 12 13 14 14 15 15 15 16 16 17 17 17 18 20 34 51 48 53 50 48 42
74 81 80 78 56 74 76 80 84 92 92 72 96 97 76 79 69 62 60 56 54 49 46 21 12 13 14 14 14 14 15 16 17 16 16 17 20 39 47 47 49 60 37
96 92 88 81 77 82 88 87 97 88 78 82 56 61 66 95 85 70 64 65 62 56 55 51 20 13 13 13 13 13 13 22 17 15 15 16 18 24 36 51 47 62 66
96 89 91 98 88 86 99 93 73 75 80 67 48 43 47 80 97 95 84 71 70 70 65 72 68 46 30 18 13 12 12 12 13 14 19 15 21 31 34 36 56 54 85
96 97 99 98 98 100 96 95 75 60 51 48 45 35 31 36 63 87 98 86 92 98 88 93 75 70 65 45 20 15 13 14 14 15 19 26 33 37 39 42 42 47 79
95 98 97 97 97 89 72 68 54 51 34 27 44 45 30 37 82 73 85 95 93 94 95 96 95 92 98 90 49 26 18 15 16 25 51 42 38 41 40 75 52 82 79
74 97 98 96 95 80 68 77 55 43 35 24 40 38 23 37 63 68 66 74 88 91 94 97 93 93 96 98 81 33 22 30 45 72 95 63 74 65 96 89 88 98 96
75 85 94 94 93 91 90 92 72 38 37 34 37 26 20 16 34 55 66 66 96 92 88 90 94 92 96 93 93 95 90 96 94 96 98 95 83 91 94 96 96 97 94
62 56 60 70 77 72 81 88 29 34 39 36 38 18 17 16 20 41 79 91 93 97 96 94 91 98 97 96 96 96 96 97 96 96 96 98 85 82 100 99 97 95 92
81 70 52 42 75 85 87 36 20 33 53 57 47 39 33 32 52 75 96 98 92 95 92 94 93 96 98 95 95 95 97 98 94 92 96 95 89 93 95 98 88 92 93
81 75 48 39 60 62 41 31 35 50 67 66 55 49 71 78 99 100 98 99 98 99 94 87 96 95 94 97 98 98 98 97 95 97 99 87 93 94 94 100 87 85 91
64 79 37 29 38 49 40 52 57 72 77 79 70 61 72 81 89 94 94 99 86 86 85 81 97 95 93 99 96 97 96 98 97 97 95 95 90 100 99 98 84 82 87
63 50 47 41 38 41 45 46 38 48 48 70 64 60 80 82 87 86 96 96 90 96 94 95 95 96 95 97 97 96 96 97 98 97 93 95 90 89 96 82 78 89 95
76 76 83 79 77 72 76 63 60 66 71 64 55 66 82 70 85 86 82 97 96 96 94 99 96 97 95 94 96 97 96 96 98 98 97 98 98 94 82 76 84 98 100
79 83 80 65 63 62 68 68 82 84 79 68 60 68 85 93 99 100 98 96 97 96 93 97 96 98 96 95 96 95 95 96 96 96 94 95 95 98 90 86 88 86 98
58 64 61 74 83 98 98 83 91 99 97 71 72 90 96 97 100 99 97 95 94 95 96 96 97 96 96 96 95 95 96 96 95 95 95 98 100 100 92 94 95 90 92
97 98 99 98 99 98 97 89 89 91 99 99 97 98 97 96 98 98 98 97 98 97 97 97 96 96 96 96 96 95 94 96 88 90 92 96 98 97 97 93 90 88 90
98 99 98 100 99 98 98 99 100 100 100 99 99 98 97 97 97 97 98 98 98 98 97 97 98 94 96 97 91 95 96 96 95 86 89 94 97 97 97 97 94 91 95
94 92 84 58 46 68 79 31 71 91 86 90 61 23 19 13 11 12 14 28 19 28 41 68 76 57 82 88 96 97 95 90 90 91 92 96 96 96 96 97 89 94 99
17 11 13 16 14 12 12 12 12 13 12 12 10 9 9 10 10 11 11 11 10 9 9 7 6 6 8 47 41 52 77 87 95 100 100 98 95 88 86 86 87 90 92
16 16 17 18 18 17 16 15 16 17 18 18 17 16 15 14 13 13 12 12 13 12 11 12 11 11 10 8 12 19 51 70 54 57 96 96 98 95 98 95 94 97 99
28 29 28 27 26 26 24 24 21 20 19 20 19 19 19 18 17 15 13 13 13 13 13 14 13 13 12 12 11 9 11 36 87 94 81 40 70 95 98 97 100 98 97
31 31 32 32 32 34 36 37 40 43 46 46 44 38 32 29 26 25 22 19 17 16 15 14 13 12 11 10 10 12 11 10 13 37 100 94 95 99 98 96 98 100 99
47 44 43 40 37 36 38 42 48 47 46 43 41 39 39 38 36 35 34 33 30 24 17 13 11 10 8 8 8 7 10 11 13 10 13 74 97 100 98 95 95 96 97

GFSMA_500_rhum_111.txt.gz
RH
72 70 65 78 66 60 62 56 58 69 84 79 48 27 23 34 44 42 40 37 37 33 23 13 12 12 12 13 14 14 15 15 15 15 15 17 18 19 22 30 46 50 47
67 77 82 86 84 85 80 74 74 61 73 80 84 75 45 37 38 44 44 46 46 44 42 31 14 13 13 13 14 14 15 16 16 16 17 16 16 17 18 21 34 49 50
30 64 99 94 96 94 88 86 84 80 82 92 82 91 84 80 62 47 45 47 51 51 51 51 33 15 12 13 14 14 14 15 15 16 16 17 17 17 17 17 21 30 44
30 92 88 86 88 84 90 90 90 82 74 88 96 92 98 84 83 92 73 66 61 58 60 59 57 49 31 18 14 13 14 14 14 14 15 16 20 16 16 17 17 24 44
14 38 94 97 99 92 91 88 87 82 78 90 90 87 91 79 90 86 68 52 81 79 71 67 61 59 57 51 34 14 13 13 15 17 19 21 21 15 14 14 17 29 48
15 17 40 95 97 96 95 99 90 82 84 93 98 97 97 87 74 74 64 50 67 82 86 71 75 67 64 64 63 51 39 29 22 18 18 16 13 13 14 15 21 31 51
20 15 24 44 96 95 94 87 65 97 90 95 98 93 80 70 53 37 40 34 37 92 96 91 85 87 89 84 85 90 63 62 57 46 26 28 14 13 14 46 69 47 45
24 19 15 32 91 96 97 99 90 94 96 100 94 92 69 46 31 32 40 34 29 39 66 75 91 86 92 96 95 97 84 89 93 92 74 52 47 15 28 51 76 78 91
45 32 35 36 48 97 99 97 97 97 96 93 83 72 49 44 33 30 34 36 27 43 78 73 77 89 90 91 92 96 96 91 76 92 96 79 60 40 92 92 94 92 93
34 32 37 49 45 52 94 97 95 96 96 97 94 84 67 36 32 32 34 28 24 21 48 69 70 66 74 85 90 93 96 95 95 93 86 94 95 96 94 87 85 96 96
34 41 36 42 45 50 75 94 95 96 96 98 96 92 75 41 29 34 33 27 20 19 26 62 84 87 78 93 96 93 95 93 92 93 98 95 98 91 88 86 94 96 96
60 49 32 48 53 44 56 70 88 94 95 95 94 92 72 31 47 40 39 34 31 35 57 95 98 97 97 96 95 91 95 93 91 92 97 95 96 90 97 96 96 98 95
64 82 63 47 50 44 56 68 70 74 88 88 78 45 36 32 43 47 52 44 47 90 94 97 95 90 97 98 95 93 96 96 94 94 92 96 96 94 96 96 97 98 96
94 85 84 59 50 56 61 63 64 50 62 63 51 47 42 53 59 68 66 58 48 68 93 89 96 96 100 98 97 96 93 100 95 97 95 92 98 94 97 96 95 94 98
48 56 59 54 66 75 62 47 51 45 46 57 51 46 43 43 48 57 66 50 53 58 79 84 95 96 97 98 97 94 92 100 99 98 99 95 98 97 97 97 97 96 95
61 67 75 98 93 83 62 38 36 39 37 39 50 48 60 62 61 58 58 56 70 67 62 67 79 92 96 97 96 94 89 98 96 98 97 97 96 97 96 97 96 98 93
100 100 96 97 83 76 71 80 73 74 64 59 60 59 62 64 60 64 61 74 85 95 96 99 99 84 94 96 97 96 96 95 96 96 95 96 96 98 100 97 96 94 99
94 81 98 92 87 84 84 80 72 86 77 80 92 90 96 100 95 88 75 82 84 96 97 95 100 96 96 100 99 96 98 97 95 96 96 96 96 97 97 92 94 96 99
70 76 73 59 76 68 63 67 94 95 98 97 98 95 99 98 97 98 98 98 98 96 99 97 96 97 97 100 97 97 97 98 97 97 97 97 96 96 97 97 96 99 98
98 98 98 73 93 98 98 98 95 96 95 90 98 93 97 98 99 96 97 98 98 97 97 97 98 97 97 98 95 98 96 94 94 93 96 97 97 96 96 96 96 98 98
98 98 95 99 98 98 99 92 92 96 96 88 68 90 98 96 96 97 97 95 86 96 77 77 94 58 58 77 79 71 35 39 74 94 95 97 96 90 92 94 96 99 97
16 15 30 51 31 34 44 46 36 13 12 13 13 13 13 14 13 13 12 14 14 13 12 9 10 13 8 8 8 8 8 6 13 34 49 54 55 73 90 89 98 98 98
22 23 24 24 22 21 20 18 18 17 18 19 20 20 20 18 18 16 16 16 16 14 15 15 15 14 12 11 11 10 9 10 9 18 14 21 36 43 42 88 96 96 95
31 31 32 32 32 32 32 33 32 32 32 31 31 33 36 40 39 34 30 25 22 21 21 20 19 19 19 18 17 16 14 13 12 11 11 9 16 20 58 59 42 68 72
36 38 39 43 50 55 53 52 50 46 43 39 36 35 34 36 39 41 42 42 43 42 39 31 24 22 22 24 22 20 17 16 14 13 13 12 11 14 41 89 84 82 95
87 99 100 91 83 80 73 65 57 52 49 46 44 54 61 62 63 60 56 54 49 48 48 46 44 42 38 34 35 34 29 21 16 13 11 11 11 12 15 74 95 100 96

GFSMA_500_rhum_114.txt.gz
RH
40 49 40 50 72 64 60 64 71 52 64 62 50 64 69 67 59 46 42 51 45 40 44 48 39 30 20 13 12 12 12 13 14 14 15 16 16 16 16 17 17 17 19
7 23 46 48 69 76 68 73 77 79 81 82 75 63 73 78 76 59 40 46 48 47 45 47 49 48 44 32 14 13 13 13 14 14 15 16 16 17 17 17 17 17 17
8 6 7 18 48 62 79 83 94 94 94 93 90 86 79 74 75 77 69 90 71 50 47 51 50 52 54 54 40 17 12 13 13 14 14 15 15 15 15 16 17 18 16
11 8 7 5 8 47 82 92 96 98 100 96 94 95 92 88 87 86 86 88 100 99 82 70 67 60 59 56 58 55 34 19 15 13 13 13 13 14 17 18 22 18 15
32 16 10 8 12 39 58 81 90 98 98 97 98 96 95 82 93 97 84 94 81 85 91 50 61 90 87 69 65 61 62 57 49 34 17 14 15 20 18 16 16 14 14
51 64 79 56 14 8 42 87 98 98 98 93 97 97 96 87 86 100 90 99 90 83 64 61 54 34 82 81 77 71 70 64 67 69 68 62 51 47 47 42 26 13 13
59 53 58 50 40 13 12 40 94 96 96 99 96 97 98 92 89 92 98 94 88 66 41 34 40 40 62 83 94 90 79 68 85 84 79 88 78 69 83 80 57 73 16
58 55 41 25 22 19 14 11 26 96 96 97 96 94 92 84 88 100 96 88 69 41 31 29 38 33 29 45 84 97 88 88 91 91 93 97 96 91 94 96 93 75 40
54 64 54 48 24 18 18 16 15 26 82 94 97 93 90 86 99 99 95 82 58 39 34 32 29 31 27 40 76 93 97 90 92 90 98 96 96 95 94 95 95 95 80
49 98 97 94 30 28 30 24 15 27 64 97 97 94 96 97 98 96 92 72 48 35 32 33 30 29 24 19 46 86 86 87 84 89 92 90 93 96 99 96 92 96 94
76 51 59 52 47 38 36 44 59 55 71 92 98 97 97 98 96 92 82 75 57 48 43 39 35 33 26 18 25 56 64 68 73 84 91 87 88 88 94 95 97 91 93
81 96 96 92 77 65 54 52 50 56 64 75 92 97 96 98 96 94 87 81 64 44 36 38 38 39 35 24 32 60 91 93 92 91 82 79 87 93 98 100 98 93 96
97 96 99 97 99 91 64 68 69 60 50 53 55 73 92 84 96 93 84 65 60 48 44 41 47 45 41 42 67 100 97 95 97 95 84 88 89 93 99 98 96 94 97
99 99 98 89 99 75 62 65 64 58 46 39 40 47 53 63 90 86 67 52 45 44 47 48 59 53 51 71 85 94 96 95 98 97 91 88 89 93 94 97 95 97 96
98 93 62 65 59 53 48 61 76 58 49 46 52 69 69 77 69 71 70 70 96 79 55 46 57 63 57 60 71 91 100 97 96 95 97 90 93 100 93 99 94 96 97
74 57 58 68 67 60 69 73 70 88 90 79 70 64 71 62 61 59 51 55 57 55 52 52 54 56 83 74 78 73 87 95 97 92 98 96 92 87 97 94 97 96 96
59 51 47 48 56 65 70 68 89 91 94 67 42 50 58 56 56 70 68 60 57 64 63 60 57 60 73 91 97 93 84 88 97 96 97 97 97 93 94 96 97 97 95
73 72 84 92 92 78 75 90 98 77 68 70 72 73 72 72 71 69 67 78 85 93 84 74 69 65 75 85 97 97 98 99 96 96 96 96 96 98 99 96 99 96 95
96 85 81 80 83 88 90 98 97 98 99 94 97 97 99 98 99 98 98 96 98 100 98 84 91 98 97 97 98 97 97 98 97 97 96 96 95 96 96 96 97 97 96
94 97 98 99 100 98 100 98 98 98 99 93 91 96 98 97 97 98 98 97 98 98 97 96 97 97 98 98 98 98 98 97 96 97 96 98 97 97 95 94 96 97 97
77 50 61 92 90 97 98 98 98 97 96 96 99 98 99 98 96 95 90 96 99 98 97 97 98 99 99 98 97 98 96 94 98 99 96 94 96 93 84 92 96 94 96
16 16 17 17 16 17 16 16 19 45 73 83 54 87 38 17 20 17 15 14 20 23 16 39 90 87 72 92 64 51 76 83 33 77 42 27 35 57 97 88 62 76 90
27 27 28 29 29 29 29 30 29 28 26 23 22 22 23 21 20 18 19 17 17 18 19 21 20 20 18 17 20 23 14 10 10 10 24 13 12 22 48 33 38 30 65
36 37 37 37 36 35 36 37 38 38 36 36 35 35 35 36 35 34 35 34 33 35 30 27 31 35 31 28 26 23 18 15 12 12 12 14 14 10 10 13 18 44 31
69 68 66 68 70 71 78 89 86 82 90 92 87 80 73 67 63 58 53 53 56 55 45 35 34 36 40 44 45 41 33 26 23 21 19 15 14 14 13 12 11 13 25
100 100 100 98 97 99 97 94 90 90 90 87 75 65 60 57 48 38 35 35 34 34 35 40 49 52 49 48 50 49 48 47 40 36 34 28 24 20 16 14 13 12 15

GFSMA_500_rhum_117.txt.gz
RH
21 12 6 7 21 42 36 32 44 55 48 52 66 47 42 49 46 48 61 64 61 56 49 52 47 42 43 43 36 26 16 13 12 12 12 13 14 15 16 16 17 17 17
26 26 27 8 6 14 45 50 48 59 66 62 63 76 77 73 69 60 72 82 75 66 34 33 48 50 49 51 50 49 43 30 16 13 13 13 13 14 14 15 15 16 16
17 22 44 46 23 31 11 14 37 76 80 75 78 81 85 86 78 75 70 74 79 79 69 51 55 48 46 44 45 48 51 52 44 27 13 13 13 13 13 14 14 14 17
12 23 38 56 50 38 10 7 8 36 74 90 88 94 93 88 87 85 80 77 81 84 83 91 87 79 73 72 77 69 58 56 57 55 42 26 20 17 15 14 15 19 22
13 43 42 42 44 40 18 31 14 14 28 79 94 98 96 98 97 98 93 84 89 91 88 99 93 97 80 55 34 34 74 80 68 66 62 60 55 54 56 61 58 53 46
10 24 59 37 46 52 40 32 24 13 16 60 68 97 96 95 97 90 85 87 92 88 99 95 84 66 69 63 41 32 29 60 76 73 73 71 66 63 62 76 95 76 75
16 23 41 56 62 67 69 72 91 16 21 28 99 74 95 92 97 98 94 98 98 89 92 94 85 94 81 47 34 33 33 41 73 79 84 82 81 82 78 96 98 92 95
27 30 27 43 54 91 92 95 99 59 26 12 39 97 92 86 93 96 97 92 87 87 88 97 94 89 61 34 28 28 30 25 45 74 84 93 89 97 92 94 96 96 98
25 25 45 33 39 42 80 85 94 79 61 21 13 24 70 96 95 94 97 96 92 91 93 86 90 74 54 33 30 29 29 27 25 48 75 89 87 87 92 94 95 97 99
40 36 40 57 73 67 60 65 75 82 53 52 34 34 40 66 92 84 98 97 90 89 95 95 94 72 44 31 34 33 33 27 24 26 56 83 87 83 84 90 94 95 98
52 50 47 72 93 88 91 97 96 94 71 42 67 66 57 99 94 93 98 96 95 98 97 97 93 55 39 37 38 38 39 36 31 25 25 75 76 77 83 92 91 89 98
65 76 63 98 95 96 97 98 98 98 98 74 34 42 50 63 99 99 96 94 98 99 97 95 84 65 55 44 38 37 41 42 38 32 39 44 71 81 93 90 91 90 97
94 100 77 98 98 96 99 98 98 98 97 83 50 42 43 63 74 96 98 95 94 97 96 91 95 94 87 62 53 50 47 46 46 47 70 79 85 96 99 96 86 86 95
99 95 99 99 97 98 97 97 97 96 94 84 71 60 58 54 57 68 76 83 84 92 97 92 90 79 64 55 53 56 50 55 62 63 77 87 93 98 99 93 90 88 97
100 100 100 99 96 99 98 95 74 80 76 53 52 62 71 76 69 60 46 35 34 36 56 73 88 74 89 78 56 51 51 54 60 68 80 91 92 93 97 96 94 93 95
98 96 97 97 94 84 57 51 60 62 55 64 81 70 64 54 48 44 42 49 58 59 54 60 72 75 86 66 63 53 54 55 51 75 87 90 98 98 97 97 96 94 90
70 69 61 51 42 38 38 37 41 50 56 67 68 70 71 80 77 80 70 71 77 71 60 63 61 59 54 54 60 84 74 69 74 69 76 86 100 93 96 97 97 98 94
76 72 67 62 56 58 77 82 82 79 71 73 76 86 88 85 82 48 48 49 60 56 54 51 62 55 56 68 69 79 76 87 100 96 95 98 98 91 99 98 97 95 83
100 86 75 70 75 80 85 83 86 89 96 93 86 95 94 82 69 88 94 78 83 85 80 77 77 93 99 93 86 87 87 91 87 91 94 95 97 98 97 98 96 98 97
47 79 99 100 95 93 99 100 100 96 92 87 96 97 99 100 100 99 100 94 99 99 98 98 99 100 99 97 97 92 95 95 86 98 97 98 97 96 97 97 97 97 97
18 18 17 19 17 17 17 28 24 27 62 95 98 99 95 98 99 99 95 100 100 94 97 100 98 99 99 97 96 97 97 99 98 98 98 97 97 97 96 98 98 95 98
31 29 27 26 26 26 26 26 26 27 28 28 28 28 44 78 93 96 97 78 29 57 93 99 63 72 94 63 83 99 100 97 97 96 98 100 98 97 97 95 97 99 97
63 52 49 49 44 40 39 38 38 38 38 38 38 37 36 35 34 34 34 33 37 55 32 22 24 20 28 21 22 20 75 96 96 99 95 95 92 91 75 57 66 93 97
51 70 86 98 93 83 80 77 69 63 60 59 63 73 87 82 71 64 65 56 46 39 35 35 32 34 30 28 23 23 21 21 37 46 71 61 45 19 49 49 20 34 56
38 43 51 54 54 64 80 89 100 100 100 100 100 100 97 98 94 89 81 80 78 77 65 57 51 43 37 34 33 33 34 27 22 23 21 19 21 17 13 20 32 18 11
40 46 47 49 52 54 58 55 53 51 65 81 89 93 91 92 96 93 86 82 84 72 67 66 65 59 53 49 47 46 48 45 36 36 43 35 24 20 17 17 16 14 14

GFSMA_500_rhum_120.txt.gz
RH
6 6 6 6 7 6 4 6 12 31 33 30 38 52 55 44 49 41 38 48 50 50 55 53 49 50 42 44 39 40 42 34 26 18 14 12 12 12 12 13 14 14 15
5 6 7 7 7 28 33 17 15 22 27 44 43 35 50 70 60 58 60 58 65 60 66 74 72 67 41 34 44 46 44 45 45 43 40 31 20 14 13 13 14 14 14
10 8 7 8 24 25 28 30 22 14 57 45 38 53 58 72 84 70 75 75 78 76 69 71 78 73 65 51 38 40 47 48 49 49 50 51 41 29 16 13 13 13 13
14 13 14 12 26 44 35 40 52 50 54 49 25 21 71 80 81 70 75 80 86 85 81 76 76 83 80 69 59 44 41 48 58 62 58 54 55 58 45 35 28 30 41
8 10 11 13 15 36 46 40 49 63 57 55 24 21 32 58 91 86 86 95 99 100 99 85 88 99 93 92 91 95 68 54 40 30 41 57 61 63 64 64 60 60 68
14 11 8 8 9 24 39 51 52 62 69 64 38 45 43 55 78 96 96 96 96 97 98 100 92 95 94 97 90 86 80 79 43 39 38 37 62 65 69 66 68 65 71
32 32 18 17 17 12 20 48 65 66 70 66 49 40 39 33 19 99 98 96 96 97 94 94 95 98 96 95 96 86 81 75 45 31 30 33 35 53 73 82 81 75 84
35 53 41 31 24 18 18 30 66 77 77 84 76 77 62 35 18 87 98 92 93 96 97 97 94 96 95 88 91 92 81 82 54 28 28 28 28 33 62 80 92 93 87
34 40 50 43 35 30 25 32 36 64 84 95 80 77 89 68 50 58 80 83 94 96 95 97 97 97 96 90 91 89 83 77 43 29 28 28 27 21 36 58 89 96 92
55 49 49 39 37 35 32 33 41 51 84 92 98 95 98 96 70 34 38 80 86 96 98 96 97 97 94 95 99 96 92 83 49 31 30 30 29 30 29 55 83 92 93
69 70 52 58 42 34 29 41 44 62 59 70 80 84 92 84 88 84 27 29 75 96 88 90 96 96 96 96 99 98 94 70 39 35 32 33 35 38 37 47 81 94 91
94 91 92 71 63 41 28 27 98 95 98 80 72 56 59 68 84 86 60 50 56 88 100 90 98 91 96 97 98 97 81 54 48 39 34 36 38 36 37 44 73 80 82
95 88 76 83 80 67 38 34 97 98 98 97 98 98 98 93 93 92 78 48 51 93 96 98 98 97 94 96 92 93 88 67 56 53 49 44 42 38 58 68 74 84 96
100 100 100 99 99 80 62 95 96 98 97 98 98 98 96 87 80 89 77 39 38 41 73 93 99 94 93 83 96 100 92 83 77 69 55 45 43 46 54 80 84 95 97
99 100 100 100 100 97 96 99 99 100 99 98 96 97 97 94 88 80 80 63 45 45 54 80 88 94 90 92 92 92 95 88 71 68 62 50 50 54 50 52 71 91 98
74 95 97 95 98 89 97 98 98 98 97 93 65 52 53 65 63 54 50 52 54 56 49 53 57 55 48 58 75 82 82 76 84 90 60 54 51 50 55 55 60 86 86
88 88 79 62 54 65 75 83 90 85 59 49 46 43 43 48 45 48 48 51 62 57 46 45 48 47 48 86 92 100 92 83 86 87 74 66 55 56 58 54 55 74 98
81 84 91 90 80 77 74 62 64 63 60 51 53 52 53 50 51 57 55 55 68 65 61 62 67 43 63 77 97 90 95 97 94 90 72 59 67 62 59 78 75 92 100
22 28 24 41 76 96 92 93 78 83 87 83 82 87 88 86 83 84 96 91 89 86 74 63 52 55 55 59 62 66 68 68 68 60 60 68 80 86 96 82 91 92 92
36 30 28 26 23 19 40 56 33 28 38 78 89 100 94 92 98 100 94 95 98 91 80 77 86 84 80 79 60 59 63 65 71 94 93 78 80 69 93 100 94 95 91
50 63 64 56 42 36 34 30 28 26 25 24 22 21 22 25 48 93 97 99 96 99 99 98 97 98 95 98 95 98 94 98 95 96 99 97 92 90 95 96 95 100 96
23 24 26 29 43 77 89 79 64 52 44 38 35 34 33 32 31 32 32 34 60 96 98 98 100 98 97 98 99 91 98 98 98 97 99 99 91 94 94 97 99 98 98
18 18 18 18 22 30 35 44 76 100 99 88 77 67 58 50 45 43 42 44 40 39 42 54 44 76 76 48 46 94 91 94 98 72 84 100 94 100 99 98 98 97 98
22 22 20 18 27 39 46 47 50 55 62 76 97 100 100 96 86 90 93 94 97 88 62 61 54 56 46 67 79 52 52 49 70 57 23 57 99 97 98 98 95 97 98
18 10 14 14 23 48 55 55 54 54 55 55 55 56 55 56 65 85 95 93 95 98 92 93 89 83 72 62 54 50 42 33 31 30 26 59 31 77 96 99 97 97 94
11 14 19 21 24 34 38 43 52 62 66 61 61 64 59 55 48 48 49 50 53 60 74 75 74 78 79 79 76 66 55 53 45 38 44 29 29 25 50 82 90 77 58